<?xml version="1.0" encoding="UTF-8" standalone="no" ?>
<gpx xmlns="http://www.topografix.com/GPX/1/1" xmlns:xsi="http://www.w3.org/2001/XMLSchema-instance" xsi:schemaLocation="http://www.topografix.com/GPX/1/1 http://www.topografix.com/GPX/1/1/gpx.xsd" version="1.1" creator="VisuGPX - https://www.visugpx.com">
  <metadata>
    <name>lundi 2016 01</name>
    <desc><![CDATA[cumul janvier 2016]]></desc>
  </metadata>
  <trk>
    <name><![CDATA[lundi 2016 01 18]]></name>
    <extensions>
      <line xmlns="http://www.topografix.com/GPX/gpx_style/0/2">
        <color>000000</color>
      </line>
    </extensions>
    <trkseg>
      <trkpt lat="48.85734" lon="2.34736">
        <ele>40.400001525879</ele>
        <time>2016-01-18T19:20:34Z</time>
      </trkpt>
      <trkpt lat="48.85736" lon="2.34733">
        <ele>40.400001525879</ele>
        <time>2016-01-18T19:20:35Z</time>
      </trkpt>
      <trkpt lat="48.85733" lon="2.34716">
        <ele>40.400001525879</ele>
        <time>2016-01-18T19:20:45Z</time>
      </trkpt>
      <trkpt lat="48.8573" lon="2.34707">
        <ele>40.599998474121</ele>
        <time>2016-01-18T19:20:50Z</time>
      </trkpt>
      <trkpt lat="48.85711" lon="2.34693">
        <ele>40.79999923706</ele>
        <time>2016-01-18T19:20:58Z</time>
      </trkpt>
      <trkpt lat="48.85694" lon="2.34683">
        <ele>41</ele>
        <time>2016-01-18T19:21:03Z</time>
      </trkpt>
      <trkpt lat="48.85676" lon="2.34673">
        <ele>42.20000076294</ele>
        <time>2016-01-18T19:21:09Z</time>
      </trkpt>
      <trkpt lat="48.85656" lon="2.34661">
        <ele>43.79999923706</ele>
        <time>2016-01-18T19:21:15Z</time>
      </trkpt>
      <trkpt lat="48.8564" lon="2.34644">
        <ele>45.20000076294</ele>
        <time>2016-01-18T19:21:21Z</time>
      </trkpt>
      <trkpt lat="48.85632" lon="2.34637">
        <ele>45.79999923706</ele>
        <time>2016-01-18T19:21:27Z</time>
      </trkpt>
      <trkpt lat="48.85619" lon="2.34632">
        <ele>46.79999923706</ele>
        <time>2016-01-18T19:21:39Z</time>
      </trkpt>
      <trkpt lat="48.85603" lon="2.34621">
        <ele>48</ele>
        <time>2016-01-18T19:21:43Z</time>
      </trkpt>
      <trkpt lat="48.85582" lon="2.3461">
        <ele>47.79999923706</ele>
        <time>2016-01-18T19:21:47Z</time>
      </trkpt>
      <trkpt lat="48.8556" lon="2.34602">
        <ele>47.400001525879</ele>
        <time>2016-01-18T19:21:51Z</time>
      </trkpt>
      <trkpt lat="48.8554" lon="2.3459">
        <ele>47.20000076294</ele>
        <time>2016-01-18T19:21:55Z</time>
      </trkpt>
      <trkpt lat="48.8552" lon="2.34574">
        <ele>46.599998474121</ele>
        <time>2016-01-18T19:21:59Z</time>
      </trkpt>
      <trkpt lat="48.85501" lon="2.34561">
        <ele>45.400001525879</ele>
        <time>2016-01-18T19:22:03Z</time>
      </trkpt>
      <trkpt lat="48.85485" lon="2.34548">
        <ele>44.20000076294</ele>
        <time>2016-01-18T19:22:07Z</time>
      </trkpt>
      <trkpt lat="48.85468" lon="2.34536">
        <ele>43</ele>
        <time>2016-01-18T19:22:11Z</time>
      </trkpt>
      <trkpt lat="48.85451" lon="2.34515">
        <ele>41.79999923706</ele>
        <time>2016-01-18T19:22:15Z</time>
      </trkpt>
      <trkpt lat="48.85434" lon="2.34492">
        <ele>41.20000076294</ele>
        <time>2016-01-18T19:22:19Z</time>
      </trkpt>
      <trkpt lat="48.85423" lon="2.34479">
        <ele>41.599998474121</ele>
        <time>2016-01-18T19:22:21Z</time>
      </trkpt>
      <trkpt lat="48.85408" lon="2.34461">
        <ele>42</ele>
        <time>2016-01-18T19:22:25Z</time>
      </trkpt>
      <trkpt lat="48.85402" lon="2.34451">
        <ele>42</ele>
        <time>2016-01-18T19:22:28Z</time>
      </trkpt>
      <trkpt lat="48.85398" lon="2.34444">
        <ele>42</ele>
        <time>2016-01-18T19:22:31Z</time>
      </trkpt>
      <trkpt lat="48.85392" lon="2.34438">
        <ele>42.20000076294</ele>
        <time>2016-01-18T19:22:35Z</time>
      </trkpt>
      <trkpt lat="48.85391" lon="2.34436">
        <ele>42.20000076294</ele>
        <time>2016-01-18T19:22:37Z</time>
      </trkpt>
      <trkpt lat="48.85394" lon="2.34431">
        <ele>41.79999923706</ele>
        <time>2016-01-18T19:22:44Z</time>
      </trkpt>
      <trkpt lat="48.85386" lon="2.34406">
        <ele>42.20000076294</ele>
        <time>2016-01-18T19:23:03Z</time>
      </trkpt>
      <trkpt lat="48.8537" lon="2.34386">
        <ele>44</ele>
        <time>2016-01-18T19:23:08Z</time>
      </trkpt>
      <trkpt lat="48.85356" lon="2.34366">
        <ele>45.79999923706</ele>
        <time>2016-01-18T19:23:12Z</time>
      </trkpt>
      <trkpt lat="48.85341" lon="2.34347">
        <ele>46.79999923706</ele>
        <time>2016-01-18T19:23:17Z</time>
      </trkpt>
      <trkpt lat="48.85328" lon="2.34328">
        <ele>47.79999923706</ele>
        <time>2016-01-18T19:23:22Z</time>
      </trkpt>
      <trkpt lat="48.85324" lon="2.34327">
        <ele>47.79999923706</ele>
        <time>2016-01-18T19:23:23Z</time>
      </trkpt>
      <trkpt lat="48.85306" lon="2.34328">
        <ele>48.20000076294</ele>
        <time>2016-01-18T19:23:28Z</time>
      </trkpt>
      <trkpt lat="48.85302" lon="2.34327">
        <ele>48.400001525879</ele>
        <time>2016-01-18T19:23:29Z</time>
      </trkpt>
      <trkpt lat="48.85284" lon="2.34317">
        <ele>48.79999923706</ele>
        <time>2016-01-18T19:23:36Z</time>
      </trkpt>
      <trkpt lat="48.85265" lon="2.34305">
        <ele>49.20000076294</ele>
        <time>2016-01-18T19:23:43Z</time>
      </trkpt>
      <trkpt lat="48.8525" lon="2.34288">
        <ele>49.20000076294</ele>
        <time>2016-01-18T19:23:47Z</time>
      </trkpt>
      <trkpt lat="48.85233" lon="2.34272">
        <ele>49.20000076294</ele>
        <time>2016-01-18T19:23:51Z</time>
      </trkpt>
      <trkpt lat="48.85218" lon="2.34249">
        <ele>49.400001525879</ele>
        <time>2016-01-18T19:23:57Z</time>
      </trkpt>
      <trkpt lat="48.85201" lon="2.3423">
        <ele>48.599998474121</ele>
        <time>2016-01-18T19:24:01Z</time>
      </trkpt>
      <trkpt lat="48.85182" lon="2.34219">
        <ele>48</ele>
        <time>2016-01-18T19:24:07Z</time>
      </trkpt>
      <trkpt lat="48.85181" lon="2.34217">
        <ele>47.79999923706</ele>
        <time>2016-01-18T19:24:08Z</time>
      </trkpt>
      <trkpt lat="48.85173" lon="2.34191">
        <ele>47</ele>
        <time>2016-01-18T19:24:15Z</time>
      </trkpt>
      <trkpt lat="48.85162" lon="2.34168">
        <ele>46.20000076294</ele>
        <time>2016-01-18T19:24:20Z</time>
      </trkpt>
      <trkpt lat="48.85142" lon="2.34157">
        <ele>46</ele>
        <time>2016-01-18T19:24:24Z</time>
      </trkpt>
      <trkpt lat="48.85122" lon="2.34157">
        <ele>46</ele>
        <time>2016-01-18T19:24:27Z</time>
      </trkpt>
      <trkpt lat="48.85104" lon="2.34142">
        <ele>46</ele>
        <time>2016-01-18T19:24:32Z</time>
      </trkpt>
      <trkpt lat="48.85099" lon="2.34134">
        <ele>46.400001525879</ele>
        <time>2016-01-18T19:24:35Z</time>
      </trkpt>
      <trkpt lat="48.85088" lon="2.34148">
        <ele>46.79999923706</ele>
        <time>2016-01-18T19:24:41Z</time>
      </trkpt>
      <trkpt lat="48.8508" lon="2.34175">
        <ele>47.400001525879</ele>
        <time>2016-01-18T19:24:50Z</time>
      </trkpt>
      <trkpt lat="48.8507" lon="2.34199">
        <ele>48.599998474121</ele>
        <time>2016-01-18T19:24:58Z</time>
      </trkpt>
      <trkpt lat="48.85063" lon="2.34225">
        <ele>50</ele>
        <time>2016-01-18T19:25:04Z</time>
      </trkpt>
      <trkpt lat="48.85049" lon="2.34246">
        <ele>51.599998474121</ele>
        <time>2016-01-18T19:25:09Z</time>
      </trkpt>
      <trkpt lat="48.85032" lon="2.34261">
        <ele>52.400001525879</ele>
        <time>2016-01-18T19:25:17Z</time>
      </trkpt>
      <trkpt lat="48.85019" lon="2.34283">
        <ele>53.599998474121</ele>
        <time>2016-01-18T19:25:25Z</time>
      </trkpt>
      <trkpt lat="48.85011" lon="2.34296">
        <ele>54.20000076294</ele>
        <time>2016-01-18T19:25:33Z</time>
      </trkpt>
      <trkpt lat="48.84999" lon="2.34297">
        <ele>54.79999923706</ele>
        <time>2016-01-18T19:25:38Z</time>
      </trkpt>
      <trkpt lat="48.84986" lon="2.34276">
        <ele>55.20000076294</ele>
        <time>2016-01-18T19:25:45Z</time>
      </trkpt>
      <trkpt lat="48.8497" lon="2.34261">
        <ele>55.599998474121</ele>
        <time>2016-01-18T19:25:50Z</time>
      </trkpt>
      <trkpt lat="48.84952" lon="2.3425">
        <ele>56.400001525879</ele>
        <time>2016-01-18T19:25:55Z</time>
      </trkpt>
      <trkpt lat="48.84937" lon="2.34234">
        <ele>57</ele>
        <time>2016-01-18T19:26:00Z</time>
      </trkpt>
      <trkpt lat="48.84914" lon="2.34228">
        <ele>58.400001525879</ele>
        <time>2016-01-18T19:26:05Z</time>
      </trkpt>
      <trkpt lat="48.84892" lon="2.34237">
        <ele>60.20000076294</ele>
        <time>2016-01-18T19:26:09Z</time>
      </trkpt>
      <trkpt lat="48.84875" lon="2.34235">
        <ele>61.400001525879</ele>
        <time>2016-01-18T19:26:13Z</time>
      </trkpt>
      <trkpt lat="48.84873" lon="2.34238">
        <ele>61.599998474121</ele>
        <time>2016-01-18T19:26:17Z</time>
      </trkpt>
      <trkpt lat="48.8486" lon="2.3426">
        <ele>62.599998474121</ele>
        <time>2016-01-18T19:26:28Z</time>
      </trkpt>
      <trkpt lat="48.84858" lon="2.34265">
        <ele>62.599998474121</ele>
        <time>2016-01-18T19:26:31Z</time>
      </trkpt>
      <trkpt lat="48.84856" lon="2.34266">
        <ele>62.599998474121</ele>
        <time>2016-01-18T19:26:34Z</time>
      </trkpt>
      <trkpt lat="48.84853" lon="2.34268">
        <ele>62.599998474121</ele>
        <time>2016-01-18T19:26:37Z</time>
      </trkpt>
      <trkpt lat="48.8484" lon="2.3427">
        <ele>62.400001525879</ele>
        <time>2016-01-18T19:26:58Z</time>
      </trkpt>
      <trkpt lat="48.84821" lon="2.34278">
        <ele>62.20000076294</ele>
        <time>2016-01-18T19:27:06Z</time>
      </trkpt>
      <trkpt lat="48.84819" lon="2.34276">
        <ele>62.400001525879</ele>
        <time>2016-01-18T19:27:07Z</time>
      </trkpt>
      <trkpt lat="48.84811" lon="2.34263">
        <ele>62.599998474121</ele>
        <time>2016-01-18T19:27:11Z</time>
      </trkpt>
      <trkpt lat="48.84794" lon="2.3425">
        <ele>63</ele>
        <time>2016-01-18T19:27:25Z</time>
      </trkpt>
      <trkpt lat="48.84779" lon="2.3425">
        <ele>63</ele>
        <time>2016-01-18T19:27:36Z</time>
      </trkpt>
      <trkpt lat="48.84759" lon="2.34247">
        <ele>63.599998474121</ele>
        <time>2016-01-18T19:27:44Z</time>
      </trkpt>
      <trkpt lat="48.84739" lon="2.34234">
        <ele>64.400001525879</ele>
        <time>2016-01-18T19:27:49Z</time>
      </trkpt>
      <trkpt lat="48.84727" lon="2.34211">
        <ele>64.800003051758</ele>
        <time>2016-01-18T19:27:55Z</time>
      </trkpt>
      <trkpt lat="48.84726" lon="2.34206">
        <ele>64.800003051758</ele>
        <time>2016-01-18T19:27:57Z</time>
      </trkpt>
      <trkpt lat="48.84726" lon="2.34204">
        <ele>64.599998474121</ele>
        <time>2016-01-18T19:27:59Z</time>
      </trkpt>
      <trkpt lat="48.84728" lon="2.34202">
        <ele>64.599998474121</ele>
        <time>2016-01-18T19:28:01Z</time>
      </trkpt>
      <trkpt lat="48.84719" lon="2.34193">
        <ele>64.800003051758</ele>
        <time>2016-01-18T19:28:07Z</time>
      </trkpt>
      <trkpt lat="48.84705" lon="2.3417">
        <ele>65</ele>
        <time>2016-01-18T19:28:13Z</time>
      </trkpt>
      <trkpt lat="48.84689" lon="2.34158">
        <ele>65.599998474121</ele>
        <time>2016-01-18T19:28:17Z</time>
      </trkpt>
      <trkpt lat="48.84674" lon="2.34137">
        <ele>65</ele>
        <time>2016-01-18T19:28:23Z</time>
      </trkpt>
      <trkpt lat="48.84647" lon="2.34138">
        <ele>65.800003051758</ele>
        <time>2016-01-18T19:28:28Z</time>
      </trkpt>
      <trkpt lat="48.84623" lon="2.34146">
        <ele>66.800003051758</ele>
        <time>2016-01-18T19:28:31Z</time>
      </trkpt>
      <trkpt lat="48.84618" lon="2.34146">
        <ele>66.800003051758</ele>
        <time>2016-01-18T19:28:32Z</time>
      </trkpt>
      <trkpt lat="48.84598" lon="2.34148">
        <ele>67.400001525879</ele>
        <time>2016-01-18T19:28:38Z</time>
      </trkpt>
      <trkpt lat="48.84588" lon="2.34153">
        <ele>67.599998474121</ele>
        <time>2016-01-18T19:28:41Z</time>
      </trkpt>
      <trkpt lat="48.84567" lon="2.34161">
        <ele>67.400001525879</ele>
        <time>2016-01-18T19:28:46Z</time>
      </trkpt>
      <trkpt lat="48.8455" lon="2.34166">
        <ele>67.400001525879</ele>
        <time>2016-01-18T19:28:51Z</time>
      </trkpt>
      <trkpt lat="48.8453" lon="2.34171">
        <ele>67.199996948242</ele>
        <time>2016-01-18T19:28:56Z</time>
      </trkpt>
      <trkpt lat="48.84511" lon="2.34177">
        <ele>66.800003051758</ele>
        <time>2016-01-18T19:29:01Z</time>
      </trkpt>
      <trkpt lat="48.84491" lon="2.34184">
        <ele>66</ele>
        <time>2016-01-18T19:29:06Z</time>
      </trkpt>
      <trkpt lat="48.84472" lon="2.34193">
        <ele>65.199996948242</ele>
        <time>2016-01-18T19:29:11Z</time>
      </trkpt>
      <trkpt lat="48.84454" lon="2.34199">
        <ele>64.599998474121</ele>
        <time>2016-01-18T19:29:16Z</time>
      </trkpt>
      <trkpt lat="48.84436" lon="2.34201">
        <ele>63.79999923706</ele>
        <time>2016-01-18T19:29:23Z</time>
      </trkpt>
      <trkpt lat="48.84416" lon="2.34209">
        <ele>63.79999923706</ele>
        <time>2016-01-18T19:29:31Z</time>
      </trkpt>
      <trkpt lat="48.84397" lon="2.34219">
        <ele>63.400001525879</ele>
        <time>2016-01-18T19:29:37Z</time>
      </trkpt>
      <trkpt lat="48.84376" lon="2.34212">
        <ele>62.79999923706</ele>
        <time>2016-01-18T19:29:42Z</time>
      </trkpt>
      <trkpt lat="48.84356" lon="2.34206">
        <ele>62</ele>
        <time>2016-01-18T19:29:47Z</time>
      </trkpt>
      <trkpt lat="48.84338" lon="2.34199">
        <ele>62.599998474121</ele>
        <time>2016-01-18T19:29:52Z</time>
      </trkpt>
      <trkpt lat="48.84327" lon="2.34174">
        <ele>63</ele>
        <time>2016-01-18T19:29:58Z</time>
      </trkpt>
      <trkpt lat="48.84327" lon="2.34171">
        <ele>63</ele>
        <time>2016-01-18T19:29:59Z</time>
      </trkpt>
      <trkpt lat="48.84342" lon="2.3415">
        <ele>62.20000076294</ele>
        <time>2016-01-18T19:30:07Z</time>
      </trkpt>
      <trkpt lat="48.84346" lon="2.34118">
        <ele>61.20000076294</ele>
        <time>2016-01-18T19:30:12Z</time>
      </trkpt>
      <trkpt lat="48.84352" lon="2.34084">
        <ele>60.20000076294</ele>
        <time>2016-01-18T19:30:18Z</time>
      </trkpt>
      <trkpt lat="48.84356" lon="2.34049">
        <ele>58.400001525879</ele>
        <time>2016-01-18T19:30:24Z</time>
      </trkpt>
      <trkpt lat="48.84366" lon="2.34022">
        <ele>57.400001525879</ele>
        <time>2016-01-18T19:30:27Z</time>
      </trkpt>
      <trkpt lat="48.84374" lon="2.33995">
        <ele>58</ele>
        <time>2016-01-18T19:30:31Z</time>
      </trkpt>
      <trkpt lat="48.84382" lon="2.33964">
        <ele>59.599998474121</ele>
        <time>2016-01-18T19:30:36Z</time>
      </trkpt>
      <trkpt lat="48.84392" lon="2.33941">
        <ele>60.79999923706</ele>
        <time>2016-01-18T19:30:42Z</time>
      </trkpt>
      <trkpt lat="48.84374" lon="2.33939">
        <ele>59.400001525879</ele>
        <time>2016-01-18T19:30:48Z</time>
      </trkpt>
      <trkpt lat="48.84354" lon="2.33937">
        <ele>57.400001525879</ele>
        <time>2016-01-18T19:30:52Z</time>
      </trkpt>
      <trkpt lat="48.84334" lon="2.33923">
        <ele>58</ele>
        <time>2016-01-18T19:30:55Z</time>
      </trkpt>
      <trkpt lat="48.8431" lon="2.33921">
        <ele>58.400001525879</ele>
        <time>2016-01-18T19:30:59Z</time>
      </trkpt>
      <trkpt lat="48.84288" lon="2.33916">
        <ele>58.79999923706</ele>
        <time>2016-01-18T19:31:03Z</time>
      </trkpt>
      <trkpt lat="48.84268" lon="2.33917">
        <ele>59.20000076294</ele>
        <time>2016-01-18T19:31:07Z</time>
      </trkpt>
      <trkpt lat="48.84252" lon="2.33915">
        <ele>60.20000076294</ele>
        <time>2016-01-18T19:31:11Z</time>
      </trkpt>
      <trkpt lat="48.84231" lon="2.33922">
        <ele>61.400001525879</ele>
        <time>2016-01-18T19:31:17Z</time>
      </trkpt>
      <trkpt lat="48.84211" lon="2.33925">
        <ele>62.400001525879</ele>
        <time>2016-01-18T19:31:22Z</time>
      </trkpt>
      <trkpt lat="48.84203" lon="2.33923">
        <ele>63</ele>
        <time>2016-01-18T19:31:24Z</time>
      </trkpt>
      <trkpt lat="48.84185" lon="2.33915">
        <ele>64</ele>
        <time>2016-01-18T19:31:29Z</time>
      </trkpt>
      <trkpt lat="48.84167" lon="2.33902">
        <ele>64</ele>
        <time>2016-01-18T19:31:35Z</time>
      </trkpt>
      <trkpt lat="48.84165" lon="2.33898">
        <ele>64</ele>
        <time>2016-01-18T19:31:36Z</time>
      </trkpt>
      <trkpt lat="48.84157" lon="2.33894">
        <ele>64</ele>
        <time>2016-01-18T19:31:39Z</time>
      </trkpt>
      <trkpt lat="48.8416" lon="2.33879">
        <ele>64.199996948242</ele>
        <time>2016-01-18T19:31:44Z</time>
      </trkpt>
      <trkpt lat="48.84156" lon="2.33851">
        <ele>64.800003051758</ele>
        <time>2016-01-18T19:31:53Z</time>
      </trkpt>
      <trkpt lat="48.8416" lon="2.33822">
        <ele>65</ele>
        <time>2016-01-18T19:32:00Z</time>
      </trkpt>
      <trkpt lat="48.84168" lon="2.33809">
        <ele>64.800003051758</ele>
        <time>2016-01-18T19:32:06Z</time>
      </trkpt>
      <trkpt lat="48.84175" lon="2.33787">
        <ele>64.400001525879</ele>
        <time>2016-01-18T19:32:16Z</time>
      </trkpt>
      <trkpt lat="48.84181" lon="2.33771">
        <ele>64.199996948242</ele>
        <time>2016-01-18T19:32:20Z</time>
      </trkpt>
      <trkpt lat="48.84196" lon="2.33752">
        <ele>63.79999923706</ele>
        <time>2016-01-18T19:32:26Z</time>
      </trkpt>
      <trkpt lat="48.84214" lon="2.33749">
        <ele>63.400001525879</ele>
        <time>2016-01-18T19:32:32Z</time>
      </trkpt>
      <trkpt lat="48.84233" lon="2.33745">
        <ele>62.79999923706</ele>
        <time>2016-01-18T19:32:38Z</time>
      </trkpt>
      <trkpt lat="48.84246" lon="2.33723">
        <ele>61.400001525879</ele>
        <time>2016-01-18T19:32:44Z</time>
      </trkpt>
      <trkpt lat="48.8425" lon="2.33694">
        <ele>60.400001525879</ele>
        <time>2016-01-18T19:32:49Z</time>
      </trkpt>
      <trkpt lat="48.84251" lon="2.33662">
        <ele>59.400001525879</ele>
        <time>2016-01-18T19:32:54Z</time>
      </trkpt>
      <trkpt lat="48.84254" lon="2.33633">
        <ele>60.400001525879</ele>
        <time>2016-01-18T19:32:59Z</time>
      </trkpt>
      <trkpt lat="48.84256" lon="2.33606">
        <ele>61</ele>
        <time>2016-01-18T19:33:03Z</time>
      </trkpt>
      <trkpt lat="48.84256" lon="2.33578">
        <ele>61.599998474121</ele>
        <time>2016-01-18T19:33:07Z</time>
      </trkpt>
      <trkpt lat="48.8426" lon="2.33547">
        <ele>61.20000076294</ele>
        <time>2016-01-18T19:33:11Z</time>
      </trkpt>
      <trkpt lat="48.84262" lon="2.33517">
        <ele>60.79999923706</ele>
        <time>2016-01-18T19:33:15Z</time>
      </trkpt>
      <trkpt lat="48.84266" lon="2.33491">
        <ele>60</ele>
        <time>2016-01-18T19:33:19Z</time>
      </trkpt>
      <trkpt lat="48.84266" lon="2.33478">
        <ele>60</ele>
        <time>2016-01-18T19:33:21Z</time>
      </trkpt>
      <trkpt lat="48.84263" lon="2.33448">
        <ele>59.79999923706</ele>
        <time>2016-01-18T19:33:26Z</time>
      </trkpt>
      <trkpt lat="48.84261" lon="2.33442">
        <ele>59.79999923706</ele>
        <time>2016-01-18T19:33:27Z</time>
      </trkpt>
      <trkpt lat="48.8425" lon="2.33424">
        <ele>59.79999923706</ele>
        <time>2016-01-18T19:33:31Z</time>
      </trkpt>
      <trkpt lat="48.84237" lon="2.33403">
        <ele>60</ele>
        <time>2016-01-18T19:33:35Z</time>
      </trkpt>
      <trkpt lat="48.84229" lon="2.33376">
        <ele>60.79999923706</ele>
        <time>2016-01-18T19:33:39Z</time>
      </trkpt>
      <trkpt lat="48.84217" lon="2.33353">
        <ele>61.400001525879</ele>
        <time>2016-01-18T19:33:43Z</time>
      </trkpt>
      <trkpt lat="48.84208" lon="2.33329">
        <ele>61.79999923706</ele>
        <time>2016-01-18T19:33:47Z</time>
      </trkpt>
      <trkpt lat="48.84199" lon="2.33305">
        <ele>61.79999923706</ele>
        <time>2016-01-18T19:33:51Z</time>
      </trkpt>
      <trkpt lat="48.8419" lon="2.33281">
        <ele>62</ele>
        <time>2016-01-18T19:33:55Z</time>
      </trkpt>
      <trkpt lat="48.84182" lon="2.3325">
        <ele>62.20000076294</ele>
        <time>2016-01-18T19:34:01Z</time>
      </trkpt>
      <trkpt lat="48.84186" lon="2.33227">
        <ele>62.400001525879</ele>
        <time>2016-01-18T19:34:07Z</time>
      </trkpt>
      <trkpt lat="48.8419" lon="2.33219">
        <ele>62.400001525879</ele>
        <time>2016-01-18T19:34:09Z</time>
      </trkpt>
      <trkpt lat="48.84206" lon="2.332">
        <ele>62.20000076294</ele>
        <time>2016-01-18T19:34:16Z</time>
      </trkpt>
      <trkpt lat="48.84223" lon="2.3319">
        <ele>61.79999923706</ele>
        <time>2016-01-18T19:34:27Z</time>
      </trkpt>
      <trkpt lat="48.84239" lon="2.33172">
        <ele>61.20000076294</ele>
        <time>2016-01-18T19:34:34Z</time>
      </trkpt>
      <trkpt lat="48.84246" lon="2.33177">
        <ele>61</ele>
        <time>2016-01-18T19:34:36Z</time>
      </trkpt>
      <trkpt lat="48.84268" lon="2.3317">
        <ele>60.20000076294</ele>
        <time>2016-01-18T19:34:41Z</time>
      </trkpt>
      <trkpt lat="48.84289" lon="2.33156">
        <ele>59.599998474121</ele>
        <time>2016-01-18T19:34:44Z</time>
      </trkpt>
      <trkpt lat="48.84306" lon="2.33144">
        <ele>59.20000076294</ele>
        <time>2016-01-18T19:34:48Z</time>
      </trkpt>
      <trkpt lat="48.84324" lon="2.33127">
        <ele>58.599998474121</ele>
        <time>2016-01-18T19:34:53Z</time>
      </trkpt>
      <trkpt lat="48.84337" lon="2.33108">
        <ele>57.79999923706</ele>
        <time>2016-01-18T19:34:58Z</time>
      </trkpt>
      <trkpt lat="48.84351" lon="2.33085">
        <ele>57.20000076294</ele>
        <time>2016-01-18T19:35:03Z</time>
      </trkpt>
      <trkpt lat="48.84371" lon="2.33072">
        <ele>57.400001525879</ele>
        <time>2016-01-18T19:35:08Z</time>
      </trkpt>
      <trkpt lat="48.84394" lon="2.33065">
        <ele>57.79999923706</ele>
        <time>2016-01-18T19:35:11Z</time>
      </trkpt>
      <trkpt lat="48.84411" lon="2.33052">
        <ele>58.400001525879</ele>
        <time>2016-01-18T19:35:17Z</time>
      </trkpt>
      <trkpt lat="48.84424" lon="2.33031">
        <ele>58.20000076294</ele>
        <time>2016-01-18T19:35:23Z</time>
      </trkpt>
      <trkpt lat="48.84437" lon="2.33009">
        <ele>58</ele>
        <time>2016-01-18T19:35:28Z</time>
      </trkpt>
      <trkpt lat="48.84451" lon="2.32982">
        <ele>57.400001525879</ele>
        <time>2016-01-18T19:35:33Z</time>
      </trkpt>
      <trkpt lat="48.84463" lon="2.32955">
        <ele>56.599998474121</ele>
        <time>2016-01-18T19:35:38Z</time>
      </trkpt>
      <trkpt lat="48.84475" lon="2.32928">
        <ele>55.599998474121</ele>
        <time>2016-01-18T19:35:44Z</time>
      </trkpt>
      <trkpt lat="48.84488" lon="2.32905">
        <ele>54.400001525879</ele>
        <time>2016-01-18T19:35:49Z</time>
      </trkpt>
      <trkpt lat="48.84498" lon="2.32882">
        <ele>53.599998474121</ele>
        <time>2016-01-18T19:35:58Z</time>
      </trkpt>
      <trkpt lat="48.845" lon="2.32878">
        <ele>53.599998474121</ele>
        <time>2016-01-18T19:36:00Z</time>
      </trkpt>
      <trkpt lat="48.84494" lon="2.32876">
        <ele>53.79999923706</ele>
        <time>2016-01-18T19:36:04Z</time>
      </trkpt>
      <trkpt lat="48.84475" lon="2.32883">
        <ele>55</ele>
        <time>2016-01-18T19:36:10Z</time>
      </trkpt>
      <trkpt lat="48.84456" lon="2.32902">
        <ele>56.599998474121</ele>
        <time>2016-01-18T19:36:15Z</time>
      </trkpt>
      <trkpt lat="48.84437" lon="2.3291">
        <ele>58</ele>
        <time>2016-01-18T19:36:19Z</time>
      </trkpt>
      <trkpt lat="48.84418" lon="2.32917">
        <ele>58.599998474121</ele>
        <time>2016-01-18T19:36:23Z</time>
      </trkpt>
      <trkpt lat="48.84397" lon="2.32924">
        <ele>59</ele>
        <time>2016-01-18T19:36:28Z</time>
      </trkpt>
      <trkpt lat="48.84379" lon="2.32925">
        <ele>59.400001525879</ele>
        <time>2016-01-18T19:36:33Z</time>
      </trkpt>
      <trkpt lat="48.84357" lon="2.3293">
        <ele>59.79999923706</ele>
        <time>2016-01-18T19:36:39Z</time>
      </trkpt>
      <trkpt lat="48.84336" lon="2.3294">
        <ele>59.599998474121</ele>
        <time>2016-01-18T19:36:45Z</time>
      </trkpt>
      <trkpt lat="48.84316" lon="2.32942">
        <ele>59.599998474121</ele>
        <time>2016-01-18T19:36:51Z</time>
      </trkpt>
      <trkpt lat="48.84295" lon="2.32944">
        <ele>59.79999923706</ele>
        <time>2016-01-18T19:36:57Z</time>
      </trkpt>
      <trkpt lat="48.84275" lon="2.32951">
        <ele>60</ele>
        <time>2016-01-18T19:37:03Z</time>
      </trkpt>
      <trkpt lat="48.84255" lon="2.32955">
        <ele>60.20000076294</ele>
        <time>2016-01-18T19:37:10Z</time>
      </trkpt>
      <trkpt lat="48.84236" lon="2.32958">
        <ele>60.400001525879</ele>
        <time>2016-01-18T19:37:17Z</time>
      </trkpt>
      <trkpt lat="48.84225" lon="2.32953">
        <ele>60.599998474121</ele>
        <time>2016-01-18T19:37:24Z</time>
      </trkpt>
      <trkpt lat="48.84208" lon="2.32952">
        <ele>60.79999923706</ele>
        <time>2016-01-18T19:37:42Z</time>
      </trkpt>
      <trkpt lat="48.84193" lon="2.3297">
        <ele>61</ele>
        <time>2016-01-18T19:37:49Z</time>
      </trkpt>
      <trkpt lat="48.84174" lon="2.3298">
        <ele>61</ele>
        <time>2016-01-18T19:37:54Z</time>
      </trkpt>
      <trkpt lat="48.84154" lon="2.32986">
        <ele>61.79999923706</ele>
        <time>2016-01-18T19:37:59Z</time>
      </trkpt>
      <trkpt lat="48.84139" lon="2.32973">
        <ele>62</ele>
        <time>2016-01-18T19:38:05Z</time>
      </trkpt>
      <trkpt lat="48.84126" lon="2.32948">
        <ele>61.599998474121</ele>
        <time>2016-01-18T19:38:10Z</time>
      </trkpt>
      <trkpt lat="48.84115" lon="2.32923">
        <ele>61</ele>
        <time>2016-01-18T19:38:14Z</time>
      </trkpt>
      <trkpt lat="48.84103" lon="2.329">
        <ele>60.79999923706</ele>
        <time>2016-01-18T19:38:18Z</time>
      </trkpt>
      <trkpt lat="48.84091" lon="2.32876">
        <ele>60.400001525879</ele>
        <time>2016-01-18T19:38:22Z</time>
      </trkpt>
      <trkpt lat="48.84078" lon="2.32854">
        <ele>60</ele>
        <time>2016-01-18T19:38:26Z</time>
      </trkpt>
      <trkpt lat="48.84062" lon="2.3283">
        <ele>59.400001525879</ele>
        <time>2016-01-18T19:38:31Z</time>
      </trkpt>
      <trkpt lat="48.84059" lon="2.32825">
        <ele>59.599998474121</ele>
        <time>2016-01-18T19:38:32Z</time>
      </trkpt>
      <trkpt lat="48.84045" lon="2.32801">
        <ele>59.599998474121</ele>
        <time>2016-01-18T19:38:37Z</time>
      </trkpt>
      <trkpt lat="48.84043" lon="2.32796">
        <ele>59.599998474121</ele>
        <time>2016-01-18T19:38:38Z</time>
      </trkpt>
      <trkpt lat="48.84037" lon="2.32769">
        <ele>60</ele>
        <time>2016-01-18T19:38:43Z</time>
      </trkpt>
      <trkpt lat="48.84043" lon="2.3274">
        <ele>61</ele>
        <time>2016-01-18T19:38:49Z</time>
      </trkpt>
      <trkpt lat="48.84044" lon="2.32735">
        <ele>61</ele>
        <time>2016-01-18T19:38:50Z</time>
      </trkpt>
      <trkpt lat="48.84048" lon="2.32719">
        <ele>61.20000076294</ele>
        <time>2016-01-18T19:38:53Z</time>
      </trkpt>
      <trkpt lat="48.84056" lon="2.32693">
        <ele>61.400001525879</ele>
        <time>2016-01-18T19:38:58Z</time>
      </trkpt>
      <trkpt lat="48.84063" lon="2.32666">
        <ele>61</ele>
        <time>2016-01-18T19:39:03Z</time>
      </trkpt>
      <trkpt lat="48.84071" lon="2.32641">
        <ele>60.599998474121</ele>
        <time>2016-01-18T19:39:07Z</time>
      </trkpt>
      <trkpt lat="48.84079" lon="2.32615">
        <ele>60.20000076294</ele>
        <time>2016-01-18T19:39:11Z</time>
      </trkpt>
      <trkpt lat="48.84087" lon="2.3259">
        <ele>59.79999923706</ele>
        <time>2016-01-18T19:39:15Z</time>
      </trkpt>
      <trkpt lat="48.84096" lon="2.32566">
        <ele>59.79999923706</ele>
        <time>2016-01-18T19:39:19Z</time>
      </trkpt>
      <trkpt lat="48.84104" lon="2.3254">
        <ele>60.79999923706</ele>
        <time>2016-01-18T19:39:23Z</time>
      </trkpt>
      <trkpt lat="48.84114" lon="2.32511">
        <ele>62</ele>
        <time>2016-01-18T19:39:28Z</time>
      </trkpt>
      <trkpt lat="48.84115" lon="2.32504">
        <ele>62.20000076294</ele>
        <time>2016-01-18T19:39:29Z</time>
      </trkpt>
      <trkpt lat="48.84111" lon="2.32476">
        <ele>61.599998474121</ele>
        <time>2016-01-18T19:39:35Z</time>
      </trkpt>
      <trkpt lat="48.84109" lon="2.32473">
        <ele>61.400001525879</ele>
        <time>2016-01-18T19:39:36Z</time>
      </trkpt>
      <trkpt lat="48.84108" lon="2.32469">
        <ele>61.400001525879</ele>
        <time>2016-01-18T19:39:37Z</time>
      </trkpt>
      <trkpt lat="48.84103" lon="2.32453">
        <ele>61</ele>
        <time>2016-01-18T19:39:42Z</time>
      </trkpt>
      <trkpt lat="48.84087" lon="2.32436">
        <ele>60.79999923706</ele>
        <time>2016-01-18T19:39:52Z</time>
      </trkpt>
      <trkpt lat="48.84068" lon="2.32433">
        <ele>61</ele>
        <time>2016-01-18T19:39:56Z</time>
      </trkpt>
      <trkpt lat="48.84061" lon="2.3241">
        <ele>60.79999923706</ele>
        <time>2016-01-18T19:40:03Z</time>
      </trkpt>
      <trkpt lat="48.84066" lon="2.32382">
        <ele>63</ele>
        <time>2016-01-18T19:40:11Z</time>
      </trkpt>
      <trkpt lat="48.84068" lon="2.32353">
        <ele>63</ele>
        <time>2016-01-18T19:40:20Z</time>
      </trkpt>
      <trkpt lat="48.84072" lon="2.32325">
        <ele>61.79999923706</ele>
        <time>2016-01-18T19:40:27Z</time>
      </trkpt>
      <trkpt lat="48.84072" lon="2.32296">
        <ele>60.79999923706</ele>
        <time>2016-01-18T19:40:36Z</time>
      </trkpt>
      <trkpt lat="48.84068" lon="2.32268">
        <ele>63.20000076294</ele>
        <time>2016-01-18T19:40:48Z</time>
      </trkpt>
      <trkpt lat="48.84066" lon="2.3224">
        <ele>64.800003051758</ele>
        <time>2016-01-18T19:40:57Z</time>
      </trkpt>
      <trkpt lat="48.84072" lon="2.32205">
        <ele>64.199996948242</ele>
        <time>2016-01-18T19:41:02Z</time>
      </trkpt>
      <trkpt lat="48.84058" lon="2.32184">
        <ele>63.79999923706</ele>
        <time>2016-01-18T19:41:05Z</time>
      </trkpt>
      <trkpt lat="48.84052" lon="2.32175">
        <ele>63.79999923706</ele>
        <time>2016-01-18T19:41:08Z</time>
      </trkpt>
      <trkpt lat="48.84054" lon="2.32151">
        <ele>64.400001525879</ele>
        <time>2016-01-18T19:41:37Z</time>
      </trkpt>
      <trkpt lat="48.84073" lon="2.3214">
        <ele>65.400001525879</ele>
        <time>2016-01-18T19:41:43Z</time>
      </trkpt>
      <trkpt lat="48.84093" lon="2.32132">
        <ele>64.199996948242</ele>
        <time>2016-01-18T19:41:48Z</time>
      </trkpt>
      <trkpt lat="48.84093" lon="2.32129">
        <ele>64</ele>
        <time>2016-01-18T19:41:49Z</time>
      </trkpt>
      <trkpt lat="48.84101" lon="2.3212">
        <ele>62.79999923706</ele>
        <time>2016-01-18T19:41:53Z</time>
      </trkpt>
      <trkpt lat="48.8412" lon="2.32106">
        <ele>59.599998474121</ele>
        <time>2016-01-18T19:42:00Z</time>
      </trkpt>
      <trkpt lat="48.84146" lon="2.32103">
        <ele>56.20000076294</ele>
        <time>2016-01-18T19:42:07Z</time>
      </trkpt>
      <trkpt lat="48.84174" lon="2.32101">
        <ele>52.79999923706</ele>
        <time>2016-01-18T19:42:11Z</time>
      </trkpt>
      <trkpt lat="48.84195" lon="2.32086">
        <ele>50.400001525879</ele>
        <time>2016-01-18T19:42:16Z</time>
      </trkpt>
      <trkpt lat="48.84221" lon="2.32082">
        <ele>52.20000076294</ele>
        <time>2016-01-18T19:42:22Z</time>
      </trkpt>
      <trkpt lat="48.84236" lon="2.32065">
        <ele>55.20000076294</ele>
        <time>2016-01-18T19:42:26Z</time>
      </trkpt>
      <trkpt lat="48.84242" lon="2.32031">
        <ele>57.20000076294</ele>
        <time>2016-01-18T19:42:31Z</time>
      </trkpt>
      <trkpt lat="48.84243" lon="2.32023">
        <ele>57.20000076294</ele>
        <time>2016-01-18T19:42:32Z</time>
      </trkpt>
      <trkpt lat="48.84239" lon="2.31991">
        <ele>57.400001525879</ele>
        <time>2016-01-18T19:42:36Z</time>
      </trkpt>
      <trkpt lat="48.84239" lon="2.31982">
        <ele>58</ele>
        <time>2016-01-18T19:42:39Z</time>
      </trkpt>
      <trkpt lat="48.84226" lon="2.31995">
        <ele>58</ele>
        <time>2016-01-18T19:42:45Z</time>
      </trkpt>
      <trkpt lat="48.84224" lon="2.31997">
        <ele>57.79999923706</ele>
        <time>2016-01-18T19:42:46Z</time>
      </trkpt>
      <trkpt lat="48.84197" lon="2.32021">
        <ele>57.599998474121</ele>
        <time>2016-01-18T19:42:49Z</time>
      </trkpt>
      <trkpt lat="48.84198" lon="2.32026">
        <ele>57.20000076294</ele>
        <time>2016-01-18T19:42:50Z</time>
      </trkpt>
      <trkpt lat="48.84195" lon="2.32057">
        <ele>53.20000076294</ele>
        <time>2016-01-18T19:42:55Z</time>
      </trkpt>
      <trkpt lat="48.84211" lon="2.32069">
        <ele>53</ele>
        <time>2016-01-18T19:43:02Z</time>
      </trkpt>
      <trkpt lat="48.84229" lon="2.32082">
        <ele>52.79999923706</ele>
        <time>2016-01-18T19:43:11Z</time>
      </trkpt>
      <trkpt lat="48.84239" lon="2.32108">
        <ele>53.20000076294</ele>
        <time>2016-01-18T19:43:19Z</time>
      </trkpt>
      <trkpt lat="48.84259" lon="2.32108">
        <ele>54.599998474121</ele>
        <time>2016-01-18T19:43:27Z</time>
      </trkpt>
      <trkpt lat="48.84278" lon="2.32114">
        <ele>55.79999923706</ele>
        <time>2016-01-18T19:43:34Z</time>
      </trkpt>
      <trkpt lat="48.84279" lon="2.32124">
        <ele>55.599998474121</ele>
        <time>2016-01-18T19:43:36Z</time>
      </trkpt>
      <trkpt lat="48.84285" lon="2.32095">
        <ele>56.20000076294</ele>
        <time>2016-01-18T19:43:42Z</time>
      </trkpt>
      <trkpt lat="48.84291" lon="2.32058">
        <ele>55.79999923706</ele>
        <time>2016-01-18T19:43:47Z</time>
      </trkpt>
      <trkpt lat="48.84296" lon="2.32026">
        <ele>55.400001525879</ele>
        <time>2016-01-18T19:43:50Z</time>
      </trkpt>
      <trkpt lat="48.84302" lon="2.31991">
        <ele>55.599998474121</ele>
        <time>2016-01-18T19:43:52Z</time>
      </trkpt>
      <trkpt lat="48.84304" lon="2.31958">
        <ele>56.79999923706</ele>
        <time>2016-01-18T19:43:54Z</time>
      </trkpt>
      <trkpt lat="48.84303" lon="2.31929">
        <ele>56.79999923706</ele>
        <time>2016-01-18T19:43:56Z</time>
      </trkpt>
      <trkpt lat="48.8431" lon="2.3189">
        <ele>56</ele>
        <time>2016-01-18T19:43:58Z</time>
      </trkpt>
      <trkpt lat="48.84307" lon="2.31862">
        <ele>56.599998474121</ele>
        <time>2016-01-18T19:44:01Z</time>
      </trkpt>
      <trkpt lat="48.84303" lon="2.31843">
        <ele>56.79999923706</ele>
        <time>2016-01-18T19:44:03Z</time>
      </trkpt>
      <trkpt lat="48.84298" lon="2.31814">
        <ele>57.599998474121</ele>
        <time>2016-01-18T19:44:07Z</time>
      </trkpt>
      <trkpt lat="48.84296" lon="2.3179">
        <ele>58.20000076294</ele>
        <time>2016-01-18T19:44:12Z</time>
      </trkpt>
      <trkpt lat="48.8429" lon="2.31774">
        <ele>59</ele>
        <time>2016-01-18T19:44:18Z</time>
      </trkpt>
      <trkpt lat="48.84292" lon="2.3177">
        <ele>59</ele>
        <time>2016-01-18T19:44:19Z</time>
      </trkpt>
      <trkpt lat="48.84298" lon="2.31743">
        <ele>58.400001525879</ele>
        <time>2016-01-18T19:44:24Z</time>
      </trkpt>
      <trkpt lat="48.84301" lon="2.31726">
        <ele>56.79999923706</ele>
        <time>2016-01-18T19:44:27Z</time>
      </trkpt>
      <trkpt lat="48.84303" lon="2.3172">
        <ele>56.20000076294</ele>
        <time>2016-01-18T19:44:28Z</time>
      </trkpt>
      <trkpt lat="48.84308" lon="2.31707">
        <ele>54.599998474121</ele>
        <time>2016-01-18T19:44:32Z</time>
      </trkpt>
      <trkpt lat="48.84312" lon="2.31698">
        <ele>54</ele>
        <time>2016-01-18T19:44:34Z</time>
      </trkpt>
      <trkpt lat="48.84309" lon="2.31688">
        <ele>53.79999923706</ele>
        <time>2016-01-18T19:44:38Z</time>
      </trkpt>
      <trkpt lat="48.84307" lon="2.3168">
        <ele>53.79999923706</ele>
        <time>2016-01-18T19:44:41Z</time>
      </trkpt>
      <trkpt lat="48.84302" lon="2.31654">
        <ele>53.599998474121</ele>
        <time>2016-01-18T19:44:51Z</time>
      </trkpt>
      <trkpt lat="48.84291" lon="2.31631">
        <ele>53.400001525879</ele>
        <time>2016-01-18T19:44:59Z</time>
      </trkpt>
      <trkpt lat="48.84272" lon="2.31615">
        <ele>53.400001525879</ele>
        <time>2016-01-18T19:45:05Z</time>
      </trkpt>
      <trkpt lat="48.84254" lon="2.31607">
        <ele>54.79999923706</ele>
        <time>2016-01-18T19:45:11Z</time>
      </trkpt>
      <trkpt lat="48.84252" lon="2.31599">
        <ele>55</ele>
        <time>2016-01-18T19:45:16Z</time>
      </trkpt>
      <trkpt lat="48.84273" lon="2.31583">
        <ele>53</ele>
        <time>2016-01-18T19:45:21Z</time>
      </trkpt>
      <trkpt lat="48.84294" lon="2.31571">
        <ele>53.599998474121</ele>
        <time>2016-01-18T19:45:25Z</time>
      </trkpt>
      <trkpt lat="48.84311" lon="2.31558">
        <ele>54.20000076294</ele>
        <time>2016-01-18T19:45:29Z</time>
      </trkpt>
      <trkpt lat="48.84329" lon="2.31547">
        <ele>54.79999923706</ele>
        <time>2016-01-18T19:45:33Z</time>
      </trkpt>
      <trkpt lat="48.84345" lon="2.31545">
        <ele>54.599998474121</ele>
        <time>2016-01-18T19:45:39Z</time>
      </trkpt>
      <trkpt lat="48.84353" lon="2.31541">
        <ele>54.599998474121</ele>
        <time>2016-01-18T19:45:45Z</time>
      </trkpt>
      <trkpt lat="48.8436" lon="2.31511">
        <ele>54.400001525879</ele>
        <time>2016-01-18T19:45:51Z</time>
      </trkpt>
      <trkpt lat="48.84358" lon="2.31481">
        <ele>54.400001525879</ele>
        <time>2016-01-18T19:45:58Z</time>
      </trkpt>
      <trkpt lat="48.84353" lon="2.31454">
        <ele>54</ele>
        <time>2016-01-18T19:46:04Z</time>
      </trkpt>
      <trkpt lat="48.84349" lon="2.31427">
        <ele>53.599998474121</ele>
        <time>2016-01-18T19:46:09Z</time>
      </trkpt>
      <trkpt lat="48.84346" lon="2.31395">
        <ele>52.599998474121</ele>
        <time>2016-01-18T19:46:14Z</time>
      </trkpt>
      <trkpt lat="48.8434" lon="2.31367">
        <ele>51.79999923706</ele>
        <time>2016-01-18T19:46:19Z</time>
      </trkpt>
      <trkpt lat="48.84333" lon="2.31338">
        <ele>50.79999923706</ele>
        <time>2016-01-18T19:46:25Z</time>
      </trkpt>
      <trkpt lat="48.84325" lon="2.3131">
        <ele>50.20000076294</ele>
        <time>2016-01-18T19:46:31Z</time>
      </trkpt>
      <trkpt lat="48.84313" lon="2.31286">
        <ele>50</ele>
        <time>2016-01-18T19:46:37Z</time>
      </trkpt>
      <trkpt lat="48.84326" lon="2.31264">
        <ele>50</ele>
        <time>2016-01-18T19:46:44Z</time>
      </trkpt>
      <trkpt lat="48.84343" lon="2.31248">
        <ele>50</ele>
        <time>2016-01-18T19:46:49Z</time>
      </trkpt>
      <trkpt lat="48.8436" lon="2.31233">
        <ele>49.79999923706</ele>
        <time>2016-01-18T19:46:53Z</time>
      </trkpt>
      <trkpt lat="48.84376" lon="2.31217">
        <ele>49.599998474121</ele>
        <time>2016-01-18T19:46:57Z</time>
      </trkpt>
      <trkpt lat="48.84393" lon="2.31202">
        <ele>49.400001525879</ele>
        <time>2016-01-18T19:47:01Z</time>
      </trkpt>
      <trkpt lat="48.8441" lon="2.31186">
        <ele>48.20000076294</ele>
        <time>2016-01-18T19:47:05Z</time>
      </trkpt>
      <trkpt lat="48.84428" lon="2.31169">
        <ele>46.599998474121</ele>
        <time>2016-01-18T19:47:09Z</time>
      </trkpt>
      <trkpt lat="48.84444" lon="2.31154">
        <ele>45.599998474121</ele>
        <time>2016-01-18T19:47:13Z</time>
      </trkpt>
      <trkpt lat="48.84462" lon="2.31143">
        <ele>44.400001525879</ele>
        <time>2016-01-18T19:47:17Z</time>
      </trkpt>
      <trkpt lat="48.8448" lon="2.31133">
        <ele>43.400001525879</ele>
        <time>2016-01-18T19:47:21Z</time>
      </trkpt>
      <trkpt lat="48.84497" lon="2.31122">
        <ele>43</ele>
        <time>2016-01-18T19:47:26Z</time>
      </trkpt>
      <trkpt lat="48.84509" lon="2.31114">
        <ele>43.20000076294</ele>
        <time>2016-01-18T19:47:32Z</time>
      </trkpt>
      <trkpt lat="48.84512" lon="2.31115">
        <ele>43.20000076294</ele>
        <time>2016-01-18T19:47:36Z</time>
      </trkpt>
      <trkpt lat="48.84529" lon="2.31099">
        <ele>43.599998474121</ele>
        <time>2016-01-18T19:47:46Z</time>
      </trkpt>
      <trkpt lat="48.8454" lon="2.31077">
        <ele>44.20000076294</ele>
        <time>2016-01-18T19:47:54Z</time>
      </trkpt>
      <trkpt lat="48.84549" lon="2.3105">
        <ele>44.400001525879</ele>
        <time>2016-01-18T19:48:00Z</time>
      </trkpt>
      <trkpt lat="48.84556" lon="2.31025">
        <ele>44.400001525879</ele>
        <time>2016-01-18T19:48:05Z</time>
      </trkpt>
      <trkpt lat="48.84566" lon="2.30998">
        <ele>45</ele>
        <time>2016-01-18T19:48:10Z</time>
      </trkpt>
      <trkpt lat="48.84575" lon="2.30968">
        <ele>45.20000076294</ele>
        <time>2016-01-18T19:48:15Z</time>
      </trkpt>
      <trkpt lat="48.84583" lon="2.30938">
        <ele>44.599998474121</ele>
        <time>2016-01-18T19:48:21Z</time>
      </trkpt>
      <trkpt lat="48.84593" lon="2.30914">
        <ele>44</ele>
        <time>2016-01-18T19:48:26Z</time>
      </trkpt>
      <trkpt lat="48.84602" lon="2.3089">
        <ele>43.20000076294</ele>
        <time>2016-01-18T19:48:31Z</time>
      </trkpt>
      <trkpt lat="48.84608" lon="2.30862">
        <ele>42.20000076294</ele>
        <time>2016-01-18T19:48:38Z</time>
      </trkpt>
      <trkpt lat="48.84609" lon="2.30857">
        <ele>42.20000076294</ele>
        <time>2016-01-18T19:48:41Z</time>
      </trkpt>
      <trkpt lat="48.84627" lon="2.30858">
        <ele>43</ele>
        <time>2016-01-18T19:48:50Z</time>
      </trkpt>
      <trkpt lat="48.84642" lon="2.30842">
        <ele>43.79999923706</ele>
        <time>2016-01-18T19:48:57Z</time>
      </trkpt>
      <trkpt lat="48.84645" lon="2.30842">
        <ele>44</ele>
        <time>2016-01-18T19:48:59Z</time>
      </trkpt>
      <trkpt lat="48.8465" lon="2.30855">
        <ele>44.400001525879</ele>
        <time>2016-01-18T19:49:03Z</time>
      </trkpt>
      <trkpt lat="48.84651" lon="2.3086">
        <ele>44.599998474121</ele>
        <time>2016-01-18T19:49:05Z</time>
      </trkpt>
      <trkpt lat="48.84651" lon="2.30888">
        <ele>45.20000076294</ele>
        <time>2016-01-18T19:49:12Z</time>
      </trkpt>
      <trkpt lat="48.84658" lon="2.30915">
        <ele>46.599998474121</ele>
        <time>2016-01-18T19:49:17Z</time>
      </trkpt>
      <trkpt lat="48.84669" lon="2.30942">
        <ele>47.79999923706</ele>
        <time>2016-01-18T19:49:22Z</time>
      </trkpt>
      <trkpt lat="48.84677" lon="2.3097">
        <ele>48.79999923706</ele>
        <time>2016-01-18T19:49:28Z</time>
      </trkpt>
      <trkpt lat="48.84681" lon="2.30982">
        <ele>49.20000076294</ele>
        <time>2016-01-18T19:49:34Z</time>
      </trkpt>
      <trkpt lat="48.84697" lon="2.30977">
        <ele>49.400001525879</ele>
        <time>2016-01-18T19:49:59Z</time>
      </trkpt>
      <trkpt lat="48.84707" lon="2.30971">
        <ele>49.20000076294</ele>
        <time>2016-01-18T19:50:02Z</time>
      </trkpt>
      <trkpt lat="48.84722" lon="2.30965">
        <ele>48.79999923706</ele>
        <time>2016-01-18T19:50:07Z</time>
      </trkpt>
      <trkpt lat="48.84741" lon="2.30964">
        <ele>48.599998474121</ele>
        <time>2016-01-18T19:50:18Z</time>
      </trkpt>
      <trkpt lat="48.84751" lon="2.30939">
        <ele>49.20000076294</ele>
        <time>2016-01-18T19:50:27Z</time>
      </trkpt>
      <trkpt lat="48.84749" lon="2.3091">
        <ele>49.400001525879</ele>
        <time>2016-01-18T19:50:31Z</time>
      </trkpt>
      <trkpt lat="48.8475" lon="2.30881">
        <ele>49.20000076294</ele>
        <time>2016-01-18T19:50:35Z</time>
      </trkpt>
      <trkpt lat="48.84755" lon="2.30879">
        <ele>49.400001525879</ele>
        <time>2016-01-18T19:50:37Z</time>
      </trkpt>
      <trkpt lat="48.8477" lon="2.30881">
        <ele>50</ele>
        <time>2016-01-18T19:50:42Z</time>
      </trkpt>
      <trkpt lat="48.84788" lon="2.30892">
        <ele>49.599998474121</ele>
        <time>2016-01-18T19:50:46Z</time>
      </trkpt>
      <trkpt lat="48.84807" lon="2.30894">
        <ele>49.20000076294</ele>
        <time>2016-01-18T19:50:50Z</time>
      </trkpt>
      <trkpt lat="48.84831" lon="2.30891">
        <ele>48.599998474121</ele>
        <time>2016-01-18T19:50:54Z</time>
      </trkpt>
      <trkpt lat="48.84851" lon="2.30881">
        <ele>48.79999923706</ele>
        <time>2016-01-18T19:50:58Z</time>
      </trkpt>
      <trkpt lat="48.84854" lon="2.30869">
        <ele>49</ele>
        <time>2016-01-18T19:51:00Z</time>
      </trkpt>
      <trkpt lat="48.84848" lon="2.30842">
        <ele>49.79999923706</ele>
        <time>2016-01-18T19:51:05Z</time>
      </trkpt>
      <trkpt lat="48.84846" lon="2.30838">
        <ele>49.79999923706</ele>
        <time>2016-01-18T19:51:06Z</time>
      </trkpt>
      <trkpt lat="48.84839" lon="2.30824">
        <ele>50</ele>
        <time>2016-01-18T19:51:09Z</time>
      </trkpt>
      <trkpt lat="48.84827" lon="2.30803">
        <ele>50.400001525879</ele>
        <time>2016-01-18T19:51:13Z</time>
      </trkpt>
      <trkpt lat="48.84819" lon="2.30787">
        <ele>50.400001525879</ele>
        <time>2016-01-18T19:51:16Z</time>
      </trkpt>
      <trkpt lat="48.8481" lon="2.3077">
        <ele>50.599998474121</ele>
        <time>2016-01-18T19:51:20Z</time>
      </trkpt>
      <trkpt lat="48.84815" lon="2.30745">
        <ele>50.400001525879</ele>
        <time>2016-01-18T19:51:24Z</time>
      </trkpt>
      <trkpt lat="48.84822" lon="2.30728">
        <ele>50.400001525879</ele>
        <time>2016-01-18T19:51:27Z</time>
      </trkpt>
      <trkpt lat="48.84833" lon="2.30709">
        <ele>49.599998474121</ele>
        <time>2016-01-18T19:51:31Z</time>
      </trkpt>
      <trkpt lat="48.84844" lon="2.30696">
        <ele>48.20000076294</ele>
        <time>2016-01-18T19:51:35Z</time>
      </trkpt>
      <trkpt lat="48.84838" lon="2.30679">
        <ele>47.79999923706</ele>
        <time>2016-01-18T19:51:41Z</time>
      </trkpt>
      <trkpt lat="48.84836" lon="2.30676">
        <ele>47.79999923706</ele>
        <time>2016-01-18T19:51:42Z</time>
      </trkpt>
      <trkpt lat="48.84821" lon="2.30657">
        <ele>47.79999923706</ele>
        <time>2016-01-18T19:51:48Z</time>
      </trkpt>
      <trkpt lat="48.84803" lon="2.3064">
        <ele>48</ele>
        <time>2016-01-18T19:51:54Z</time>
      </trkpt>
      <trkpt lat="48.84802" lon="2.30636">
        <ele>48</ele>
        <time>2016-01-18T19:51:55Z</time>
      </trkpt>
      <trkpt lat="48.84802" lon="2.30632">
        <ele>47.79999923706</ele>
        <time>2016-01-18T19:51:57Z</time>
      </trkpt>
      <trkpt lat="48.84809" lon="2.30612">
        <ele>46.400001525879</ele>
        <time>2016-01-18T19:52:23Z</time>
      </trkpt>
      <trkpt lat="48.84818" lon="2.30587">
        <ele>45</ele>
        <time>2016-01-18T19:52:29Z</time>
      </trkpt>
      <trkpt lat="48.84813" lon="2.30559">
        <ele>44.79999923706</ele>
        <time>2016-01-18T19:52:35Z</time>
      </trkpt>
      <trkpt lat="48.84804" lon="2.30535">
        <ele>45</ele>
        <time>2016-01-18T19:52:40Z</time>
      </trkpt>
      <trkpt lat="48.84795" lon="2.30508">
        <ele>45.400001525879</ele>
        <time>2016-01-18T19:52:46Z</time>
      </trkpt>
      <trkpt lat="48.84787" lon="2.30483">
        <ele>45.599998474121</ele>
        <time>2016-01-18T19:52:53Z</time>
      </trkpt>
      <trkpt lat="48.84803" lon="2.30459">
        <ele>45.20000076294</ele>
        <time>2016-01-18T19:53:00Z</time>
      </trkpt>
      <trkpt lat="48.84821" lon="2.30442">
        <ele>45</ele>
        <time>2016-01-18T19:53:04Z</time>
      </trkpt>
      <trkpt lat="48.84837" lon="2.30427">
        <ele>45</ele>
        <time>2016-01-18T19:53:08Z</time>
      </trkpt>
      <trkpt lat="48.84859" lon="2.30418">
        <ele>44.599998474121</ele>
        <time>2016-01-18T19:53:13Z</time>
      </trkpt>
      <trkpt lat="48.84865" lon="2.30422">
        <ele>44</ele>
        <time>2016-01-18T19:53:15Z</time>
      </trkpt>
      <trkpt lat="48.84877" lon="2.30444">
        <ele>42.599998474121</ele>
        <time>2016-01-18T19:53:24Z</time>
      </trkpt>
      <trkpt lat="48.8488" lon="2.30446">
        <ele>42.400001525879</ele>
        <time>2016-01-18T19:53:26Z</time>
      </trkpt>
      <trkpt lat="48.84889" lon="2.3044">
        <ele>41.400001525879</ele>
        <time>2016-01-18T19:53:32Z</time>
      </trkpt>
      <trkpt lat="48.84903" lon="2.3042">
        <ele>40.400001525879</ele>
        <time>2016-01-18T19:53:38Z</time>
      </trkpt>
      <trkpt lat="48.84915" lon="2.30397">
        <ele>39</ele>
        <time>2016-01-18T19:53:44Z</time>
      </trkpt>
      <trkpt lat="48.84924" lon="2.30384">
        <ele>39.400001525879</ele>
        <time>2016-01-18T19:53:50Z</time>
      </trkpt>
      <trkpt lat="48.84942" lon="2.3038">
        <ele>39.79999923706</ele>
        <time>2016-01-18T19:53:56Z</time>
      </trkpt>
      <trkpt lat="48.84946" lon="2.30373">
        <ele>40.20000076294</ele>
        <time>2016-01-18T19:53:58Z</time>
      </trkpt>
      <trkpt lat="48.84959" lon="2.30355">
        <ele>41.400001525879</ele>
        <time>2016-01-18T19:54:04Z</time>
      </trkpt>
      <trkpt lat="48.84974" lon="2.30334">
        <ele>41.599998474121</ele>
        <time>2016-01-18T19:54:10Z</time>
      </trkpt>
      <trkpt lat="48.84989" lon="2.30309">
        <ele>41</ele>
        <time>2016-01-18T19:54:15Z</time>
      </trkpt>
      <trkpt lat="48.84996" lon="2.30295">
        <ele>40.79999923706</ele>
        <time>2016-01-18T19:54:17Z</time>
      </trkpt>
      <trkpt lat="48.85007" lon="2.30272">
        <ele>41</ele>
        <time>2016-01-18T19:54:20Z</time>
      </trkpt>
      <trkpt lat="48.8502" lon="2.30247">
        <ele>41</ele>
        <time>2016-01-18T19:54:23Z</time>
      </trkpt>
      <trkpt lat="48.85034" lon="2.30221">
        <ele>42</ele>
        <time>2016-01-18T19:54:26Z</time>
      </trkpt>
      <trkpt lat="48.85038" lon="2.30212">
        <ele>42.400001525879</ele>
        <time>2016-01-18T19:54:27Z</time>
      </trkpt>
      <trkpt lat="48.85056" lon="2.30188">
        <ele>43.400001525879</ele>
        <time>2016-01-18T19:54:30Z</time>
      </trkpt>
      <trkpt lat="48.85074" lon="2.30163">
        <ele>44.400001525879</ele>
        <time>2016-01-18T19:54:33Z</time>
      </trkpt>
      <trkpt lat="48.85083" lon="2.30149">
        <ele>45.20000076294</ele>
        <time>2016-01-18T19:54:35Z</time>
      </trkpt>
      <trkpt lat="48.85099" lon="2.30129">
        <ele>44.79999923706</ele>
        <time>2016-01-18T19:54:38Z</time>
      </trkpt>
      <trkpt lat="48.85114" lon="2.30103">
        <ele>44.400001525879</ele>
        <time>2016-01-18T19:54:42Z</time>
      </trkpt>
      <trkpt lat="48.8512" lon="2.30093">
        <ele>44.400001525879</ele>
        <time>2016-01-18T19:54:44Z</time>
      </trkpt>
      <trkpt lat="48.85128" lon="2.30067">
        <ele>45.79999923706</ele>
        <time>2016-01-18T19:54:50Z</time>
      </trkpt>
      <trkpt lat="48.8513" lon="2.30063">
        <ele>45.79999923706</ele>
        <time>2016-01-18T19:54:51Z</time>
      </trkpt>
      <trkpt lat="48.85143" lon="2.30044">
        <ele>46.79999923706</ele>
        <time>2016-01-18T19:54:56Z</time>
      </trkpt>
      <trkpt lat="48.85148" lon="2.30034">
        <ele>47.20000076294</ele>
        <time>2016-01-18T19:54:58Z</time>
      </trkpt>
      <trkpt lat="48.85161" lon="2.30012">
        <ele>48.599998474121</ele>
        <time>2016-01-18T19:55:04Z</time>
      </trkpt>
      <trkpt lat="48.85175" lon="2.29985">
        <ele>49.599998474121</ele>
        <time>2016-01-18T19:55:09Z</time>
      </trkpt>
      <trkpt lat="48.85188" lon="2.29962">
        <ele>49.20000076294</ele>
        <time>2016-01-18T19:55:13Z</time>
      </trkpt>
      <trkpt lat="48.85203" lon="2.29939">
        <ele>48</ele>
        <time>2016-01-18T19:55:17Z</time>
      </trkpt>
      <trkpt lat="48.85222" lon="2.29922">
        <ele>48</ele>
        <time>2016-01-18T19:55:21Z</time>
      </trkpt>
      <trkpt lat="48.85232" lon="2.29913">
        <ele>48.599998474121</ele>
        <time>2016-01-18T19:55:23Z</time>
      </trkpt>
      <trkpt lat="48.85245" lon="2.29892">
        <ele>48</ele>
        <time>2016-01-18T19:55:27Z</time>
      </trkpt>
      <trkpt lat="48.85252" lon="2.29882">
        <ele>47.20000076294</ele>
        <time>2016-01-18T19:55:29Z</time>
      </trkpt>
      <trkpt lat="48.85266" lon="2.29861">
        <ele>45.400001525879</ele>
        <time>2016-01-18T19:55:33Z</time>
      </trkpt>
      <trkpt lat="48.85277" lon="2.29836">
        <ele>43.20000076294</ele>
        <time>2016-01-18T19:55:37Z</time>
      </trkpt>
      <trkpt lat="48.8529" lon="2.29811">
        <ele>42.599998474121</ele>
        <time>2016-01-18T19:55:42Z</time>
      </trkpt>
      <trkpt lat="48.85296" lon="2.29803">
        <ele>42.400001525879</ele>
        <time>2016-01-18T19:55:44Z</time>
      </trkpt>
      <trkpt lat="48.85306" lon="2.29799">
        <ele>42.79999923706</ele>
        <time>2016-01-18T19:55:47Z</time>
      </trkpt>
      <trkpt lat="48.85317" lon="2.29793">
        <ele>43</ele>
        <time>2016-01-18T19:55:52Z</time>
      </trkpt>
      <trkpt lat="48.85318" lon="2.29787">
        <ele>43</ele>
        <time>2016-01-18T19:56:05Z</time>
      </trkpt>
      <trkpt lat="48.85321" lon="2.29786">
        <ele>43.400001525879</ele>
        <time>2016-01-18T19:56:20Z</time>
      </trkpt>
      <trkpt lat="48.85319" lon="2.29774">
        <ele>43.20000076294</ele>
        <time>2016-01-18T19:56:54Z</time>
      </trkpt>
      <trkpt lat="48.8532" lon="2.29773">
        <ele>43.20000076294</ele>
        <time>2016-01-18T19:56:55Z</time>
      </trkpt>
      <trkpt lat="48.85323" lon="2.29777">
        <ele>43.79999923706</ele>
        <time>2016-01-18T19:57:02Z</time>
      </trkpt>
      <trkpt lat="48.85338" lon="2.29762">
        <ele>45.599998474121</ele>
        <time>2016-01-18T19:57:18Z</time>
      </trkpt>
      <trkpt lat="48.85351" lon="2.29739">
        <ele>47.20000076294</ele>
        <time>2016-01-18T19:57:24Z</time>
      </trkpt>
      <trkpt lat="48.85365" lon="2.2972">
        <ele>45.599998474121</ele>
        <time>2016-01-18T19:57:30Z</time>
      </trkpt>
      <trkpt lat="48.85378" lon="2.29701">
        <ele>44</ele>
        <time>2016-01-18T19:57:37Z</time>
      </trkpt>
      <trkpt lat="48.85389" lon="2.29678">
        <ele>43</ele>
        <time>2016-01-18T19:57:48Z</time>
      </trkpt>
      <trkpt lat="48.854" lon="2.29651">
        <ele>42.79999923706</ele>
        <time>2016-01-18T19:57:56Z</time>
      </trkpt>
      <trkpt lat="48.85411" lon="2.29625">
        <ele>42.79999923706</ele>
        <time>2016-01-18T19:58:03Z</time>
      </trkpt>
      <trkpt lat="48.85428" lon="2.29607">
        <ele>43</ele>
        <time>2016-01-18T19:58:09Z</time>
      </trkpt>
      <trkpt lat="48.85444" lon="2.29582">
        <ele>42.79999923706</ele>
        <time>2016-01-18T19:58:13Z</time>
      </trkpt>
      <trkpt lat="48.8546" lon="2.29561">
        <ele>42.599998474121</ele>
        <time>2016-01-18T19:58:18Z</time>
      </trkpt>
      <trkpt lat="48.85473" lon="2.2954">
        <ele>42.20000076294</ele>
        <time>2016-01-18T19:58:23Z</time>
      </trkpt>
      <trkpt lat="48.85483" lon="2.29516">
        <ele>43.599998474121</ele>
        <time>2016-01-18T19:58:31Z</time>
      </trkpt>
      <trkpt lat="48.85491" lon="2.29489">
        <ele>45</ele>
        <time>2016-01-18T19:58:41Z</time>
      </trkpt>
      <trkpt lat="48.85505" lon="2.2947">
        <ele>44.79999923706</ele>
        <time>2016-01-18T19:58:46Z</time>
      </trkpt>
      <trkpt lat="48.85518" lon="2.29448">
        <ele>44.20000076294</ele>
        <time>2016-01-18T19:58:51Z</time>
      </trkpt>
      <trkpt lat="48.8553" lon="2.29421">
        <ele>43.20000076294</ele>
        <time>2016-01-18T19:58:56Z</time>
      </trkpt>
      <trkpt lat="48.85543" lon="2.29397">
        <ele>43.79999923706</ele>
        <time>2016-01-18T19:59:01Z</time>
      </trkpt>
      <trkpt lat="48.85558" lon="2.29378">
        <ele>43.79999923706</ele>
        <time>2016-01-18T19:59:05Z</time>
      </trkpt>
      <trkpt lat="48.85578" lon="2.29358">
        <ele>44</ele>
        <time>2016-01-18T19:59:10Z</time>
      </trkpt>
      <trkpt lat="48.8559" lon="2.29335">
        <ele>43.400001525879</ele>
        <time>2016-01-18T19:59:14Z</time>
      </trkpt>
      <trkpt lat="48.856" lon="2.29328">
        <ele>43.599998474121</ele>
        <time>2016-01-18T19:59:16Z</time>
      </trkpt>
      <trkpt lat="48.85616" lon="2.2931">
        <ele>43</ele>
        <time>2016-01-18T19:59:20Z</time>
      </trkpt>
      <trkpt lat="48.85629" lon="2.29293">
        <ele>42.400001525879</ele>
        <time>2016-01-18T19:59:24Z</time>
      </trkpt>
      <trkpt lat="48.85638" lon="2.29277">
        <ele>41.599998474121</ele>
        <time>2016-01-18T19:59:27Z</time>
      </trkpt>
      <trkpt lat="48.85652" lon="2.29251">
        <ele>43.400001525879</ele>
        <time>2016-01-18T19:59:32Z</time>
      </trkpt>
      <trkpt lat="48.85656" lon="2.29242">
        <ele>43.79999923706</ele>
        <time>2016-01-18T19:59:34Z</time>
      </trkpt>
      <trkpt lat="48.85669" lon="2.2922">
        <ele>45</ele>
        <time>2016-01-18T19:59:39Z</time>
      </trkpt>
      <trkpt lat="48.85682" lon="2.29202">
        <ele>45</ele>
        <time>2016-01-18T19:59:43Z</time>
      </trkpt>
      <trkpt lat="48.85695" lon="2.29178">
        <ele>44.400001525879</ele>
        <time>2016-01-18T19:59:48Z</time>
      </trkpt>
      <trkpt lat="48.85705" lon="2.29165">
        <ele>43.599998474121</ele>
        <time>2016-01-18T19:59:51Z</time>
      </trkpt>
      <trkpt lat="48.85717" lon="2.29145">
        <ele>42</ele>
        <time>2016-01-18T19:59:55Z</time>
      </trkpt>
      <trkpt lat="48.85721" lon="2.29137">
        <ele>41.400001525879</ele>
        <time>2016-01-18T19:59:57Z</time>
      </trkpt>
      <trkpt lat="48.85737" lon="2.29119">
        <ele>39.400001525879</ele>
        <time>2016-01-18T20:00:04Z</time>
      </trkpt>
      <trkpt lat="48.85739" lon="2.29118">
        <ele>39.400001525879</ele>
        <time>2016-01-18T20:00:05Z</time>
      </trkpt>
      <trkpt lat="48.85743" lon="2.29119">
        <ele>39.20000076294</ele>
        <time>2016-01-18T20:00:09Z</time>
      </trkpt>
      <trkpt lat="48.85759" lon="2.29138">
        <ele>40.20000076294</ele>
        <time>2016-01-18T20:00:28Z</time>
      </trkpt>
      <trkpt lat="48.85774" lon="2.2916">
        <ele>41.599998474121</ele>
        <time>2016-01-18T20:00:33Z</time>
      </trkpt>
      <trkpt lat="48.85788" lon="2.29181">
        <ele>41.20000076294</ele>
        <time>2016-01-18T20:00:37Z</time>
      </trkpt>
      <trkpt lat="48.85804" lon="2.29201">
        <ele>40.599998474121</ele>
        <time>2016-01-18T20:00:41Z</time>
      </trkpt>
      <trkpt lat="48.85818" lon="2.29222">
        <ele>40.20000076294</ele>
        <time>2016-01-18T20:00:45Z</time>
      </trkpt>
      <trkpt lat="48.85833" lon="2.29245">
        <ele>39.599998474121</ele>
        <time>2016-01-18T20:00:49Z</time>
      </trkpt>
      <trkpt lat="48.85844" lon="2.29261">
        <ele>39</ele>
        <time>2016-01-18T20:00:52Z</time>
      </trkpt>
      <trkpt lat="48.8586" lon="2.29279">
        <ele>38.400001525879</ele>
        <time>2016-01-18T20:00:56Z</time>
      </trkpt>
      <trkpt lat="48.85863" lon="2.29283">
        <ele>38.400001525879</ele>
        <time>2016-01-18T20:00:57Z</time>
      </trkpt>
      <trkpt lat="48.8587" lon="2.29292">
        <ele>38.599998474121</ele>
        <time>2016-01-18T20:00:59Z</time>
      </trkpt>
      <trkpt lat="48.85884" lon="2.29314">
        <ele>38.79999923706</ele>
        <time>2016-01-18T20:01:04Z</time>
      </trkpt>
      <trkpt lat="48.85891" lon="2.29323">
        <ele>39</ele>
        <time>2016-01-18T20:01:07Z</time>
      </trkpt>
      <trkpt lat="48.85907" lon="2.29335">
        <ele>39.20000076294</ele>
        <time>2016-01-18T20:01:13Z</time>
      </trkpt>
      <trkpt lat="48.85923" lon="2.29324">
        <ele>39</ele>
        <time>2016-01-18T20:01:18Z</time>
      </trkpt>
      <trkpt lat="48.85933" lon="2.29311">
        <ele>37.79999923706</ele>
        <time>2016-01-18T20:01:21Z</time>
      </trkpt>
      <trkpt lat="48.85945" lon="2.29291">
        <ele>35.20000076294</ele>
        <time>2016-01-18T20:01:25Z</time>
      </trkpt>
      <trkpt lat="48.85959" lon="2.29268">
        <ele>31.799999237061</ele>
        <time>2016-01-18T20:01:30Z</time>
      </trkpt>
      <trkpt lat="48.85971" lon="2.29249">
        <ele>29.39999961853</ele>
        <time>2016-01-18T20:01:34Z</time>
      </trkpt>
      <trkpt lat="48.85986" lon="2.29226">
        <ele>27.39999961853</ele>
        <time>2016-01-18T20:01:39Z</time>
      </trkpt>
      <trkpt lat="48.86" lon="2.29203">
        <ele>26.799999237061</ele>
        <time>2016-01-18T20:01:44Z</time>
      </trkpt>
      <trkpt lat="48.86014" lon="2.29181">
        <ele>27.39999961853</ele>
        <time>2016-01-18T20:01:49Z</time>
      </trkpt>
      <trkpt lat="48.86026" lon="2.29156">
        <ele>28.60000038147</ele>
        <time>2016-01-18T20:01:55Z</time>
      </trkpt>
      <trkpt lat="48.86028" lon="2.29144">
        <ele>29.39999961853</ele>
        <time>2016-01-18T20:01:58Z</time>
      </trkpt>
      <trkpt lat="48.86034" lon="2.29132">
        <ele>30.39999961853</ele>
        <time>2016-01-18T20:02:04Z</time>
      </trkpt>
      <trkpt lat="48.86037" lon="2.29108">
        <ele>32</ele>
        <time>2016-01-18T20:02:34Z</time>
      </trkpt>
      <trkpt lat="48.86033" lon="2.29079">
        <ele>32.79999923706</ele>
        <time>2016-01-18T20:02:40Z</time>
      </trkpt>
      <trkpt lat="48.8603" lon="2.29051">
        <ele>34.599998474121</ele>
        <time>2016-01-18T20:02:45Z</time>
      </trkpt>
      <trkpt lat="48.86028" lon="2.29021">
        <ele>36.400001525879</ele>
        <time>2016-01-18T20:02:51Z</time>
      </trkpt>
      <trkpt lat="48.8602" lon="2.28993">
        <ele>38.20000076294</ele>
        <time>2016-01-18T20:02:59Z</time>
      </trkpt>
      <trkpt lat="48.86011" lon="2.28966">
        <ele>40.20000076294</ele>
        <time>2016-01-18T20:03:07Z</time>
      </trkpt>
      <trkpt lat="48.86005" lon="2.28939">
        <ele>42.400001525879</ele>
        <time>2016-01-18T20:03:14Z</time>
      </trkpt>
      <trkpt lat="48.85999" lon="2.28912">
        <ele>44.599998474121</ele>
        <time>2016-01-18T20:03:20Z</time>
      </trkpt>
      <trkpt lat="48.85993" lon="2.28881">
        <ele>47.599998474121</ele>
        <time>2016-01-18T20:03:26Z</time>
      </trkpt>
      <trkpt lat="48.85988" lon="2.28855">
        <ele>49.599998474121</ele>
        <time>2016-01-18T20:03:31Z</time>
      </trkpt>
      <trkpt lat="48.85983" lon="2.28829">
        <ele>51.599998474121</ele>
        <time>2016-01-18T20:03:36Z</time>
      </trkpt>
      <trkpt lat="48.85982" lon="2.288">
        <ele>53.79999923706</ele>
        <time>2016-01-18T20:03:43Z</time>
      </trkpt>
      <trkpt lat="48.85979" lon="2.2878">
        <ele>55</ele>
        <time>2016-01-18T20:03:52Z</time>
      </trkpt>
      <trkpt lat="48.85975" lon="2.28776">
        <ele>55.20000076294</ele>
        <time>2016-01-18T20:05:11Z</time>
      </trkpt>
      <trkpt lat="48.85992" lon="2.28767">
        <ele>56.400001525879</ele>
        <time>2016-01-18T20:05:32Z</time>
      </trkpt>
      <trkpt lat="48.86007" lon="2.28753">
        <ele>58</ele>
        <time>2016-01-18T20:06:04Z</time>
      </trkpt>
      <trkpt lat="48.86014" lon="2.28726">
        <ele>61</ele>
        <time>2016-01-18T20:06:20Z</time>
      </trkpt>
      <trkpt lat="48.86021" lon="2.287">
        <ele>64.400001525879</ele>
        <time>2016-01-18T20:06:36Z</time>
      </trkpt>
      <trkpt lat="48.86028" lon="2.28675">
        <ele>67.800003051758</ele>
        <time>2016-01-18T20:06:52Z</time>
      </trkpt>
      <trkpt lat="48.86044" lon="2.2866">
        <ele>69.599998474121</ele>
        <time>2016-01-18T20:07:24Z</time>
      </trkpt>
      <trkpt lat="48.86059" lon="2.28642">
        <ele>70.800003051758</ele>
        <time>2016-01-18T20:07:38Z</time>
      </trkpt>
      <trkpt lat="48.86056" lon="2.28623">
        <ele>71.800003051758</ele>
        <time>2016-01-18T20:07:47Z</time>
      </trkpt>
      <trkpt lat="48.86054" lon="2.2861">
        <ele>72.400001525879</ele>
        <time>2016-01-18T20:08:09Z</time>
      </trkpt>
      <trkpt lat="48.86046" lon="2.28605">
        <ele>72.400001525879</ele>
        <time>2016-01-18T20:08:22Z</time>
      </trkpt>
      <trkpt lat="48.86045" lon="2.28601">
        <ele>72.599998474121</ele>
        <time>2016-01-18T20:09:43Z</time>
      </trkpt>
      <trkpt lat="48.86056" lon="2.28603">
        <ele>73</ele>
        <time>2016-01-18T20:10:16Z</time>
      </trkpt>
      <trkpt lat="48.86074" lon="2.28613">
        <ele>73</ele>
        <time>2016-01-18T20:10:23Z</time>
      </trkpt>
      <trkpt lat="48.86093" lon="2.28615">
        <ele>73.800003051758</ele>
        <time>2016-01-18T20:10:32Z</time>
      </trkpt>
      <trkpt lat="48.86111" lon="2.28621">
        <ele>74</ele>
        <time>2016-01-18T20:10:41Z</time>
      </trkpt>
      <trkpt lat="48.86127" lon="2.28637">
        <ele>72.800003051758</ele>
        <time>2016-01-18T20:10:50Z</time>
      </trkpt>
      <trkpt lat="48.86131" lon="2.28639">
        <ele>72.800003051758</ele>
        <time>2016-01-18T20:10:53Z</time>
      </trkpt>
      <trkpt lat="48.86137" lon="2.28624">
        <ele>73.800003051758</ele>
        <time>2016-01-18T20:11:04Z</time>
      </trkpt>
      <trkpt lat="48.86126" lon="2.28599">
        <ele>75.599998474121</ele>
        <time>2016-01-18T20:11:13Z</time>
      </trkpt>
      <trkpt lat="48.86111" lon="2.28583">
        <ele>76.599998474121</ele>
        <time>2016-01-18T20:11:19Z</time>
      </trkpt>
      <trkpt lat="48.86098" lon="2.28562">
        <ele>76.599998474121</ele>
        <time>2016-01-18T20:11:26Z</time>
      </trkpt>
      <trkpt lat="48.86088" lon="2.28535">
        <ele>76.199996948242</ele>
        <time>2016-01-18T20:11:32Z</time>
      </trkpt>
      <trkpt lat="48.86074" lon="2.28516">
        <ele>75.400001525879</ele>
        <time>2016-01-18T20:11:38Z</time>
      </trkpt>
      <trkpt lat="48.86059" lon="2.28497">
        <ele>74.800003051758</ele>
        <time>2016-01-18T20:11:43Z</time>
      </trkpt>
      <trkpt lat="48.86043" lon="2.28474">
        <ele>73.400001525879</ele>
        <time>2016-01-18T20:11:48Z</time>
      </trkpt>
      <trkpt lat="48.86024" lon="2.28472">
        <ele>72.400001525879</ele>
        <time>2016-01-18T20:11:50Z</time>
      </trkpt>
      <trkpt lat="48.86001" lon="2.28467">
        <ele>72</ele>
        <time>2016-01-18T20:11:55Z</time>
      </trkpt>
      <trkpt lat="48.8598" lon="2.28465">
        <ele>71.599998474121</ele>
        <time>2016-01-18T20:12:00Z</time>
      </trkpt>
      <trkpt lat="48.85961" lon="2.28462">
        <ele>71</ele>
        <time>2016-01-18T20:12:04Z</time>
      </trkpt>
      <trkpt lat="48.85941" lon="2.28462">
        <ele>70.599998474121</ele>
        <time>2016-01-18T20:12:08Z</time>
      </trkpt>
      <trkpt lat="48.8592" lon="2.28463">
        <ele>69.800003051758</ele>
        <time>2016-01-18T20:12:13Z</time>
      </trkpt>
      <trkpt lat="48.85911" lon="2.28463">
        <ele>69.599998474121</ele>
        <time>2016-01-18T20:12:16Z</time>
      </trkpt>
      <trkpt lat="48.859" lon="2.28467">
        <ele>68.800003051758</ele>
        <time>2016-01-18T20:12:21Z</time>
      </trkpt>
      <trkpt lat="48.85892" lon="2.28473">
        <ele>67.800003051758</ele>
        <time>2016-01-18T20:12:27Z</time>
      </trkpt>
      <trkpt lat="48.85884" lon="2.28445">
        <ele>68.199996948242</ele>
        <time>2016-01-18T20:12:31Z</time>
      </trkpt>
      <trkpt lat="48.85885" lon="2.28428">
        <ele>68.199996948242</ele>
        <time>2016-01-18T20:12:34Z</time>
      </trkpt>
      <trkpt lat="48.85896" lon="2.284">
        <ele>69</ele>
        <time>2016-01-18T20:12:39Z</time>
      </trkpt>
      <trkpt lat="48.85908" lon="2.28375">
        <ele>70.199996948242</ele>
        <time>2016-01-18T20:12:43Z</time>
      </trkpt>
      <trkpt lat="48.85924" lon="2.28352">
        <ele>69.599998474121</ele>
        <time>2016-01-18T20:12:47Z</time>
      </trkpt>
      <trkpt lat="48.8594" lon="2.28329">
        <ele>69</ele>
        <time>2016-01-18T20:12:51Z</time>
      </trkpt>
      <trkpt lat="48.85954" lon="2.28304">
        <ele>70.199996948242</ele>
        <time>2016-01-18T20:12:55Z</time>
      </trkpt>
      <trkpt lat="48.85964" lon="2.2828">
        <ele>71</ele>
        <time>2016-01-18T20:12:58Z</time>
      </trkpt>
      <trkpt lat="48.85975" lon="2.28255">
        <ele>71.800003051758</ele>
        <time>2016-01-18T20:13:01Z</time>
      </trkpt>
      <trkpt lat="48.85985" lon="2.28227">
        <ele>71.800003051758</ele>
        <time>2016-01-18T20:13:04Z</time>
      </trkpt>
      <trkpt lat="48.85997" lon="2.28201">
        <ele>72.199996948242</ele>
        <time>2016-01-18T20:13:07Z</time>
      </trkpt>
      <trkpt lat="48.86013" lon="2.28177">
        <ele>73.400001525879</ele>
        <time>2016-01-18T20:13:10Z</time>
      </trkpt>
      <trkpt lat="48.86022" lon="2.28148">
        <ele>74</ele>
        <time>2016-01-18T20:13:14Z</time>
      </trkpt>
      <trkpt lat="48.86025" lon="2.28128">
        <ele>74</ele>
        <time>2016-01-18T20:13:21Z</time>
      </trkpt>
      <trkpt lat="48.86031" lon="2.28121">
        <ele>73.800003051758</ele>
        <time>2016-01-18T20:13:58Z</time>
      </trkpt>
      <trkpt lat="48.8604" lon="2.28096">
        <ele>73.800003051758</ele>
        <time>2016-01-18T20:14:21Z</time>
      </trkpt>
      <trkpt lat="48.86053" lon="2.28075">
        <ele>74.400001525879</ele>
        <time>2016-01-18T20:14:27Z</time>
      </trkpt>
      <trkpt lat="48.86067" lon="2.28053">
        <ele>74.199996948242</ele>
        <time>2016-01-18T20:14:32Z</time>
      </trkpt>
      <trkpt lat="48.86083" lon="2.28038">
        <ele>74</ele>
        <time>2016-01-18T20:14:36Z</time>
      </trkpt>
      <trkpt lat="48.86094" lon="2.28012">
        <ele>73.400001525879</ele>
        <time>2016-01-18T20:14:41Z</time>
      </trkpt>
      <trkpt lat="48.86107" lon="2.27992">
        <ele>73</ele>
        <time>2016-01-18T20:14:46Z</time>
      </trkpt>
      <trkpt lat="48.86119" lon="2.27972">
        <ele>72.400001525879</ele>
        <time>2016-01-18T20:14:51Z</time>
      </trkpt>
      <trkpt lat="48.86135" lon="2.27951">
        <ele>71.800003051758</ele>
        <time>2016-01-18T20:14:56Z</time>
      </trkpt>
      <trkpt lat="48.86145" lon="2.27923">
        <ele>71.199996948242</ele>
        <time>2016-01-18T20:15:01Z</time>
      </trkpt>
      <trkpt lat="48.86157" lon="2.27901">
        <ele>70.800003051758</ele>
        <time>2016-01-18T20:15:05Z</time>
      </trkpt>
      <trkpt lat="48.86171" lon="2.2788">
        <ele>70</ele>
        <time>2016-01-18T20:15:09Z</time>
      </trkpt>
      <trkpt lat="48.86185" lon="2.27858">
        <ele>68.800003051758</ele>
        <time>2016-01-18T20:15:13Z</time>
      </trkpt>
      <trkpt lat="48.86189" lon="2.27854">
        <ele>68.599998474121</ele>
        <time>2016-01-18T20:15:14Z</time>
      </trkpt>
      <trkpt lat="48.862" lon="2.2783">
        <ele>67.599998474121</ele>
        <time>2016-01-18T20:15:18Z</time>
      </trkpt>
      <trkpt lat="48.86213" lon="2.27806">
        <ele>66</ele>
        <time>2016-01-18T20:15:22Z</time>
      </trkpt>
      <trkpt lat="48.86224" lon="2.27779">
        <ele>64.400001525879</ele>
        <time>2016-01-18T20:15:26Z</time>
      </trkpt>
      <trkpt lat="48.86235" lon="2.27762">
        <ele>64.599998474121</ele>
        <time>2016-01-18T20:15:29Z</time>
      </trkpt>
      <trkpt lat="48.86247" lon="2.27745">
        <ele>64.599998474121</ele>
        <time>2016-01-18T20:15:32Z</time>
      </trkpt>
      <trkpt lat="48.86263" lon="2.2772">
        <ele>64.599998474121</ele>
        <time>2016-01-18T20:15:36Z</time>
      </trkpt>
      <trkpt lat="48.86275" lon="2.27694">
        <ele>64.400001525879</ele>
        <time>2016-01-18T20:15:40Z</time>
      </trkpt>
      <trkpt lat="48.86286" lon="2.27669">
        <ele>64.400001525879</ele>
        <time>2016-01-18T20:15:44Z</time>
      </trkpt>
      <trkpt lat="48.86302" lon="2.27647">
        <ele>65</ele>
        <time>2016-01-18T20:15:50Z</time>
      </trkpt>
      <trkpt lat="48.86313" lon="2.27621">
        <ele>65.400001525879</ele>
        <time>2016-01-18T20:15:55Z</time>
      </trkpt>
      <trkpt lat="48.86321" lon="2.27591">
        <ele>65.800003051758</ele>
        <time>2016-01-18T20:16:00Z</time>
      </trkpt>
      <trkpt lat="48.8633" lon="2.27562">
        <ele>66.800003051758</ele>
        <time>2016-01-18T20:16:05Z</time>
      </trkpt>
      <trkpt lat="48.86338" lon="2.27533">
        <ele>68.400001525879</ele>
        <time>2016-01-18T20:16:10Z</time>
      </trkpt>
      <trkpt lat="48.86347" lon="2.27506">
        <ele>70</ele>
        <time>2016-01-18T20:16:15Z</time>
      </trkpt>
      <trkpt lat="48.86354" lon="2.27479">
        <ele>70.800003051758</ele>
        <time>2016-01-18T20:16:20Z</time>
      </trkpt>
      <trkpt lat="48.86361" lon="2.27466">
        <ele>70.400001525879</ele>
        <time>2016-01-18T20:16:23Z</time>
      </trkpt>
      <trkpt lat="48.86367" lon="2.27439">
        <ele>69.800003051758</ele>
        <time>2016-01-18T20:16:28Z</time>
      </trkpt>
      <trkpt lat="48.8637" lon="2.27428">
        <ele>69.599998474121</ele>
        <time>2016-01-18T20:16:30Z</time>
      </trkpt>
      <trkpt lat="48.8637" lon="2.27417">
        <ele>69.400001525879</ele>
        <time>2016-01-18T20:16:32Z</time>
      </trkpt>
      <trkpt lat="48.86372" lon="2.27388">
        <ele>67.400001525879</ele>
        <time>2016-01-18T20:16:36Z</time>
      </trkpt>
      <trkpt lat="48.86377" lon="2.27357">
        <ele>65</ele>
        <time>2016-01-18T20:16:40Z</time>
      </trkpt>
      <trkpt lat="48.86382" lon="2.27328">
        <ele>63.599998474121</ele>
        <time>2016-01-18T20:16:44Z</time>
      </trkpt>
      <trkpt lat="48.8639" lon="2.27305">
        <ele>63</ele>
        <time>2016-01-18T20:16:47Z</time>
      </trkpt>
      <trkpt lat="48.86399" lon="2.27277">
        <ele>62.20000076294</ele>
        <time>2016-01-18T20:16:52Z</time>
      </trkpt>
      <trkpt lat="48.86396" lon="2.27263">
        <ele>61.599998474121</ele>
        <time>2016-01-18T20:16:54Z</time>
      </trkpt>
      <trkpt lat="48.86402" lon="2.27257">
        <ele>61.20000076294</ele>
        <time>2016-01-18T20:16:56Z</time>
      </trkpt>
      <trkpt lat="48.86413" lon="2.27246">
        <ele>60.599998474121</ele>
        <time>2016-01-18T20:17:00Z</time>
      </trkpt>
      <trkpt lat="48.86414" lon="2.27241">
        <ele>61</ele>
        <time>2016-01-18T20:17:01Z</time>
      </trkpt>
      <trkpt lat="48.86414" lon="2.27212">
        <ele>62.400001525879</ele>
        <time>2016-01-18T20:17:06Z</time>
      </trkpt>
      <trkpt lat="48.86414" lon="2.27208">
        <ele>62.599998474121</ele>
        <time>2016-01-18T20:17:07Z</time>
      </trkpt>
      <trkpt lat="48.86413" lon="2.27199">
        <ele>63</ele>
        <time>2016-01-18T20:17:10Z</time>
      </trkpt>
      <trkpt lat="48.86412" lon="2.27167">
        <ele>64.199996948242</ele>
        <time>2016-01-18T20:17:16Z</time>
      </trkpt>
      <trkpt lat="48.86416" lon="2.27154">
        <ele>64.199996948242</ele>
        <time>2016-01-18T20:17:18Z</time>
      </trkpt>
      <trkpt lat="48.86427" lon="2.27127">
        <ele>64.400001525879</ele>
        <time>2016-01-18T20:17:22Z</time>
      </trkpt>
      <trkpt lat="48.86433" lon="2.27099">
        <ele>65.400001525879</ele>
        <time>2016-01-18T20:17:26Z</time>
      </trkpt>
      <trkpt lat="48.86447" lon="2.27075">
        <ele>65.599998474121</ele>
        <time>2016-01-18T20:17:30Z</time>
      </trkpt>
      <trkpt lat="48.86458" lon="2.27052">
        <ele>64.400001525879</ele>
        <time>2016-01-18T20:17:34Z</time>
      </trkpt>
      <trkpt lat="48.86466" lon="2.2703">
        <ele>63.599998474121</ele>
        <time>2016-01-18T20:17:38Z</time>
      </trkpt>
      <trkpt lat="48.86469" lon="2.2701">
        <ele>61.79999923706</ele>
        <time>2016-01-18T20:17:42Z</time>
      </trkpt>
      <trkpt lat="48.86459" lon="2.26994">
        <ele>61.400001525879</ele>
        <time>2016-01-18T20:17:55Z</time>
      </trkpt>
      <trkpt lat="48.86473" lon="2.27003">
        <ele>60.599998474121</ele>
        <time>2016-01-18T20:18:25Z</time>
      </trkpt>
      <trkpt lat="48.8649" lon="2.27017">
        <ele>60</ele>
        <time>2016-01-18T20:18:30Z</time>
      </trkpt>
      <trkpt lat="48.8651" lon="2.27033">
        <ele>59.20000076294</ele>
        <time>2016-01-18T20:18:35Z</time>
      </trkpt>
      <trkpt lat="48.86515" lon="2.27036">
        <ele>58.79999923706</ele>
        <time>2016-01-18T20:18:36Z</time>
      </trkpt>
      <trkpt lat="48.86534" lon="2.2705">
        <ele>59</ele>
        <time>2016-01-18T20:18:40Z</time>
      </trkpt>
      <trkpt lat="48.86554" lon="2.27065">
        <ele>60.20000076294</ele>
        <time>2016-01-18T20:18:44Z</time>
      </trkpt>
      <trkpt lat="48.86573" lon="2.27082">
        <ele>61.599998474121</ele>
        <time>2016-01-18T20:18:48Z</time>
      </trkpt>
      <trkpt lat="48.86591" lon="2.27099">
        <ele>62.599998474121</ele>
        <time>2016-01-18T20:18:52Z</time>
      </trkpt>
      <trkpt lat="48.86612" lon="2.27116">
        <ele>62.79999923706</ele>
        <time>2016-01-18T20:18:56Z</time>
      </trkpt>
      <trkpt lat="48.86633" lon="2.27135">
        <ele>61.79999923706</ele>
        <time>2016-01-18T20:19:00Z</time>
      </trkpt>
      <trkpt lat="48.86643" lon="2.27144">
        <ele>61.20000076294</ele>
        <time>2016-01-18T20:19:02Z</time>
      </trkpt>
      <trkpt lat="48.86663" lon="2.27159">
        <ele>60</ele>
        <time>2016-01-18T20:19:06Z</time>
      </trkpt>
      <trkpt lat="48.86675" lon="2.27171">
        <ele>59.400001525879</ele>
        <time>2016-01-18T20:19:09Z</time>
      </trkpt>
      <trkpt lat="48.86695" lon="2.27186">
        <ele>58.599998474121</ele>
        <time>2016-01-18T20:19:13Z</time>
      </trkpt>
      <trkpt lat="48.86714" lon="2.272">
        <ele>58.400001525879</ele>
        <time>2016-01-18T20:19:17Z</time>
      </trkpt>
      <trkpt lat="48.86735" lon="2.27215">
        <ele>58</ele>
        <time>2016-01-18T20:19:21Z</time>
      </trkpt>
      <trkpt lat="48.86756" lon="2.27233">
        <ele>58</ele>
        <time>2016-01-18T20:19:25Z</time>
      </trkpt>
      <trkpt lat="48.86771" lon="2.27247">
        <ele>58.20000076294</ele>
        <time>2016-01-18T20:19:28Z</time>
      </trkpt>
      <trkpt lat="48.86791" lon="2.27264">
        <ele>57.599998474121</ele>
        <time>2016-01-18T20:19:32Z</time>
      </trkpt>
      <trkpt lat="48.8681" lon="2.27282">
        <ele>57</ele>
        <time>2016-01-18T20:19:36Z</time>
      </trkpt>
      <trkpt lat="48.86826" lon="2.27297">
        <ele>56.599998474121</ele>
        <time>2016-01-18T20:19:39Z</time>
      </trkpt>
      <trkpt lat="48.86845" lon="2.27317">
        <ele>56.20000076294</ele>
        <time>2016-01-18T20:19:43Z</time>
      </trkpt>
      <trkpt lat="48.86865" lon="2.27333">
        <ele>55.79999923706</ele>
        <time>2016-01-18T20:19:47Z</time>
      </trkpt>
      <trkpt lat="48.86885" lon="2.27349">
        <ele>55</ele>
        <time>2016-01-18T20:19:51Z</time>
      </trkpt>
      <trkpt lat="48.86904" lon="2.27362">
        <ele>54.20000076294</ele>
        <time>2016-01-18T20:19:55Z</time>
      </trkpt>
      <trkpt lat="48.86922" lon="2.27375">
        <ele>53.599998474121</ele>
        <time>2016-01-18T20:19:59Z</time>
      </trkpt>
      <trkpt lat="48.86939" lon="2.27388">
        <ele>52.79999923706</ele>
        <time>2016-01-18T20:20:03Z</time>
      </trkpt>
      <trkpt lat="48.8696" lon="2.27404">
        <ele>51.79999923706</ele>
        <time>2016-01-18T20:20:07Z</time>
      </trkpt>
      <trkpt lat="48.86978" lon="2.27421">
        <ele>51.79999923706</ele>
        <time>2016-01-18T20:20:11Z</time>
      </trkpt>
      <trkpt lat="48.86996" lon="2.27436">
        <ele>52.79999923706</ele>
        <time>2016-01-18T20:20:15Z</time>
      </trkpt>
      <trkpt lat="48.87016" lon="2.27455">
        <ele>54.20000076294</ele>
        <time>2016-01-18T20:20:19Z</time>
      </trkpt>
      <trkpt lat="48.87022" lon="2.27459">
        <ele>54.400001525879</ele>
        <time>2016-01-18T20:20:20Z</time>
      </trkpt>
      <trkpt lat="48.87042" lon="2.27474">
        <ele>53.599998474121</ele>
        <time>2016-01-18T20:20:24Z</time>
      </trkpt>
      <trkpt lat="48.87062" lon="2.27487">
        <ele>52.400001525879</ele>
        <time>2016-01-18T20:20:28Z</time>
      </trkpt>
      <trkpt lat="48.87081" lon="2.27501">
        <ele>51.599998474121</ele>
        <time>2016-01-18T20:20:33Z</time>
      </trkpt>
      <trkpt lat="48.8709" lon="2.27508">
        <ele>51.400001525879</ele>
        <time>2016-01-18T20:20:36Z</time>
      </trkpt>
      <trkpt lat="48.87096" lon="2.27518">
        <ele>51.79999923706</ele>
        <time>2016-01-18T20:20:39Z</time>
      </trkpt>
      <trkpt lat="48.87109" lon="2.27531">
        <ele>51.599998474121</ele>
        <time>2016-01-18T20:20:44Z</time>
      </trkpt>
      <trkpt lat="48.87115" lon="2.2754">
        <ele>51.79999923706</ele>
        <time>2016-01-18T20:20:47Z</time>
      </trkpt>
      <trkpt lat="48.87118" lon="2.27546">
        <ele>52</ele>
        <time>2016-01-18T20:20:49Z</time>
      </trkpt>
      <trkpt lat="48.87122" lon="2.27567">
        <ele>54</ele>
        <time>2016-01-18T20:20:55Z</time>
      </trkpt>
      <trkpt lat="48.87124" lon="2.27574">
        <ele>54.599998474121</ele>
        <time>2016-01-18T20:20:57Z</time>
      </trkpt>
      <trkpt lat="48.8712" lon="2.27583">
        <ele>55.79999923706</ele>
        <time>2016-01-18T20:21:37Z</time>
      </trkpt>
      <trkpt lat="48.8712" lon="2.27592">
        <ele>55.79999923706</ele>
        <time>2016-01-18T20:22:27Z</time>
      </trkpt>
      <trkpt lat="48.87132" lon="2.27613">
        <ele>53.79999923706</ele>
        <time>2016-01-18T20:22:36Z</time>
      </trkpt>
      <trkpt lat="48.8714" lon="2.27641">
        <ele>53.400001525879</ele>
        <time>2016-01-18T20:22:45Z</time>
      </trkpt>
      <trkpt lat="48.87144" lon="2.27669">
        <ele>53.400001525879</ele>
        <time>2016-01-18T20:22:52Z</time>
      </trkpt>
      <trkpt lat="48.87148" lon="2.27698">
        <ele>53.20000076294</ele>
        <time>2016-01-18T20:23:00Z</time>
      </trkpt>
      <trkpt lat="48.87152" lon="2.27726">
        <ele>52.400001525879</ele>
        <time>2016-01-18T20:23:08Z</time>
      </trkpt>
      <trkpt lat="48.87149" lon="2.27748">
        <ele>52.400001525879</ele>
        <time>2016-01-18T20:23:19Z</time>
      </trkpt>
      <trkpt lat="48.87154" lon="2.27775">
        <ele>53.599998474121</ele>
        <time>2016-01-18T20:23:30Z</time>
      </trkpt>
      <trkpt lat="48.87157" lon="2.27809">
        <ele>54.400001525879</ele>
        <time>2016-01-18T20:23:36Z</time>
      </trkpt>
      <trkpt lat="48.87161" lon="2.27837">
        <ele>53.599998474121</ele>
        <time>2016-01-18T20:23:40Z</time>
      </trkpt>
      <trkpt lat="48.87163" lon="2.27871">
        <ele>53</ele>
        <time>2016-01-18T20:23:44Z</time>
      </trkpt>
      <trkpt lat="48.87167" lon="2.27907">
        <ele>52.400001525879</ele>
        <time>2016-01-18T20:23:48Z</time>
      </trkpt>
      <trkpt lat="48.87171" lon="2.27935">
        <ele>53.20000076294</ele>
        <time>2016-01-18T20:23:51Z</time>
      </trkpt>
      <trkpt lat="48.87174" lon="2.27964">
        <ele>54.400001525879</ele>
        <time>2016-01-18T20:23:54Z</time>
      </trkpt>
      <trkpt lat="48.87176" lon="2.27992">
        <ele>55.400001525879</ele>
        <time>2016-01-18T20:23:57Z</time>
      </trkpt>
      <trkpt lat="48.87179" lon="2.28021">
        <ele>55.79999923706</ele>
        <time>2016-01-18T20:24:00Z</time>
      </trkpt>
      <trkpt lat="48.87181" lon="2.28052">
        <ele>56</ele>
        <time>2016-01-18T20:24:03Z</time>
      </trkpt>
      <trkpt lat="48.87186" lon="2.28082">
        <ele>56.20000076294</ele>
        <time>2016-01-18T20:24:06Z</time>
      </trkpt>
      <trkpt lat="48.8719" lon="2.28111">
        <ele>57.20000076294</ele>
        <time>2016-01-18T20:24:09Z</time>
      </trkpt>
      <trkpt lat="48.87195" lon="2.28141">
        <ele>57.79999923706</ele>
        <time>2016-01-18T20:24:12Z</time>
      </trkpt>
      <trkpt lat="48.87198" lon="2.28171">
        <ele>58.599998474121</ele>
        <time>2016-01-18T20:24:15Z</time>
      </trkpt>
      <trkpt lat="48.872" lon="2.282">
        <ele>59.20000076294</ele>
        <time>2016-01-18T20:24:18Z</time>
      </trkpt>
      <trkpt lat="48.87203" lon="2.2823">
        <ele>59.79999923706</ele>
        <time>2016-01-18T20:24:21Z</time>
      </trkpt>
      <trkpt lat="48.87205" lon="2.28258">
        <ele>59.20000076294</ele>
        <time>2016-01-18T20:24:24Z</time>
      </trkpt>
      <trkpt lat="48.87208" lon="2.28286">
        <ele>59.20000076294</ele>
        <time>2016-01-18T20:24:27Z</time>
      </trkpt>
      <trkpt lat="48.87212" lon="2.28313">
        <ele>59.599998474121</ele>
        <time>2016-01-18T20:24:30Z</time>
      </trkpt>
      <trkpt lat="48.87217" lon="2.28341">
        <ele>59.20000076294</ele>
        <time>2016-01-18T20:24:33Z</time>
      </trkpt>
      <trkpt lat="48.8722" lon="2.28366">
        <ele>58.20000076294</ele>
        <time>2016-01-18T20:24:36Z</time>
      </trkpt>
      <trkpt lat="48.87225" lon="2.28394">
        <ele>58</ele>
        <time>2016-01-18T20:24:40Z</time>
      </trkpt>
      <trkpt lat="48.87227" lon="2.2841">
        <ele>57.79999923706</ele>
        <time>2016-01-18T20:24:43Z</time>
      </trkpt>
      <trkpt lat="48.87231" lon="2.2844">
        <ele>58.400001525879</ele>
        <time>2016-01-18T20:24:49Z</time>
      </trkpt>
      <trkpt lat="48.87232" lon="2.28449">
        <ele>58.599998474121</ele>
        <time>2016-01-18T20:24:51Z</time>
      </trkpt>
      <trkpt lat="48.87237" lon="2.28459">
        <ele>58</ele>
        <time>2016-01-18T20:24:55Z</time>
      </trkpt>
      <trkpt lat="48.87239" lon="2.28464">
        <ele>57.599998474121</ele>
        <time>2016-01-18T20:25:00Z</time>
      </trkpt>
      <trkpt lat="48.87235" lon="2.28465">
        <ele>58.20000076294</ele>
        <time>2016-01-18T20:25:43Z</time>
      </trkpt>
      <trkpt lat="48.87225" lon="2.28486">
        <ele>59.20000076294</ele>
        <time>2016-01-18T20:26:03Z</time>
      </trkpt>
      <trkpt lat="48.87226" lon="2.28488">
        <ele>59</ele>
        <time>2016-01-18T20:26:04Z</time>
      </trkpt>
      <trkpt lat="48.87228" lon="2.28494">
        <ele>58.400001525879</ele>
        <time>2016-01-18T20:26:10Z</time>
      </trkpt>
      <trkpt lat="48.87229" lon="2.28493">
        <ele>58.400001525879</ele>
        <time>2016-01-18T20:26:11Z</time>
      </trkpt>
      <trkpt lat="48.87237" lon="2.28506">
        <ele>57.79999923706</ele>
        <time>2016-01-18T20:27:16Z</time>
      </trkpt>
      <trkpt lat="48.8724" lon="2.28541">
        <ele>59.79999923706</ele>
        <time>2016-01-18T20:27:21Z</time>
      </trkpt>
      <trkpt lat="48.87242" lon="2.28555">
        <ele>60.20000076294</ele>
        <time>2016-01-18T20:27:23Z</time>
      </trkpt>
      <trkpt lat="48.87247" lon="2.28587">
        <ele>59.79999923706</ele>
        <time>2016-01-18T20:27:27Z</time>
      </trkpt>
      <trkpt lat="48.8725" lon="2.28619">
        <ele>60.400001525879</ele>
        <time>2016-01-18T20:27:31Z</time>
      </trkpt>
      <trkpt lat="48.87253" lon="2.28654">
        <ele>60.79999923706</ele>
        <time>2016-01-18T20:27:35Z</time>
      </trkpt>
      <trkpt lat="48.87255" lon="2.28683">
        <ele>61.400001525879</ele>
        <time>2016-01-18T20:27:39Z</time>
      </trkpt>
      <trkpt lat="48.87259" lon="2.28707">
        <ele>61.79999923706</ele>
        <time>2016-01-18T20:27:42Z</time>
      </trkpt>
      <trkpt lat="48.87263" lon="2.28742">
        <ele>62.599998474121</ele>
        <time>2016-01-18T20:27:46Z</time>
      </trkpt>
      <trkpt lat="48.87266" lon="2.28769">
        <ele>63.79999923706</ele>
        <time>2016-01-18T20:27:49Z</time>
      </trkpt>
      <trkpt lat="48.87271" lon="2.28797">
        <ele>64.599998474121</ele>
        <time>2016-01-18T20:27:52Z</time>
      </trkpt>
      <trkpt lat="48.87275" lon="2.28825">
        <ele>65.599998474121</ele>
        <time>2016-01-18T20:27:55Z</time>
      </trkpt>
      <trkpt lat="48.87276" lon="2.28853">
        <ele>66</ele>
        <time>2016-01-18T20:27:58Z</time>
      </trkpt>
      <trkpt lat="48.87279" lon="2.28889">
        <ele>66.199996948242</ele>
        <time>2016-01-18T20:28:02Z</time>
      </trkpt>
      <trkpt lat="48.87282" lon="2.28924">
        <ele>66.199996948242</ele>
        <time>2016-01-18T20:28:06Z</time>
      </trkpt>
      <trkpt lat="48.87285" lon="2.28955">
        <ele>65.199996948242</ele>
        <time>2016-01-18T20:28:10Z</time>
      </trkpt>
      <trkpt lat="48.87291" lon="2.28984">
        <ele>64.199996948242</ele>
        <time>2016-01-18T20:28:14Z</time>
      </trkpt>
      <trkpt lat="48.87292" lon="2.28991">
        <ele>64</ele>
        <time>2016-01-18T20:28:15Z</time>
      </trkpt>
      <trkpt lat="48.87295" lon="2.29021">
        <ele>66.199996948242</ele>
        <time>2016-01-18T20:28:19Z</time>
      </trkpt>
      <trkpt lat="48.87299" lon="2.29052">
        <ele>68</ele>
        <time>2016-01-18T20:28:23Z</time>
      </trkpt>
      <trkpt lat="48.87303" lon="2.29082">
        <ele>69.599998474121</ele>
        <time>2016-01-18T20:28:27Z</time>
      </trkpt>
      <trkpt lat="48.87306" lon="2.29103">
        <ele>69.400001525879</ele>
        <time>2016-01-18T20:28:30Z</time>
      </trkpt>
      <trkpt lat="48.8731" lon="2.29134">
        <ele>70.199996948242</ele>
        <time>2016-01-18T20:28:35Z</time>
      </trkpt>
      <trkpt lat="48.87312" lon="2.29139">
        <ele>70.400001525879</ele>
        <time>2016-01-18T20:28:36Z</time>
      </trkpt>
      <trkpt lat="48.87314" lon="2.29148">
        <ele>70.599998474121</ele>
        <time>2016-01-18T20:28:38Z</time>
      </trkpt>
      <trkpt lat="48.87318" lon="2.29157">
        <ele>70.800003051758</ele>
        <time>2016-01-18T20:28:40Z</time>
      </trkpt>
      <trkpt lat="48.87332" lon="2.29183">
        <ele>69.800003051758</ele>
        <time>2016-01-18T20:28:45Z</time>
      </trkpt>
      <trkpt lat="48.87337" lon="2.29192">
        <ele>69.199996948242</ele>
        <time>2016-01-18T20:28:47Z</time>
      </trkpt>
      <trkpt lat="48.87345" lon="2.29208">
        <ele>68.400001525879</ele>
        <time>2016-01-18T20:28:50Z</time>
      </trkpt>
      <trkpt lat="48.87352" lon="2.29234">
        <ele>67.400001525879</ele>
        <time>2016-01-18T20:28:55Z</time>
      </trkpt>
      <trkpt lat="48.87353" lon="2.29238">
        <ele>67.400001525879</ele>
        <time>2016-01-18T20:28:56Z</time>
      </trkpt>
      <trkpt lat="48.87355" lon="2.29251">
        <ele>67</ele>
        <time>2016-01-18T20:29:00Z</time>
      </trkpt>
      <trkpt lat="48.87355" lon="2.29253">
        <ele>67</ele>
        <time>2016-01-18T20:29:02Z</time>
      </trkpt>
      <trkpt lat="48.87356" lon="2.29251">
        <ele>66.800003051758</ele>
        <time>2016-01-18T20:29:06Z</time>
      </trkpt>
      <trkpt lat="48.87345" lon="2.2925">
        <ele>67.800003051758</ele>
        <time>2016-01-18T20:30:04Z</time>
      </trkpt>
      <trkpt lat="48.87353" lon="2.29258">
        <ele>67</ele>
        <time>2016-01-18T20:30:35Z</time>
      </trkpt>
      <trkpt lat="48.87355" lon="2.29268">
        <ele>66.599998474121</ele>
        <time>2016-01-18T20:30:43Z</time>
      </trkpt>
      <trkpt lat="48.87339" lon="2.29283">
        <ele>67.599998474121</ele>
        <time>2016-01-18T20:30:54Z</time>
      </trkpt>
      <trkpt lat="48.87321" lon="2.2929">
        <ele>69</ele>
        <time>2016-01-18T20:31:01Z</time>
      </trkpt>
      <trkpt lat="48.87308" lon="2.29295">
        <ele>69.199996948242</ele>
        <time>2016-01-18T20:31:06Z</time>
      </trkpt>
      <trkpt lat="48.87296" lon="2.29315">
        <ele>67.599998474121</ele>
        <time>2016-01-18T20:31:17Z</time>
      </trkpt>
      <trkpt lat="48.87295" lon="2.29319">
        <ele>67.400001525879</ele>
        <time>2016-01-18T20:31:18Z</time>
      </trkpt>
      <trkpt lat="48.87289" lon="2.29329">
        <ele>66.800003051758</ele>
        <time>2016-01-18T20:31:23Z</time>
      </trkpt>
      <trkpt lat="48.87269" lon="2.2932">
        <ele>68</ele>
        <time>2016-01-18T20:31:33Z</time>
      </trkpt>
      <trkpt lat="48.8725" lon="2.29313">
        <ele>68.800003051758</ele>
        <time>2016-01-18T20:31:38Z</time>
      </trkpt>
      <trkpt lat="48.87232" lon="2.29303">
        <ele>70.199996948242</ele>
        <time>2016-01-18T20:31:42Z</time>
      </trkpt>
      <trkpt lat="48.87214" lon="2.2929">
        <ele>71.599998474121</ele>
        <time>2016-01-18T20:31:46Z</time>
      </trkpt>
      <trkpt lat="48.87196" lon="2.29279">
        <ele>72.800003051758</ele>
        <time>2016-01-18T20:31:49Z</time>
      </trkpt>
      <trkpt lat="48.87179" lon="2.29267">
        <ele>74.199996948242</ele>
        <time>2016-01-18T20:31:52Z</time>
      </trkpt>
      <trkpt lat="48.87168" lon="2.29255">
        <ele>75.400001525879</ele>
        <time>2016-01-18T20:31:55Z</time>
      </trkpt>
      <trkpt lat="48.87153" lon="2.29234">
        <ele>77</ele>
        <time>2016-01-18T20:32:01Z</time>
      </trkpt>
      <trkpt lat="48.87139" lon="2.29212">
        <ele>78.199996948242</ele>
        <time>2016-01-18T20:32:06Z</time>
      </trkpt>
      <trkpt lat="48.87137" lon="2.29204">
        <ele>78.599998474121</ele>
        <time>2016-01-18T20:32:15Z</time>
      </trkpt>
      <trkpt lat="48.87131" lon="2.29204">
        <ele>78.800003051758</ele>
        <time>2016-01-18T20:32:24Z</time>
      </trkpt>
      <trkpt lat="48.8712" lon="2.29191">
        <ele>79.400001525879</ele>
        <time>2016-01-18T20:32:48Z</time>
      </trkpt>
      <trkpt lat="48.87104" lon="2.2918">
        <ele>80</ele>
        <time>2016-01-18T20:32:54Z</time>
      </trkpt>
      <trkpt lat="48.87087" lon="2.29163">
        <ele>80</ele>
        <time>2016-01-18T20:32:59Z</time>
      </trkpt>
      <trkpt lat="48.8707" lon="2.29149">
        <ele>79.400001525879</ele>
        <time>2016-01-18T20:33:03Z</time>
      </trkpt>
      <trkpt lat="48.87055" lon="2.29133">
        <ele>79</ele>
        <time>2016-01-18T20:33:07Z</time>
      </trkpt>
      <trkpt lat="48.87035" lon="2.29114">
        <ele>78.199996948242</ele>
        <time>2016-01-18T20:33:11Z</time>
      </trkpt>
      <trkpt lat="48.87018" lon="2.291">
        <ele>77.599998474121</ele>
        <time>2016-01-18T20:33:14Z</time>
      </trkpt>
      <trkpt lat="48.86999" lon="2.29083">
        <ele>76.800003051758</ele>
        <time>2016-01-18T20:33:18Z</time>
      </trkpt>
      <trkpt lat="48.8699" lon="2.2907">
        <ele>76.599998474121</ele>
        <time>2016-01-18T20:33:21Z</time>
      </trkpt>
      <trkpt lat="48.86983" lon="2.29058">
        <ele>76.400001525879</ele>
        <time>2016-01-18T20:33:25Z</time>
      </trkpt>
      <trkpt lat="48.86967" lon="2.29041">
        <ele>75.800003051758</ele>
        <time>2016-01-18T20:33:30Z</time>
      </trkpt>
      <trkpt lat="48.86951" lon="2.29024">
        <ele>75.199996948242</ele>
        <time>2016-01-18T20:33:35Z</time>
      </trkpt>
      <trkpt lat="48.86935" lon="2.29009">
        <ele>74.599998474121</ele>
        <time>2016-01-18T20:33:39Z</time>
      </trkpt>
      <trkpt lat="48.86928" lon="2.28998">
        <ele>74.400001525879</ele>
        <time>2016-01-18T20:33:43Z</time>
      </trkpt>
      <trkpt lat="48.86928" lon="2.28996">
        <ele>74.400001525879</ele>
        <time>2016-01-18T20:33:45Z</time>
      </trkpt>
      <trkpt lat="48.8693" lon="2.28969">
        <ele>74.400001525879</ele>
        <time>2016-01-18T20:33:57Z</time>
      </trkpt>
      <trkpt lat="48.86932" lon="2.28935">
        <ele>74</ele>
        <time>2016-01-18T20:34:02Z</time>
      </trkpt>
      <trkpt lat="48.86936" lon="2.28907">
        <ele>73.800003051758</ele>
        <time>2016-01-18T20:34:06Z</time>
      </trkpt>
      <trkpt lat="48.8694" lon="2.28878">
        <ele>74</ele>
        <time>2016-01-18T20:34:10Z</time>
      </trkpt>
      <trkpt lat="48.86942" lon="2.28846">
        <ele>74.199996948242</ele>
        <time>2016-01-18T20:34:14Z</time>
      </trkpt>
      <trkpt lat="48.86947" lon="2.28813">
        <ele>74.199996948242</ele>
        <time>2016-01-18T20:34:18Z</time>
      </trkpt>
      <trkpt lat="48.86951" lon="2.28779">
        <ele>74.800003051758</ele>
        <time>2016-01-18T20:34:22Z</time>
      </trkpt>
      <trkpt lat="48.86957" lon="2.28748">
        <ele>74.800003051758</ele>
        <time>2016-01-18T20:34:26Z</time>
      </trkpt>
      <trkpt lat="48.86961" lon="2.28715">
        <ele>74.800003051758</ele>
        <time>2016-01-18T20:34:30Z</time>
      </trkpt>
      <trkpt lat="48.86968" lon="2.28683">
        <ele>74.599998474121</ele>
        <time>2016-01-18T20:34:34Z</time>
      </trkpt>
      <trkpt lat="48.86974" lon="2.28651">
        <ele>73.800003051758</ele>
        <time>2016-01-18T20:34:38Z</time>
      </trkpt>
      <trkpt lat="48.86976" lon="2.28644">
        <ele>73.400001525879</ele>
        <time>2016-01-18T20:34:39Z</time>
      </trkpt>
      <trkpt lat="48.86979" lon="2.28612">
        <ele>72.400001525879</ele>
        <time>2016-01-18T20:34:44Z</time>
      </trkpt>
      <trkpt lat="48.8698" lon="2.28598">
        <ele>72.400001525879</ele>
        <time>2016-01-18T20:34:47Z</time>
      </trkpt>
      <trkpt lat="48.8699" lon="2.28586">
        <ele>72.599998474121</ele>
        <time>2016-01-18T20:34:53Z</time>
      </trkpt>
      <trkpt lat="48.86996" lon="2.28582">
        <ele>72.599998474121</ele>
        <time>2016-01-18T20:34:56Z</time>
      </trkpt>
      <trkpt lat="48.87007" lon="2.28564">
        <ele>72.800003051758</ele>
        <time>2016-01-18T20:35:03Z</time>
      </trkpt>
      <trkpt lat="48.87015" lon="2.28565">
        <ele>73</ele>
        <time>2016-01-18T20:35:08Z</time>
      </trkpt>
      <trkpt lat="48.87016" lon="2.28566">
        <ele>73</ele>
        <time>2016-01-18T20:35:10Z</time>
      </trkpt>
      <trkpt lat="48.87029" lon="2.28566">
        <ele>72.599998474121</ele>
        <time>2016-01-18T20:35:22Z</time>
      </trkpt>
      <trkpt lat="48.87041" lon="2.28574">
        <ele>72</ele>
        <time>2016-01-18T20:35:26Z</time>
      </trkpt>
      <trkpt lat="48.87058" lon="2.28586">
        <ele>71</ele>
        <time>2016-01-18T20:35:30Z</time>
      </trkpt>
      <trkpt lat="48.87078" lon="2.28598">
        <ele>70</ele>
        <time>2016-01-18T20:35:35Z</time>
      </trkpt>
      <trkpt lat="48.87098" lon="2.28613">
        <ele>69</ele>
        <time>2016-01-18T20:35:40Z</time>
      </trkpt>
      <trkpt lat="48.87116" lon="2.28625">
        <ele>68</ele>
        <time>2016-01-18T20:35:45Z</time>
      </trkpt>
      <trkpt lat="48.87135" lon="2.28634">
        <ele>67</ele>
        <time>2016-01-18T20:35:51Z</time>
      </trkpt>
      <trkpt lat="48.87154" lon="2.28649">
        <ele>66</ele>
        <time>2016-01-18T20:35:57Z</time>
      </trkpt>
      <trkpt lat="48.87172" lon="2.28656">
        <ele>65</ele>
        <time>2016-01-18T20:36:04Z</time>
      </trkpt>
      <trkpt lat="48.87172" lon="2.28661">
        <ele>65</ele>
        <time>2016-01-18T20:36:07Z</time>
      </trkpt>
      <trkpt lat="48.87176" lon="2.28674">
        <ele>65.599998474121</ele>
        <time>2016-01-18T20:36:10Z</time>
      </trkpt>
      <trkpt lat="48.87179" lon="2.28681">
        <ele>66</ele>
        <time>2016-01-18T20:36:21Z</time>
      </trkpt>
      <trkpt lat="48.87179" lon="2.2868">
        <ele>65.800003051758</ele>
        <time>2016-01-18T20:36:23Z</time>
      </trkpt>
      <trkpt lat="48.87173" lon="2.28675">
        <ele>65.800003051758</ele>
        <time>2016-01-18T20:36:28Z</time>
      </trkpt>
      <trkpt lat="48.87161" lon="2.2867">
        <ele>66.199996948242</ele>
        <time>2016-01-18T20:36:51Z</time>
      </trkpt>
      <trkpt lat="48.87172" lon="2.2868">
        <ele>66.199996948242</ele>
        <time>2016-01-18T20:37:13Z</time>
      </trkpt>
      <trkpt lat="48.87187" lon="2.28695">
        <ele>66.400001525879</ele>
        <time>2016-01-18T20:37:19Z</time>
      </trkpt>
      <trkpt lat="48.87205" lon="2.28713">
        <ele>66</ele>
        <time>2016-01-18T20:37:24Z</time>
      </trkpt>
      <trkpt lat="48.87221" lon="2.28728">
        <ele>65.599998474121</ele>
        <time>2016-01-18T20:37:29Z</time>
      </trkpt>
      <trkpt lat="48.87239" lon="2.28735">
        <ele>64.400001525879</ele>
        <time>2016-01-18T20:37:36Z</time>
      </trkpt>
      <trkpt lat="48.87258" lon="2.28725">
        <ele>62.20000076294</ele>
        <time>2016-01-18T20:37:44Z</time>
      </trkpt>
      <trkpt lat="48.8726" lon="2.28727">
        <ele>62.20000076294</ele>
        <time>2016-01-18T20:37:45Z</time>
      </trkpt>
      <trkpt lat="48.8726" lon="2.28714">
        <ele>61.79999923706</ele>
        <time>2016-01-18T20:37:57Z</time>
      </trkpt>
      <trkpt lat="48.87276" lon="2.28699">
        <ele>60.79999923706</ele>
        <time>2016-01-18T20:38:12Z</time>
      </trkpt>
      <trkpt lat="48.8729" lon="2.28683">
        <ele>59.79999923706</ele>
        <time>2016-01-18T20:38:19Z</time>
      </trkpt>
      <trkpt lat="48.87303" lon="2.28663">
        <ele>60</ele>
        <time>2016-01-18T20:38:27Z</time>
      </trkpt>
      <trkpt lat="48.87308" lon="2.28657">
        <ele>59.79999923706</ele>
        <time>2016-01-18T20:38:34Z</time>
      </trkpt>
      <trkpt lat="48.87316" lon="2.28653">
        <ele>59.79999923706</ele>
        <time>2016-01-18T20:38:45Z</time>
      </trkpt>
      <trkpt lat="48.87332" lon="2.28636">
        <ele>59.400001525879</ele>
        <time>2016-01-18T20:39:04Z</time>
      </trkpt>
      <trkpt lat="48.87343" lon="2.28622">
        <ele>60</ele>
        <time>2016-01-18T20:39:12Z</time>
      </trkpt>
      <trkpt lat="48.87359" lon="2.28602">
        <ele>60.79999923706</ele>
        <time>2016-01-18T20:39:22Z</time>
      </trkpt>
      <trkpt lat="48.87375" lon="2.2859">
        <ele>61.599998474121</ele>
        <time>2016-01-18T20:39:27Z</time>
      </trkpt>
      <trkpt lat="48.8739" lon="2.28571">
        <ele>62.599998474121</ele>
        <time>2016-01-18T20:39:32Z</time>
      </trkpt>
      <trkpt lat="48.87399" lon="2.28561">
        <ele>62.599998474121</ele>
        <time>2016-01-18T20:39:38Z</time>
      </trkpt>
      <trkpt lat="48.87415" lon="2.28546">
        <ele>62.79999923706</ele>
        <time>2016-01-18T20:39:48Z</time>
      </trkpt>
      <trkpt lat="48.87427" lon="2.28528">
        <ele>62.400001525879</ele>
        <time>2016-01-18T20:39:51Z</time>
      </trkpt>
      <trkpt lat="48.87444" lon="2.28507">
        <ele>61.400001525879</ele>
        <time>2016-01-18T20:39:55Z</time>
      </trkpt>
      <trkpt lat="48.87453" lon="2.28496">
        <ele>61</ele>
        <time>2016-01-18T20:39:57Z</time>
      </trkpt>
      <trkpt lat="48.8747" lon="2.28474">
        <ele>60.20000076294</ele>
        <time>2016-01-18T20:40:01Z</time>
      </trkpt>
      <trkpt lat="48.87478" lon="2.28464">
        <ele>59.79999923706</ele>
        <time>2016-01-18T20:40:03Z</time>
      </trkpt>
      <trkpt lat="48.87494" lon="2.28443">
        <ele>59.400001525879</ele>
        <time>2016-01-18T20:40:07Z</time>
      </trkpt>
      <trkpt lat="48.87497" lon="2.28438">
        <ele>59.20000076294</ele>
        <time>2016-01-18T20:40:08Z</time>
      </trkpt>
      <trkpt lat="48.87505" lon="2.28422">
        <ele>59</ele>
        <time>2016-01-18T20:40:11Z</time>
      </trkpt>
      <trkpt lat="48.87526" lon="2.28416">
        <ele>59</ele>
        <time>2016-01-18T20:40:16Z</time>
      </trkpt>
      <trkpt lat="48.87539" lon="2.28431">
        <ele>58.599998474121</ele>
        <time>2016-01-18T20:40:21Z</time>
      </trkpt>
      <trkpt lat="48.87544" lon="2.28441">
        <ele>58.599998474121</ele>
        <time>2016-01-18T20:40:23Z</time>
      </trkpt>
      <trkpt lat="48.87554" lon="2.28464">
        <ele>58.79999923706</ele>
        <time>2016-01-18T20:40:28Z</time>
      </trkpt>
      <trkpt lat="48.87557" lon="2.28466">
        <ele>58.599998474121</ele>
        <time>2016-01-18T20:40:29Z</time>
      </trkpt>
      <trkpt lat="48.87565" lon="2.28493">
        <ele>59</ele>
        <time>2016-01-18T20:40:34Z</time>
      </trkpt>
      <trkpt lat="48.87567" lon="2.28498">
        <ele>58.79999923706</ele>
        <time>2016-01-18T20:40:35Z</time>
      </trkpt>
      <trkpt lat="48.87574" lon="2.28507">
        <ele>58.599998474121</ele>
        <time>2016-01-18T20:40:37Z</time>
      </trkpt>
      <trkpt lat="48.87588" lon="2.28526">
        <ele>58.20000076294</ele>
        <time>2016-01-18T20:40:42Z</time>
      </trkpt>
      <trkpt lat="48.8759" lon="2.28531">
        <ele>58.20000076294</ele>
        <time>2016-01-18T20:40:43Z</time>
      </trkpt>
      <trkpt lat="48.87599" lon="2.28559">
        <ele>58</ele>
        <time>2016-01-18T20:40:49Z</time>
      </trkpt>
      <trkpt lat="48.87603" lon="2.28594">
        <ele>57.599998474121</ele>
        <time>2016-01-18T20:40:55Z</time>
      </trkpt>
      <trkpt lat="48.87608" lon="2.28623">
        <ele>56.400001525879</ele>
        <time>2016-01-18T20:40:59Z</time>
      </trkpt>
      <trkpt lat="48.87615" lon="2.28651">
        <ele>55.20000076294</ele>
        <time>2016-01-18T20:41:03Z</time>
      </trkpt>
      <trkpt lat="48.8762" lon="2.28679">
        <ele>55.20000076294</ele>
        <time>2016-01-18T20:41:08Z</time>
      </trkpt>
      <trkpt lat="48.87622" lon="2.28684">
        <ele>55.20000076294</ele>
        <time>2016-01-18T20:41:09Z</time>
      </trkpt>
      <trkpt lat="48.87624" lon="2.28692">
        <ele>55.20000076294</ele>
        <time>2016-01-18T20:41:12Z</time>
      </trkpt>
      <trkpt lat="48.87629" lon="2.28694">
        <ele>55.20000076294</ele>
        <time>2016-01-18T20:41:16Z</time>
      </trkpt>
      <trkpt lat="48.87627" lon="2.28696">
        <ele>55.20000076294</ele>
        <time>2016-01-18T20:41:19Z</time>
      </trkpt>
      <trkpt lat="48.87618" lon="2.28701">
        <ele>55.20000076294</ele>
        <time>2016-01-18T20:41:29Z</time>
      </trkpt>
      <trkpt lat="48.87627" lon="2.28708">
        <ele>55.20000076294</ele>
        <time>2016-01-18T20:42:01Z</time>
      </trkpt>
      <trkpt lat="48.87643" lon="2.28716">
        <ele>55.400001525879</ele>
        <time>2016-01-18T20:42:08Z</time>
      </trkpt>
      <trkpt lat="48.87654" lon="2.28722">
        <ele>55.599998474121</ele>
        <time>2016-01-18T20:42:23Z</time>
      </trkpt>
      <trkpt lat="48.87661" lon="2.28725">
        <ele>55.599998474121</ele>
        <time>2016-01-18T20:42:29Z</time>
      </trkpt>
      <trkpt lat="48.87675" lon="2.28741">
        <ele>55.79999923706</ele>
        <time>2016-01-18T20:42:46Z</time>
      </trkpt>
      <trkpt lat="48.87692" lon="2.28753">
        <ele>56.20000076294</ele>
        <time>2016-01-18T20:42:55Z</time>
      </trkpt>
      <trkpt lat="48.8771" lon="2.28762">
        <ele>55.79999923706</ele>
        <time>2016-01-18T20:43:01Z</time>
      </trkpt>
      <trkpt lat="48.87725" lon="2.28765">
        <ele>55.400001525879</ele>
        <time>2016-01-18T20:43:10Z</time>
      </trkpt>
      <trkpt lat="48.87745" lon="2.28777">
        <ele>55</ele>
        <time>2016-01-18T20:43:18Z</time>
      </trkpt>
      <trkpt lat="48.87764" lon="2.28781">
        <ele>54.599998474121</ele>
        <time>2016-01-18T20:43:25Z</time>
      </trkpt>
      <trkpt lat="48.87773" lon="2.28794">
        <ele>54.599998474121</ele>
        <time>2016-01-18T20:43:31Z</time>
      </trkpt>
      <trkpt lat="48.87774" lon="2.28815">
        <ele>54.79999923706</ele>
        <time>2016-01-18T20:43:37Z</time>
      </trkpt>
      <trkpt lat="48.87785" lon="2.28827">
        <ele>54.20000076294</ele>
        <time>2016-01-18T20:43:41Z</time>
      </trkpt>
      <trkpt lat="48.87804" lon="2.28844">
        <ele>53.20000076294</ele>
        <time>2016-01-18T20:43:45Z</time>
      </trkpt>
      <trkpt lat="48.87819" lon="2.28867">
        <ele>52.20000076294</ele>
        <time>2016-01-18T20:43:50Z</time>
      </trkpt>
      <trkpt lat="48.87833" lon="2.28892">
        <ele>51.400001525879</ele>
        <time>2016-01-18T20:43:56Z</time>
      </trkpt>
      <trkpt lat="48.87842" lon="2.28916">
        <ele>51</ele>
        <time>2016-01-18T20:44:01Z</time>
      </trkpt>
      <trkpt lat="48.87853" lon="2.2894">
        <ele>50.599998474121</ele>
        <time>2016-01-18T20:44:06Z</time>
      </trkpt>
      <trkpt lat="48.87864" lon="2.28963">
        <ele>50.400001525879</ele>
        <time>2016-01-18T20:44:11Z</time>
      </trkpt>
      <trkpt lat="48.87878" lon="2.28986">
        <ele>50</ele>
        <time>2016-01-18T20:44:17Z</time>
      </trkpt>
      <trkpt lat="48.87892" lon="2.29008">
        <ele>49.599998474121</ele>
        <time>2016-01-18T20:44:22Z</time>
      </trkpt>
      <trkpt lat="48.87903" lon="2.29036">
        <ele>48.79999923706</ele>
        <time>2016-01-18T20:44:27Z</time>
      </trkpt>
      <trkpt lat="48.87919" lon="2.29055">
        <ele>48</ele>
        <time>2016-01-18T20:44:32Z</time>
      </trkpt>
      <trkpt lat="48.87922" lon="2.29084">
        <ele>47</ele>
        <time>2016-01-18T20:44:39Z</time>
      </trkpt>
      <trkpt lat="48.87931" lon="2.29108">
        <ele>46.400001525879</ele>
        <time>2016-01-18T20:44:46Z</time>
      </trkpt>
      <trkpt lat="48.87938" lon="2.2912">
        <ele>46</ele>
        <time>2016-01-18T20:44:52Z</time>
      </trkpt>
      <trkpt lat="48.87946" lon="2.29142">
        <ele>45.599998474121</ele>
        <time>2016-01-18T20:45:00Z</time>
      </trkpt>
      <trkpt lat="48.87958" lon="2.29135">
        <ele>45.79999923706</ele>
        <time>2016-01-18T20:45:07Z</time>
      </trkpt>
      <trkpt lat="48.87974" lon="2.29141">
        <ele>46</ele>
        <time>2016-01-18T20:45:13Z</time>
      </trkpt>
      <trkpt lat="48.8798" lon="2.29155">
        <ele>45.599998474121</ele>
        <time>2016-01-18T20:45:16Z</time>
      </trkpt>
      <trkpt lat="48.87993" lon="2.29177">
        <ele>45.599998474121</ele>
        <time>2016-01-18T20:45:23Z</time>
      </trkpt>
      <trkpt lat="48.88004" lon="2.29201">
        <ele>45.79999923706</ele>
        <time>2016-01-18T20:45:28Z</time>
      </trkpt>
      <trkpt lat="48.88014" lon="2.29225">
        <ele>45.79999923706</ele>
        <time>2016-01-18T20:45:33Z</time>
      </trkpt>
      <trkpt lat="48.88025" lon="2.2925">
        <ele>46</ele>
        <time>2016-01-18T20:45:39Z</time>
      </trkpt>
      <trkpt lat="48.88038" lon="2.2927">
        <ele>46</ele>
        <time>2016-01-18T20:45:46Z</time>
      </trkpt>
      <trkpt lat="48.88053" lon="2.29276">
        <ele>45.20000076294</ele>
        <time>2016-01-18T20:45:50Z</time>
      </trkpt>
      <trkpt lat="48.8807" lon="2.29294">
        <ele>44.79999923706</ele>
        <time>2016-01-18T20:45:56Z</time>
      </trkpt>
      <trkpt lat="48.88085" lon="2.2931">
        <ele>44.599998474121</ele>
        <time>2016-01-18T20:46:02Z</time>
      </trkpt>
      <trkpt lat="48.88085" lon="2.29341">
        <ele>45.599998474121</ele>
        <time>2016-01-18T20:46:16Z</time>
      </trkpt>
      <trkpt lat="48.88092" lon="2.29317">
        <ele>44.400001525879</ele>
        <time>2016-01-18T20:46:30Z</time>
      </trkpt>
      <trkpt lat="48.88107" lon="2.29304">
        <ele>44</ele>
        <time>2016-01-18T20:46:39Z</time>
      </trkpt>
      <trkpt lat="48.88112" lon="2.29299">
        <ele>44.400001525879</ele>
        <time>2016-01-18T20:46:40Z</time>
      </trkpt>
      <trkpt lat="48.88133" lon="2.29298">
        <ele>46</ele>
        <time>2016-01-18T20:46:44Z</time>
      </trkpt>
      <trkpt lat="48.88143" lon="2.2931">
        <ele>46.599998474121</ele>
        <time>2016-01-18T20:46:48Z</time>
      </trkpt>
      <trkpt lat="48.88152" lon="2.29323">
        <ele>47.20000076294</ele>
        <time>2016-01-18T20:46:54Z</time>
      </trkpt>
      <trkpt lat="48.88154" lon="2.29328">
        <ele>47.400001525879</ele>
        <time>2016-01-18T20:46:57Z</time>
      </trkpt>
      <trkpt lat="48.88157" lon="2.29332">
        <ele>47.599998474121</ele>
        <time>2016-01-18T20:46:59Z</time>
      </trkpt>
      <trkpt lat="48.88169" lon="2.29357">
        <ele>49.20000076294</ele>
        <time>2016-01-18T20:47:07Z</time>
      </trkpt>
      <trkpt lat="48.88183" lon="2.29377">
        <ele>50.599998474121</ele>
        <time>2016-01-18T20:47:15Z</time>
      </trkpt>
      <trkpt lat="48.88197" lon="2.29402">
        <ele>51.599998474121</ele>
        <time>2016-01-18T20:47:24Z</time>
      </trkpt>
      <trkpt lat="48.88214" lon="2.2942">
        <ele>51.599998474121</ele>
        <time>2016-01-18T20:47:32Z</time>
      </trkpt>
      <trkpt lat="48.88235" lon="2.2942">
        <ele>51.400001525879</ele>
        <time>2016-01-18T20:47:39Z</time>
      </trkpt>
      <trkpt lat="48.88246" lon="2.29418">
        <ele>51.20000076294</ele>
        <time>2016-01-18T20:47:46Z</time>
      </trkpt>
      <trkpt lat="48.88266" lon="2.29405">
        <ele>51</ele>
        <time>2016-01-18T20:47:56Z</time>
      </trkpt>
      <trkpt lat="48.88281" lon="2.29388">
        <ele>50.20000076294</ele>
        <time>2016-01-18T20:48:01Z</time>
      </trkpt>
      <trkpt lat="48.88285" lon="2.29387">
        <ele>49.79999923706</ele>
        <time>2016-01-18T20:48:02Z</time>
      </trkpt>
      <trkpt lat="48.88302" lon="2.29401">
        <ele>48.79999923706</ele>
        <time>2016-01-18T20:48:09Z</time>
      </trkpt>
      <trkpt lat="48.88317" lon="2.29425">
        <ele>47.599998474121</ele>
        <time>2016-01-18T20:48:14Z</time>
      </trkpt>
      <trkpt lat="48.88331" lon="2.29445">
        <ele>46</ele>
        <time>2016-01-18T20:48:18Z</time>
      </trkpt>
      <trkpt lat="48.88349" lon="2.29466">
        <ele>44.20000076294</ele>
        <time>2016-01-18T20:48:23Z</time>
      </trkpt>
      <trkpt lat="48.88362" lon="2.29487">
        <ele>43.20000076294</ele>
        <time>2016-01-18T20:48:27Z</time>
      </trkpt>
      <trkpt lat="48.88374" lon="2.2951">
        <ele>43.400001525879</ele>
        <time>2016-01-18T20:48:31Z</time>
      </trkpt>
      <trkpt lat="48.88388" lon="2.29531">
        <ele>44</ele>
        <time>2016-01-18T20:48:35Z</time>
      </trkpt>
      <trkpt lat="48.88401" lon="2.29557">
        <ele>45</ele>
        <time>2016-01-18T20:48:40Z</time>
      </trkpt>
      <trkpt lat="48.88415" lon="2.29575">
        <ele>45.599998474121</ele>
        <time>2016-01-18T20:48:44Z</time>
      </trkpt>
      <trkpt lat="48.88432" lon="2.29596">
        <ele>45.20000076294</ele>
        <time>2016-01-18T20:48:49Z</time>
      </trkpt>
      <trkpt lat="48.88447" lon="2.2962">
        <ele>44.400001525879</ele>
        <time>2016-01-18T20:48:54Z</time>
      </trkpt>
      <trkpt lat="48.88461" lon="2.29641">
        <ele>43.400001525879</ele>
        <time>2016-01-18T20:48:58Z</time>
      </trkpt>
      <trkpt lat="48.88475" lon="2.29666">
        <ele>42.599998474121</ele>
        <time>2016-01-18T20:49:04Z</time>
      </trkpt>
      <trkpt lat="48.88474" lon="2.29685">
        <ele>42.79999923706</ele>
        <time>2016-01-18T20:49:08Z</time>
      </trkpt>
      <trkpt lat="48.88474" lon="2.29689">
        <ele>42.79999923706</ele>
        <time>2016-01-18T20:49:09Z</time>
      </trkpt>
      <trkpt lat="48.88468" lon="2.29701">
        <ele>43.20000076294</ele>
        <time>2016-01-18T20:49:12Z</time>
      </trkpt>
      <trkpt lat="48.88459" lon="2.29726">
        <ele>43.79999923706</ele>
        <time>2016-01-18T20:49:18Z</time>
      </trkpt>
      <trkpt lat="48.88464" lon="2.29756">
        <ele>43.79999923706</ele>
        <time>2016-01-18T20:49:25Z</time>
      </trkpt>
      <trkpt lat="48.88475" lon="2.29782">
        <ele>44.20000076294</ele>
        <time>2016-01-18T20:49:32Z</time>
      </trkpt>
      <trkpt lat="48.88491" lon="2.29794">
        <ele>43.599998474121</ele>
        <time>2016-01-18T20:49:39Z</time>
      </trkpt>
      <trkpt lat="48.88503" lon="2.29796">
        <ele>43</ele>
        <time>2016-01-18T20:49:46Z</time>
      </trkpt>
      <trkpt lat="48.88513" lon="2.29803">
        <ele>42.599998474121</ele>
        <time>2016-01-18T20:49:50Z</time>
      </trkpt>
      <trkpt lat="48.88525" lon="2.29825">
        <ele>42.79999923706</ele>
        <time>2016-01-18T20:49:56Z</time>
      </trkpt>
      <trkpt lat="48.88537" lon="2.29849">
        <ele>43.79999923706</ele>
        <time>2016-01-18T20:50:02Z</time>
      </trkpt>
      <trkpt lat="48.88551" lon="2.2987">
        <ele>44.79999923706</ele>
        <time>2016-01-18T20:50:06Z</time>
      </trkpt>
      <trkpt lat="48.88563" lon="2.29893">
        <ele>45.79999923706</ele>
        <time>2016-01-18T20:50:10Z</time>
      </trkpt>
      <trkpt lat="48.88577" lon="2.29911">
        <ele>46.599998474121</ele>
        <time>2016-01-18T20:50:13Z</time>
      </trkpt>
      <trkpt lat="48.88585" lon="2.29925">
        <ele>46.79999923706</ele>
        <time>2016-01-18T20:50:15Z</time>
      </trkpt>
      <trkpt lat="48.88599" lon="2.29945">
        <ele>47</ele>
        <time>2016-01-18T20:50:18Z</time>
      </trkpt>
      <trkpt lat="48.88614" lon="2.29968">
        <ele>47.20000076294</ele>
        <time>2016-01-18T20:50:21Z</time>
      </trkpt>
      <trkpt lat="48.88623" lon="2.29984">
        <ele>47.400001525879</ele>
        <time>2016-01-18T20:50:23Z</time>
      </trkpt>
      <trkpt lat="48.88634" lon="2.30011">
        <ele>47.400001525879</ele>
        <time>2016-01-18T20:50:26Z</time>
      </trkpt>
      <trkpt lat="48.88639" lon="2.30028">
        <ele>47.400001525879</ele>
        <time>2016-01-18T20:50:28Z</time>
      </trkpt>
      <trkpt lat="48.88648" lon="2.30056">
        <ele>48</ele>
        <time>2016-01-18T20:50:31Z</time>
      </trkpt>
      <trkpt lat="48.88657" lon="2.30082">
        <ele>48.400001525879</ele>
        <time>2016-01-18T20:50:34Z</time>
      </trkpt>
      <trkpt lat="48.8866" lon="2.30099">
        <ele>48.20000076294</ele>
        <time>2016-01-18T20:50:36Z</time>
      </trkpt>
      <trkpt lat="48.88663" lon="2.30133">
        <ele>47.599998474121</ele>
        <time>2016-01-18T20:50:40Z</time>
      </trkpt>
      <trkpt lat="48.88665" lon="2.3016">
        <ele>48.20000076294</ele>
        <time>2016-01-18T20:50:45Z</time>
      </trkpt>
      <trkpt lat="48.88665" lon="2.30163">
        <ele>48.20000076294</ele>
        <time>2016-01-18T20:50:49Z</time>
      </trkpt>
      <trkpt lat="48.88665" lon="2.30163">
        <ele>48.20000076294</ele>
        <time>2016-01-18T20:50:50Z</time>
      </trkpt>
      <trkpt lat="48.88672" lon="2.30189">
        <ele>48.79999923706</ele>
        <time>2016-01-18T20:51:15Z</time>
      </trkpt>
      <trkpt lat="48.88684" lon="2.30215">
        <ele>49.20000076294</ele>
        <time>2016-01-18T20:51:19Z</time>
      </trkpt>
      <trkpt lat="48.88692" lon="2.30243">
        <ele>50</ele>
        <time>2016-01-18T20:51:23Z</time>
      </trkpt>
      <trkpt lat="48.88705" lon="2.30269">
        <ele>50.400001525879</ele>
        <time>2016-01-18T20:51:27Z</time>
      </trkpt>
      <trkpt lat="48.8871" lon="2.30284">
        <ele>50.400001525879</ele>
        <time>2016-01-18T20:51:29Z</time>
      </trkpt>
      <trkpt lat="48.88717" lon="2.30314">
        <ele>50.599998474121</ele>
        <time>2016-01-18T20:51:33Z</time>
      </trkpt>
      <trkpt lat="48.88722" lon="2.30346">
        <ele>50</ele>
        <time>2016-01-18T20:51:37Z</time>
      </trkpt>
      <trkpt lat="48.88726" lon="2.30379">
        <ele>49.20000076294</ele>
        <time>2016-01-18T20:51:41Z</time>
      </trkpt>
      <trkpt lat="48.88728" lon="2.30412">
        <ele>49.599998474121</ele>
        <time>2016-01-18T20:51:45Z</time>
      </trkpt>
      <trkpt lat="48.88727" lon="2.30445">
        <ele>49.20000076294</ele>
        <time>2016-01-18T20:51:49Z</time>
      </trkpt>
      <trkpt lat="48.8873" lon="2.30476">
        <ele>49.400001525879</ele>
        <time>2016-01-18T20:51:54Z</time>
      </trkpt>
      <trkpt lat="48.88728" lon="2.30499">
        <ele>49.79999923706</ele>
        <time>2016-01-18T20:51:59Z</time>
      </trkpt>
      <trkpt lat="48.88732" lon="2.30525">
        <ele>49.79999923706</ele>
        <time>2016-01-18T20:52:14Z</time>
      </trkpt>
      <trkpt lat="48.88737" lon="2.30556">
        <ele>50.20000076294</ele>
        <time>2016-01-18T20:52:21Z</time>
      </trkpt>
      <trkpt lat="48.88748" lon="2.3058">
        <ele>50.20000076294</ele>
        <time>2016-01-18T20:52:26Z</time>
      </trkpt>
      <trkpt lat="48.88757" lon="2.3061">
        <ele>48.599998474121</ele>
        <time>2016-01-18T20:52:31Z</time>
      </trkpt>
      <trkpt lat="48.88767" lon="2.30636">
        <ele>47.20000076294</ele>
        <time>2016-01-18T20:52:35Z</time>
      </trkpt>
      <trkpt lat="48.88775" lon="2.30663">
        <ele>46</ele>
        <time>2016-01-18T20:52:39Z</time>
      </trkpt>
      <trkpt lat="48.88786" lon="2.30689">
        <ele>46</ele>
        <time>2016-01-18T20:52:43Z</time>
      </trkpt>
      <trkpt lat="48.88792" lon="2.30711">
        <ele>46.20000076294</ele>
        <time>2016-01-18T20:52:46Z</time>
      </trkpt>
      <trkpt lat="48.88791" lon="2.30735">
        <ele>46.400001525879</ele>
        <time>2016-01-18T20:52:49Z</time>
      </trkpt>
      <trkpt lat="48.88794" lon="2.30766">
        <ele>46.79999923706</ele>
        <time>2016-01-18T20:52:53Z</time>
      </trkpt>
      <trkpt lat="48.88801" lon="2.30798">
        <ele>48.400001525879</ele>
        <time>2016-01-18T20:52:57Z</time>
      </trkpt>
      <trkpt lat="48.88806" lon="2.30833">
        <ele>50.20000076294</ele>
        <time>2016-01-18T20:53:01Z</time>
      </trkpt>
      <trkpt lat="48.8881" lon="2.30861">
        <ele>49.599998474121</ele>
        <time>2016-01-18T20:53:04Z</time>
      </trkpt>
      <trkpt lat="48.88819" lon="2.30894">
        <ele>48.79999923706</ele>
        <time>2016-01-18T20:53:08Z</time>
      </trkpt>
      <trkpt lat="48.88823" lon="2.30921">
        <ele>48.400001525879</ele>
        <time>2016-01-18T20:53:11Z</time>
      </trkpt>
      <trkpt lat="48.88827" lon="2.30956">
        <ele>46.599998474121</ele>
        <time>2016-01-18T20:53:15Z</time>
      </trkpt>
      <trkpt lat="48.88817" lon="2.30994">
        <ele>46</ele>
        <time>2016-01-18T20:53:19Z</time>
      </trkpt>
      <trkpt lat="48.88817" lon="2.31021">
        <ele>45.20000076294</ele>
        <time>2016-01-18T20:53:23Z</time>
      </trkpt>
      <trkpt lat="48.88819" lon="2.31044">
        <ele>44.400001525879</ele>
        <time>2016-01-18T20:53:26Z</time>
      </trkpt>
      <trkpt lat="48.88819" lon="2.31073">
        <ele>43.400001525879</ele>
        <time>2016-01-18T20:53:30Z</time>
      </trkpt>
      <trkpt lat="48.88821" lon="2.31094">
        <ele>42.599998474121</ele>
        <time>2016-01-18T20:53:34Z</time>
      </trkpt>
      <trkpt lat="48.88812" lon="2.31121">
        <ele>42.79999923706</ele>
        <time>2016-01-18T20:53:39Z</time>
      </trkpt>
      <trkpt lat="48.8881" lon="2.31122">
        <ele>43</ele>
        <time>2016-01-18T20:53:40Z</time>
      </trkpt>
      <trkpt lat="48.88809" lon="2.31145">
        <ele>43.20000076294</ele>
        <time>2016-01-18T20:53:58Z</time>
      </trkpt>
      <trkpt lat="48.88808" lon="2.31149">
        <ele>43.20000076294</ele>
        <time>2016-01-18T20:53:59Z</time>
      </trkpt>
      <trkpt lat="48.88808" lon="2.31156">
        <ele>43.20000076294</ele>
        <time>2016-01-18T20:54:01Z</time>
      </trkpt>
      <trkpt lat="48.88804" lon="2.31184">
        <ele>43.599998474121</ele>
        <time>2016-01-18T20:54:06Z</time>
      </trkpt>
      <trkpt lat="48.88802" lon="2.3119">
        <ele>43.79999923706</ele>
        <time>2016-01-18T20:54:07Z</time>
      </trkpt>
      <trkpt lat="48.88801" lon="2.31205">
        <ele>44.599998474121</ele>
        <time>2016-01-18T20:54:09Z</time>
      </trkpt>
      <trkpt lat="48.88797" lon="2.31236">
        <ele>46.599998474121</ele>
        <time>2016-01-18T20:54:13Z</time>
      </trkpt>
      <trkpt lat="48.88789" lon="2.31269">
        <ele>48.20000076294</ele>
        <time>2016-01-18T20:54:17Z</time>
      </trkpt>
      <trkpt lat="48.88782" lon="2.31299">
        <ele>47.599998474121</ele>
        <time>2016-01-18T20:54:21Z</time>
      </trkpt>
      <trkpt lat="48.88776" lon="2.31326">
        <ele>46.79999923706</ele>
        <time>2016-01-18T20:54:24Z</time>
      </trkpt>
      <trkpt lat="48.88774" lon="2.31335">
        <ele>47</ele>
        <time>2016-01-18T20:54:25Z</time>
      </trkpt>
      <trkpt lat="48.88766" lon="2.3136">
        <ele>47.599998474121</ele>
        <time>2016-01-18T20:54:29Z</time>
      </trkpt>
      <trkpt lat="48.8876" lon="2.31387">
        <ele>48</ele>
        <time>2016-01-18T20:54:34Z</time>
      </trkpt>
      <trkpt lat="48.88758" lon="2.3139">
        <ele>48</ele>
        <time>2016-01-18T20:54:35Z</time>
      </trkpt>
      <trkpt lat="48.88757" lon="2.31393">
        <ele>48.20000076294</ele>
        <time>2016-01-18T20:54:37Z</time>
      </trkpt>
      <trkpt lat="48.8875" lon="2.31411">
        <ele>49.20000076294</ele>
        <time>2016-01-18T20:55:03Z</time>
      </trkpt>
      <trkpt lat="48.88759" lon="2.31438">
        <ele>48</ele>
        <time>2016-01-18T20:55:09Z</time>
      </trkpt>
      <trkpt lat="48.88773" lon="2.31462">
        <ele>46.400001525879</ele>
        <time>2016-01-18T20:55:15Z</time>
      </trkpt>
      <trkpt lat="48.88788" lon="2.31485">
        <ele>45.400001525879</ele>
        <time>2016-01-18T20:55:20Z</time>
      </trkpt>
      <trkpt lat="48.88802" lon="2.31504">
        <ele>45</ele>
        <time>2016-01-18T20:55:24Z</time>
      </trkpt>
      <trkpt lat="48.8882" lon="2.31523">
        <ele>45.20000076294</ele>
        <time>2016-01-18T20:55:28Z</time>
      </trkpt>
      <trkpt lat="48.8884" lon="2.31542">
        <ele>45.400001525879</ele>
        <time>2016-01-18T20:55:32Z</time>
      </trkpt>
      <trkpt lat="48.88856" lon="2.3156">
        <ele>45.79999923706</ele>
        <time>2016-01-18T20:55:36Z</time>
      </trkpt>
      <trkpt lat="48.8886" lon="2.31565">
        <ele>45.79999923706</ele>
        <time>2016-01-18T20:55:37Z</time>
      </trkpt>
      <trkpt lat="48.88857" lon="2.31593">
        <ele>47.79999923706</ele>
        <time>2016-01-18T20:55:42Z</time>
      </trkpt>
      <trkpt lat="48.88848" lon="2.3161">
        <ele>48.599998474121</ele>
        <time>2016-01-18T20:55:46Z</time>
      </trkpt>
      <trkpt lat="48.88845" lon="2.31615">
        <ele>48.79999923706</ele>
        <time>2016-01-18T20:55:47Z</time>
      </trkpt>
      <trkpt lat="48.88832" lon="2.3164">
        <ele>50</ele>
        <time>2016-01-18T20:55:52Z</time>
      </trkpt>
      <trkpt lat="48.88829" lon="2.31644">
        <ele>50.20000076294</ele>
        <time>2016-01-18T20:55:53Z</time>
      </trkpt>
      <trkpt lat="48.88815" lon="2.31665">
        <ele>51.599998474121</ele>
        <time>2016-01-18T20:55:57Z</time>
      </trkpt>
      <trkpt lat="48.888" lon="2.3169">
        <ele>52</ele>
        <time>2016-01-18T20:56:01Z</time>
      </trkpt>
      <trkpt lat="48.88793" lon="2.31701">
        <ele>52.599998474121</ele>
        <time>2016-01-18T20:56:03Z</time>
      </trkpt>
      <trkpt lat="48.88785" lon="2.31712">
        <ele>53.20000076294</ele>
        <time>2016-01-18T20:56:05Z</time>
      </trkpt>
      <trkpt lat="48.88771" lon="2.31735">
        <ele>54.400001525879</ele>
        <time>2016-01-18T20:56:09Z</time>
      </trkpt>
      <trkpt lat="48.88766" lon="2.3174">
        <ele>54.599998474121</ele>
        <time>2016-01-18T20:56:10Z</time>
      </trkpt>
      <trkpt lat="48.88751" lon="2.31761">
        <ele>55.20000076294</ele>
        <time>2016-01-18T20:56:14Z</time>
      </trkpt>
      <trkpt lat="48.8874" lon="2.31773">
        <ele>55.400001525879</ele>
        <time>2016-01-18T20:56:17Z</time>
      </trkpt>
      <trkpt lat="48.88724" lon="2.31769">
        <ele>55.20000076294</ele>
        <time>2016-01-18T20:56:23Z</time>
      </trkpt>
      <trkpt lat="48.88718" lon="2.31766">
        <ele>55.20000076294</ele>
        <time>2016-01-18T20:56:27Z</time>
      </trkpt>
      <trkpt lat="48.88711" lon="2.31761">
        <ele>55.20000076294</ele>
        <time>2016-01-18T20:57:13Z</time>
      </trkpt>
      <trkpt lat="48.88698" lon="2.31737">
        <ele>54.599998474121</ele>
        <time>2016-01-18T20:57:21Z</time>
      </trkpt>
      <trkpt lat="48.88683" lon="2.31718">
        <ele>54</ele>
        <time>2016-01-18T20:57:27Z</time>
      </trkpt>
      <trkpt lat="48.8867" lon="2.3171">
        <ele>54.20000076294</ele>
        <time>2016-01-18T20:57:31Z</time>
      </trkpt>
      <trkpt lat="48.88651" lon="2.31722">
        <ele>55</ele>
        <time>2016-01-18T20:57:36Z</time>
      </trkpt>
      <trkpt lat="48.88646" lon="2.31731">
        <ele>55</ele>
        <time>2016-01-18T20:57:38Z</time>
      </trkpt>
      <trkpt lat="48.88631" lon="2.31751">
        <ele>55</ele>
        <time>2016-01-18T20:57:44Z</time>
      </trkpt>
      <trkpt lat="48.88616" lon="2.31773">
        <ele>55.79999923706</ele>
        <time>2016-01-18T20:57:51Z</time>
      </trkpt>
      <trkpt lat="48.88599" lon="2.31792">
        <ele>57.20000076294</ele>
        <time>2016-01-18T20:57:57Z</time>
      </trkpt>
      <trkpt lat="48.88581" lon="2.31809">
        <ele>57.599998474121</ele>
        <time>2016-01-18T20:58:02Z</time>
      </trkpt>
      <trkpt lat="48.88563" lon="2.31826">
        <ele>56</ele>
        <time>2016-01-18T20:58:07Z</time>
      </trkpt>
      <trkpt lat="48.88542" lon="2.3184">
        <ele>54.599998474121</ele>
        <time>2016-01-18T20:58:12Z</time>
      </trkpt>
      <trkpt lat="48.88526" lon="2.31854">
        <ele>54.400001525879</ele>
        <time>2016-01-18T20:58:16Z</time>
      </trkpt>
      <trkpt lat="48.88515" lon="2.3188">
        <ele>56.20000076294</ele>
        <time>2016-01-18T20:58:21Z</time>
      </trkpt>
      <trkpt lat="48.88499" lon="2.31906">
        <ele>57.599998474121</ele>
        <time>2016-01-18T20:58:27Z</time>
      </trkpt>
      <trkpt lat="48.88487" lon="2.31924">
        <ele>57.599998474121</ele>
        <time>2016-01-18T20:58:31Z</time>
      </trkpt>
      <trkpt lat="48.88472" lon="2.31932">
        <ele>57.599998474121</ele>
        <time>2016-01-18T20:58:34Z</time>
      </trkpt>
      <trkpt lat="48.88459" lon="2.3194">
        <ele>57.400001525879</ele>
        <time>2016-01-18T20:58:38Z</time>
      </trkpt>
      <trkpt lat="48.88456" lon="2.31943">
        <ele>57.400001525879</ele>
        <time>2016-01-18T20:58:39Z</time>
      </trkpt>
      <trkpt lat="48.8845" lon="2.31953">
        <ele>57.20000076294</ele>
        <time>2016-01-18T20:58:42Z</time>
      </trkpt>
      <trkpt lat="48.88441" lon="2.31968">
        <ele>57</ele>
        <time>2016-01-18T20:58:46Z</time>
      </trkpt>
      <trkpt lat="48.88429" lon="2.31983">
        <ele>56.79999923706</ele>
        <time>2016-01-18T20:58:51Z</time>
      </trkpt>
      <trkpt lat="48.88413" lon="2.31999">
        <ele>56.400001525879</ele>
        <time>2016-01-18T20:58:56Z</time>
      </trkpt>
      <trkpt lat="48.88396" lon="2.32012">
        <ele>56.599998474121</ele>
        <time>2016-01-18T20:59:01Z</time>
      </trkpt>
      <trkpt lat="48.88379" lon="2.32024">
        <ele>57</ele>
        <time>2016-01-18T20:59:06Z</time>
      </trkpt>
      <trkpt lat="48.8837" lon="2.32032">
        <ele>57.79999923706</ele>
        <time>2016-01-18T20:59:12Z</time>
      </trkpt>
      <trkpt lat="48.88355" lon="2.3205">
        <ele>59.599998474121</ele>
        <time>2016-01-18T20:59:32Z</time>
      </trkpt>
      <trkpt lat="48.88333" lon="2.32054">
        <ele>61</ele>
        <time>2016-01-18T20:59:36Z</time>
      </trkpt>
      <trkpt lat="48.88314" lon="2.32056">
        <ele>59.599998474121</ele>
        <time>2016-01-18T20:59:39Z</time>
      </trkpt>
      <trkpt lat="48.88295" lon="2.32065">
        <ele>57.599998474121</ele>
        <time>2016-01-18T20:59:43Z</time>
      </trkpt>
      <trkpt lat="48.88276" lon="2.32074">
        <ele>55.599998474121</ele>
        <time>2016-01-18T20:59:48Z</time>
      </trkpt>
      <trkpt lat="48.88256" lon="2.3208">
        <ele>54.20000076294</ele>
        <time>2016-01-18T20:59:55Z</time>
      </trkpt>
      <trkpt lat="48.88247" lon="2.32095">
        <ele>54.20000076294</ele>
        <time>2016-01-18T21:00:00Z</time>
      </trkpt>
      <trkpt lat="48.8824" lon="2.32081">
        <ele>53.400001525879</ele>
        <time>2016-01-18T21:00:06Z</time>
      </trkpt>
      <trkpt lat="48.88231" lon="2.32055">
        <ele>53.599998474121</ele>
        <time>2016-01-18T21:00:16Z</time>
      </trkpt>
      <trkpt lat="48.88227" lon="2.32049">
        <ele>53.599998474121</ele>
        <time>2016-01-18T21:00:22Z</time>
      </trkpt>
      <trkpt lat="48.88219" lon="2.32036">
        <ele>53.400001525879</ele>
        <time>2016-01-18T21:00:33Z</time>
      </trkpt>
      <trkpt lat="48.88206" lon="2.32036">
        <ele>52.79999923706</ele>
        <time>2016-01-18T21:00:41Z</time>
      </trkpt>
      <trkpt lat="48.88189" lon="2.32048">
        <ele>51.79999923706</ele>
        <time>2016-01-18T21:00:58Z</time>
      </trkpt>
      <trkpt lat="48.88173" lon="2.3206">
        <ele>52.599998474121</ele>
        <time>2016-01-18T21:01:05Z</time>
      </trkpt>
      <trkpt lat="48.88156" lon="2.32069">
        <ele>53.400001525879</ele>
        <time>2016-01-18T21:01:09Z</time>
      </trkpt>
      <trkpt lat="48.88151" lon="2.32072">
        <ele>53.599998474121</ele>
        <time>2016-01-18T21:01:10Z</time>
      </trkpt>
      <trkpt lat="48.88134" lon="2.32087">
        <ele>54.79999923706</ele>
        <time>2016-01-18T21:01:14Z</time>
      </trkpt>
      <trkpt lat="48.88115" lon="2.321">
        <ele>55.79999923706</ele>
        <time>2016-01-18T21:01:18Z</time>
      </trkpt>
      <trkpt lat="48.881" lon="2.32109">
        <ele>55.79999923706</ele>
        <time>2016-01-18T21:01:21Z</time>
      </trkpt>
      <trkpt lat="48.88081" lon="2.32118">
        <ele>56.599998474121</ele>
        <time>2016-01-18T21:01:25Z</time>
      </trkpt>
      <trkpt lat="48.88062" lon="2.32126">
        <ele>57.400001525879</ele>
        <time>2016-01-18T21:01:29Z</time>
      </trkpt>
      <trkpt lat="48.88052" lon="2.3213">
        <ele>57.79999923706</ele>
        <time>2016-01-18T21:01:31Z</time>
      </trkpt>
      <trkpt lat="48.88033" lon="2.32142">
        <ele>58.400001525879</ele>
        <time>2016-01-18T21:01:35Z</time>
      </trkpt>
      <trkpt lat="48.88013" lon="2.32153">
        <ele>58.599998474121</ele>
        <time>2016-01-18T21:01:39Z</time>
      </trkpt>
      <trkpt lat="48.87994" lon="2.32164">
        <ele>59.400001525879</ele>
        <time>2016-01-18T21:01:43Z</time>
      </trkpt>
      <trkpt lat="48.87974" lon="2.32174">
        <ele>59.599998474121</ele>
        <time>2016-01-18T21:01:47Z</time>
      </trkpt>
      <trkpt lat="48.87955" lon="2.32187">
        <ele>59.400001525879</ele>
        <time>2016-01-18T21:01:51Z</time>
      </trkpt>
      <trkpt lat="48.87938" lon="2.32202">
        <ele>58.400001525879</ele>
        <time>2016-01-18T21:01:55Z</time>
      </trkpt>
      <trkpt lat="48.87919" lon="2.32213">
        <ele>57</ele>
        <time>2016-01-18T21:01:59Z</time>
      </trkpt>
      <trkpt lat="48.87898" lon="2.32222">
        <ele>56.20000076294</ele>
        <time>2016-01-18T21:02:03Z</time>
      </trkpt>
      <trkpt lat="48.87885" lon="2.32231">
        <ele>55.79999923706</ele>
        <time>2016-01-18T21:02:06Z</time>
      </trkpt>
      <trkpt lat="48.87865" lon="2.32243">
        <ele>55.20000076294</ele>
        <time>2016-01-18T21:02:10Z</time>
      </trkpt>
      <trkpt lat="48.87848" lon="2.3225">
        <ele>54.400001525879</ele>
        <time>2016-01-18T21:02:14Z</time>
      </trkpt>
      <trkpt lat="48.87834" lon="2.32257">
        <ele>53.400001525879</ele>
        <time>2016-01-18T21:02:18Z</time>
      </trkpt>
      <trkpt lat="48.87821" lon="2.3226">
        <ele>52.79999923706</ele>
        <time>2016-01-18T21:02:21Z</time>
      </trkpt>
      <trkpt lat="48.87798" lon="2.32268">
        <ele>51.599998474121</ele>
        <time>2016-01-18T21:02:25Z</time>
      </trkpt>
      <trkpt lat="48.87793" lon="2.3227">
        <ele>51.20000076294</ele>
        <time>2016-01-18T21:02:26Z</time>
      </trkpt>
      <trkpt lat="48.87787" lon="2.32272">
        <ele>51</ele>
        <time>2016-01-18T21:02:27Z</time>
      </trkpt>
      <trkpt lat="48.87768" lon="2.32278">
        <ele>50</ele>
        <time>2016-01-18T21:02:30Z</time>
      </trkpt>
      <trkpt lat="48.87756" lon="2.32286">
        <ele>48.400001525879</ele>
        <time>2016-01-18T21:02:32Z</time>
      </trkpt>
      <trkpt lat="48.87739" lon="2.323">
        <ele>46.20000076294</ele>
        <time>2016-01-18T21:02:35Z</time>
      </trkpt>
      <trkpt lat="48.87733" lon="2.32303">
        <ele>46.20000076294</ele>
        <time>2016-01-18T21:02:36Z</time>
      </trkpt>
      <trkpt lat="48.87716" lon="2.32314">
        <ele>46.20000076294</ele>
        <time>2016-01-18T21:02:39Z</time>
      </trkpt>
      <trkpt lat="48.87697" lon="2.32328">
        <ele>46</ele>
        <time>2016-01-18T21:02:42Z</time>
      </trkpt>
      <trkpt lat="48.87676" lon="2.32345">
        <ele>45.400001525879</ele>
        <time>2016-01-18T21:02:45Z</time>
      </trkpt>
      <trkpt lat="48.87656" lon="2.32361">
        <ele>44.400001525879</ele>
        <time>2016-01-18T21:02:48Z</time>
      </trkpt>
      <trkpt lat="48.87635" lon="2.32374">
        <ele>42.599998474121</ele>
        <time>2016-01-18T21:02:51Z</time>
      </trkpt>
      <trkpt lat="48.87615" lon="2.32387">
        <ele>39.79999923706</ele>
        <time>2016-01-18T21:02:54Z</time>
      </trkpt>
      <trkpt lat="48.87596" lon="2.32398">
        <ele>38.400001525879</ele>
        <time>2016-01-18T21:02:57Z</time>
      </trkpt>
      <trkpt lat="48.87584" lon="2.32405">
        <ele>38.79999923706</ele>
        <time>2016-01-18T21:02:59Z</time>
      </trkpt>
      <trkpt lat="48.87563" lon="2.32408">
        <ele>40.20000076294</ele>
        <time>2016-01-18T21:03:02Z</time>
      </trkpt>
      <trkpt lat="48.87556" lon="2.32405">
        <ele>40.79999923706</ele>
        <time>2016-01-18T21:03:03Z</time>
      </trkpt>
      <trkpt lat="48.87536" lon="2.32404">
        <ele>42.20000076294</ele>
        <time>2016-01-18T21:03:08Z</time>
      </trkpt>
      <trkpt lat="48.87533" lon="2.32402">
        <ele>42.599998474121</ele>
        <time>2016-01-18T21:03:10Z</time>
      </trkpt>
      <trkpt lat="48.8752" lon="2.32392">
        <ele>43.400001525879</ele>
        <time>2016-01-18T21:03:22Z</time>
      </trkpt>
      <trkpt lat="48.875" lon="2.32382">
        <ele>43.20000076294</ele>
        <time>2016-01-18T21:03:30Z</time>
      </trkpt>
      <trkpt lat="48.87482" lon="2.32378">
        <ele>43</ele>
        <time>2016-01-18T21:03:35Z</time>
      </trkpt>
      <trkpt lat="48.87461" lon="2.32379">
        <ele>43</ele>
        <time>2016-01-18T21:03:41Z</time>
      </trkpt>
      <trkpt lat="48.87442" lon="2.32386">
        <ele>43</ele>
        <time>2016-01-18T21:03:45Z</time>
      </trkpt>
      <trkpt lat="48.87424" lon="2.32392">
        <ele>43</ele>
        <time>2016-01-18T21:03:50Z</time>
      </trkpt>
      <trkpt lat="48.87406" lon="2.32388">
        <ele>43.20000076294</ele>
        <time>2016-01-18T21:03:56Z</time>
      </trkpt>
      <trkpt lat="48.87387" lon="2.3238">
        <ele>43.400001525879</ele>
        <time>2016-01-18T21:04:04Z</time>
      </trkpt>
      <trkpt lat="48.87368" lon="2.32375">
        <ele>43.79999923706</ele>
        <time>2016-01-18T21:04:10Z</time>
      </trkpt>
      <trkpt lat="48.87348" lon="2.32368">
        <ele>44.400001525879</ele>
        <time>2016-01-18T21:04:16Z</time>
      </trkpt>
      <trkpt lat="48.87341" lon="2.32392">
        <ele>45.400001525879</ele>
        <time>2016-01-18T21:04:21Z</time>
      </trkpt>
      <trkpt lat="48.87342" lon="2.3242">
        <ele>45.599998474121</ele>
        <time>2016-01-18T21:04:26Z</time>
      </trkpt>
      <trkpt lat="48.87344" lon="2.32449">
        <ele>46.20000076294</ele>
        <time>2016-01-18T21:04:32Z</time>
      </trkpt>
      <trkpt lat="48.87346" lon="2.3248">
        <ele>47</ele>
        <time>2016-01-18T21:04:38Z</time>
      </trkpt>
      <trkpt lat="48.87345" lon="2.32509">
        <ele>47.79999923706</ele>
        <time>2016-01-18T21:04:44Z</time>
      </trkpt>
      <trkpt lat="48.87337" lon="2.32539">
        <ele>49</ele>
        <time>2016-01-18T21:04:50Z</time>
      </trkpt>
      <trkpt lat="48.87339" lon="2.32567">
        <ele>49.79999923706</ele>
        <time>2016-01-18T21:04:55Z</time>
      </trkpt>
      <trkpt lat="48.87343" lon="2.32598">
        <ele>49.20000076294</ele>
        <time>2016-01-18T21:05:01Z</time>
      </trkpt>
      <trkpt lat="48.87341" lon="2.32628">
        <ele>48.400001525879</ele>
        <time>2016-01-18T21:05:08Z</time>
      </trkpt>
      <trkpt lat="48.87325" lon="2.32656">
        <ele>48.20000076294</ele>
        <time>2016-01-18T21:05:14Z</time>
      </trkpt>
      <trkpt lat="48.87323" lon="2.32683">
        <ele>48.400001525879</ele>
        <time>2016-01-18T21:05:19Z</time>
      </trkpt>
      <trkpt lat="48.87323" lon="2.32713">
        <ele>48.400001525879</ele>
        <time>2016-01-18T21:05:24Z</time>
      </trkpt>
      <trkpt lat="48.87324" lon="2.32741">
        <ele>49.400001525879</ele>
        <time>2016-01-18T21:05:28Z</time>
      </trkpt>
      <trkpt lat="48.87324" lon="2.3277">
        <ele>49.599998474121</ele>
        <time>2016-01-18T21:05:32Z</time>
      </trkpt>
      <trkpt lat="48.87325" lon="2.32797">
        <ele>49.599998474121</ele>
        <time>2016-01-18T21:05:36Z</time>
      </trkpt>
      <trkpt lat="48.87322" lon="2.32824">
        <ele>49</ele>
        <time>2016-01-18T21:05:43Z</time>
      </trkpt>
      <trkpt lat="48.87311" lon="2.32851">
        <ele>49.599998474121</ele>
        <time>2016-01-18T21:05:49Z</time>
      </trkpt>
      <trkpt lat="48.87305" lon="2.32883">
        <ele>50</ele>
        <time>2016-01-18T21:05:54Z</time>
      </trkpt>
      <trkpt lat="48.87305" lon="2.32916">
        <ele>50</ele>
        <time>2016-01-18T21:05:58Z</time>
      </trkpt>
      <trkpt lat="48.87306" lon="2.3295">
        <ele>48.599998474121</ele>
        <time>2016-01-18T21:06:02Z</time>
      </trkpt>
      <trkpt lat="48.87308" lon="2.32983">
        <ele>47.599998474121</ele>
        <time>2016-01-18T21:06:06Z</time>
      </trkpt>
      <trkpt lat="48.87305" lon="2.33014">
        <ele>46.79999923706</ele>
        <time>2016-01-18T21:06:10Z</time>
      </trkpt>
      <trkpt lat="48.873" lon="2.33043">
        <ele>45.79999923706</ele>
        <time>2016-01-18T21:06:14Z</time>
      </trkpt>
      <trkpt lat="48.87298" lon="2.33071">
        <ele>44.400001525879</ele>
        <time>2016-01-18T21:06:18Z</time>
      </trkpt>
      <trkpt lat="48.87298" lon="2.33078">
        <ele>44</ele>
        <time>2016-01-18T21:06:19Z</time>
      </trkpt>
      <trkpt lat="48.87297" lon="2.33096">
        <ele>44.599998474121</ele>
        <time>2016-01-18T21:06:23Z</time>
      </trkpt>
      <trkpt lat="48.87279" lon="2.33104">
        <ele>45</ele>
        <time>2016-01-18T21:06:28Z</time>
      </trkpt>
      <trkpt lat="48.87273" lon="2.33103">
        <ele>44.79999923706</ele>
        <time>2016-01-18T21:06:30Z</time>
      </trkpt>
      <trkpt lat="48.87271" lon="2.33104">
        <ele>45</ele>
        <time>2016-01-18T21:06:31Z</time>
      </trkpt>
      <trkpt lat="48.87281" lon="2.33125">
        <ele>46.79999923706</ele>
        <time>2016-01-18T21:06:36Z</time>
      </trkpt>
      <trkpt lat="48.8729" lon="2.33146">
        <ele>48.599998474121</ele>
        <time>2016-01-18T21:06:41Z</time>
      </trkpt>
      <trkpt lat="48.87294" lon="2.33158">
        <ele>49.599998474121</ele>
        <time>2016-01-18T21:06:45Z</time>
      </trkpt>
      <trkpt lat="48.87288" lon="2.33175">
        <ele>50</ele>
        <time>2016-01-18T21:06:50Z</time>
      </trkpt>
      <trkpt lat="48.87273" lon="2.33196">
        <ele>50.400001525879</ele>
        <time>2016-01-18T21:06:56Z</time>
      </trkpt>
      <trkpt lat="48.87262" lon="2.3322">
        <ele>51.20000076294</ele>
        <time>2016-01-18T21:07:02Z</time>
      </trkpt>
      <trkpt lat="48.87253" lon="2.33237">
        <ele>51.20000076294</ele>
        <time>2016-01-18T21:07:06Z</time>
      </trkpt>
      <trkpt lat="48.87241" lon="2.33261">
        <ele>49.79999923706</ele>
        <time>2016-01-18T21:07:12Z</time>
      </trkpt>
      <trkpt lat="48.87228" lon="2.3328">
        <ele>48.79999923706</ele>
        <time>2016-01-18T21:07:17Z</time>
      </trkpt>
      <trkpt lat="48.87215" lon="2.33305">
        <ele>49.79999923706</ele>
        <time>2016-01-18T21:07:23Z</time>
      </trkpt>
      <trkpt lat="48.87203" lon="2.33326">
        <ele>51.20000076294</ele>
        <time>2016-01-18T21:07:28Z</time>
      </trkpt>
      <trkpt lat="48.87187" lon="2.3335">
        <ele>51</ele>
        <time>2016-01-18T21:07:34Z</time>
      </trkpt>
      <trkpt lat="48.87176" lon="2.33375">
        <ele>49.400001525879</ele>
        <time>2016-01-18T21:07:40Z</time>
      </trkpt>
      <trkpt lat="48.87158" lon="2.3339">
        <ele>48.20000076294</ele>
        <time>2016-01-18T21:07:46Z</time>
      </trkpt>
      <trkpt lat="48.87138" lon="2.33398">
        <ele>48.20000076294</ele>
        <time>2016-01-18T21:07:52Z</time>
      </trkpt>
      <trkpt lat="48.87115" lon="2.33407">
        <ele>48</ele>
        <time>2016-01-18T21:07:57Z</time>
      </trkpt>
      <trkpt lat="48.87102" lon="2.33415">
        <ele>48</ele>
        <time>2016-01-18T21:08:01Z</time>
      </trkpt>
      <trkpt lat="48.87098" lon="2.33445">
        <ele>48.400001525879</ele>
        <time>2016-01-18T21:08:07Z</time>
      </trkpt>
      <trkpt lat="48.87102" lon="2.3346">
        <ele>48.599998474121</ele>
        <time>2016-01-18T21:08:10Z</time>
      </trkpt>
      <trkpt lat="48.87111" lon="2.33488">
        <ele>48.79999923706</ele>
        <time>2016-01-18T21:08:17Z</time>
      </trkpt>
      <trkpt lat="48.87119" lon="2.33516">
        <ele>49.599998474121</ele>
        <time>2016-01-18T21:08:24Z</time>
      </trkpt>
      <trkpt lat="48.87127" lon="2.33543">
        <ele>50.599998474121</ele>
        <time>2016-01-18T21:08:30Z</time>
      </trkpt>
      <trkpt lat="48.87135" lon="2.33573">
        <ele>51.79999923706</ele>
        <time>2016-01-18T21:08:36Z</time>
      </trkpt>
      <trkpt lat="48.87142" lon="2.33599">
        <ele>51.79999923706</ele>
        <time>2016-01-18T21:08:41Z</time>
      </trkpt>
      <trkpt lat="48.87151" lon="2.33627">
        <ele>51.599998474121</ele>
        <time>2016-01-18T21:08:46Z</time>
      </trkpt>
      <trkpt lat="48.87155" lon="2.33655">
        <ele>52</ele>
        <time>2016-01-18T21:08:51Z</time>
      </trkpt>
      <trkpt lat="48.87168" lon="2.33677">
        <ele>51.400001525879</ele>
        <time>2016-01-18T21:08:58Z</time>
      </trkpt>
      <trkpt lat="48.8718" lon="2.33698">
        <ele>50.599998474121</ele>
        <time>2016-01-18T21:09:04Z</time>
      </trkpt>
      <trkpt lat="48.87186" lon="2.33727">
        <ele>49.599998474121</ele>
        <time>2016-01-18T21:09:10Z</time>
      </trkpt>
      <trkpt lat="48.87185" lon="2.33762">
        <ele>49.400001525879</ele>
        <time>2016-01-18T21:09:17Z</time>
      </trkpt>
      <trkpt lat="48.87187" lon="2.33792">
        <ele>49.599998474121</ele>
        <time>2016-01-18T21:09:22Z</time>
      </trkpt>
      <trkpt lat="48.87198" lon="2.33821">
        <ele>50</ele>
        <time>2016-01-18T21:09:27Z</time>
      </trkpt>
      <trkpt lat="48.87207" lon="2.33846">
        <ele>50.20000076294</ele>
        <time>2016-01-18T21:09:31Z</time>
      </trkpt>
      <trkpt lat="48.87212" lon="2.33873">
        <ele>50.20000076294</ele>
        <time>2016-01-18T21:09:35Z</time>
      </trkpt>
      <trkpt lat="48.87221" lon="2.33903">
        <ele>50.400001525879</ele>
        <time>2016-01-18T21:09:40Z</time>
      </trkpt>
      <trkpt lat="48.87231" lon="2.33928">
        <ele>49.79999923706</ele>
        <time>2016-01-18T21:09:44Z</time>
      </trkpt>
      <trkpt lat="48.87239" lon="2.33957">
        <ele>48.599998474121</ele>
        <time>2016-01-18T21:09:49Z</time>
      </trkpt>
      <trkpt lat="48.87229" lon="2.33975">
        <ele>48</ele>
        <time>2016-01-18T21:09:52Z</time>
      </trkpt>
      <trkpt lat="48.87227" lon="2.3398">
        <ele>48</ele>
        <time>2016-01-18T21:09:54Z</time>
      </trkpt>
      <trkpt lat="48.87223" lon="2.33983">
        <ele>48</ele>
        <time>2016-01-18T21:09:58Z</time>
      </trkpt>
      <trkpt lat="48.87221" lon="2.33984">
        <ele>48</ele>
        <time>2016-01-18T21:09:59Z</time>
      </trkpt>
      <trkpt lat="48.87222" lon="2.33985">
        <ele>48</ele>
        <time>2016-01-18T21:10:11Z</time>
      </trkpt>
      <trkpt lat="48.87221" lon="2.33986">
        <ele>48</ele>
        <time>2016-01-18T21:10:13Z</time>
      </trkpt>
      <trkpt lat="48.87218" lon="2.33987">
        <ele>48</ele>
        <time>2016-01-18T21:10:16Z</time>
      </trkpt>
      <trkpt lat="48.87204" lon="2.33994">
        <ele>47.79999923706</ele>
        <time>2016-01-18T21:10:35Z</time>
      </trkpt>
      <trkpt lat="48.872" lon="2.33994">
        <ele>48</ele>
        <time>2016-01-18T21:10:36Z</time>
      </trkpt>
      <trkpt lat="48.87179" lon="2.3399">
        <ele>48</ele>
        <time>2016-01-18T21:10:40Z</time>
      </trkpt>
      <trkpt lat="48.8716" lon="2.33984">
        <ele>47.79999923706</ele>
        <time>2016-01-18T21:10:44Z</time>
      </trkpt>
      <trkpt lat="48.87141" lon="2.33973">
        <ele>47.79999923706</ele>
        <time>2016-01-18T21:10:49Z</time>
      </trkpt>
      <trkpt lat="48.87129" lon="2.33969">
        <ele>47.599998474121</ele>
        <time>2016-01-18T21:10:52Z</time>
      </trkpt>
      <trkpt lat="48.87109" lon="2.33968">
        <ele>47.599998474121</ele>
        <time>2016-01-18T21:10:56Z</time>
      </trkpt>
      <trkpt lat="48.87089" lon="2.33965">
        <ele>48.20000076294</ele>
        <time>2016-01-18T21:11:00Z</time>
      </trkpt>
      <trkpt lat="48.87071" lon="2.33958">
        <ele>48.79999923706</ele>
        <time>2016-01-18T21:11:04Z</time>
      </trkpt>
      <trkpt lat="48.87052" lon="2.33945">
        <ele>49.20000076294</ele>
        <time>2016-01-18T21:11:09Z</time>
      </trkpt>
      <trkpt lat="48.87032" lon="2.33934">
        <ele>49.599998474121</ele>
        <time>2016-01-18T21:11:14Z</time>
      </trkpt>
      <trkpt lat="48.87013" lon="2.33923">
        <ele>49.79999923706</ele>
        <time>2016-01-18T21:11:19Z</time>
      </trkpt>
      <trkpt lat="48.87006" lon="2.33919">
        <ele>49.79999923706</ele>
        <time>2016-01-18T21:11:21Z</time>
      </trkpt>
      <trkpt lat="48.86984" lon="2.33899">
        <ele>49.79999923706</ele>
        <time>2016-01-18T21:11:27Z</time>
      </trkpt>
      <trkpt lat="48.8698" lon="2.33895">
        <ele>49.79999923706</ele>
        <time>2016-01-18T21:11:28Z</time>
      </trkpt>
      <trkpt lat="48.86965" lon="2.33886">
        <ele>49.599998474121</ele>
        <time>2016-01-18T21:11:32Z</time>
      </trkpt>
      <trkpt lat="48.86951" lon="2.33876">
        <ele>49.599998474121</ele>
        <time>2016-01-18T21:11:36Z</time>
      </trkpt>
      <trkpt lat="48.8694" lon="2.33862">
        <ele>49.599998474121</ele>
        <time>2016-01-18T21:11:40Z</time>
      </trkpt>
      <trkpt lat="48.86937" lon="2.33858">
        <ele>49.79999923706</ele>
        <time>2016-01-18T21:11:41Z</time>
      </trkpt>
      <trkpt lat="48.86927" lon="2.33858">
        <ele>49.79999923706</ele>
        <time>2016-01-18T21:11:46Z</time>
      </trkpt>
      <trkpt lat="48.86925" lon="2.33859">
        <ele>49.79999923706</ele>
        <time>2016-01-18T21:11:48Z</time>
      </trkpt>
      <trkpt lat="48.86913" lon="2.33856">
        <ele>50</ele>
        <time>2016-01-18T21:11:54Z</time>
      </trkpt>
      <trkpt lat="48.86892" lon="2.33849">
        <ele>50.400001525879</ele>
        <time>2016-01-18T21:12:00Z</time>
      </trkpt>
      <trkpt lat="48.86873" lon="2.33845">
        <ele>50.599998474121</ele>
        <time>2016-01-18T21:12:05Z</time>
      </trkpt>
      <trkpt lat="48.86851" lon="2.33842">
        <ele>50.599998474121</ele>
        <time>2016-01-18T21:12:10Z</time>
      </trkpt>
      <trkpt lat="48.86832" lon="2.33836">
        <ele>50.400001525879</ele>
        <time>2016-01-18T21:12:15Z</time>
      </trkpt>
      <trkpt lat="48.86814" lon="2.33824">
        <ele>50.20000076294</ele>
        <time>2016-01-18T21:12:20Z</time>
      </trkpt>
      <trkpt lat="48.86796" lon="2.33812">
        <ele>50</ele>
        <time>2016-01-18T21:12:25Z</time>
      </trkpt>
      <trkpt lat="48.8678" lon="2.33793">
        <ele>50</ele>
        <time>2016-01-18T21:12:30Z</time>
      </trkpt>
      <trkpt lat="48.86765" lon="2.33778">
        <ele>50.20000076294</ele>
        <time>2016-01-18T21:12:37Z</time>
      </trkpt>
      <trkpt lat="48.86747" lon="2.33765">
        <ele>50.599998474121</ele>
        <time>2016-01-18T21:12:43Z</time>
      </trkpt>
      <trkpt lat="48.8673" lon="2.3375">
        <ele>51</ele>
        <time>2016-01-18T21:12:50Z</time>
      </trkpt>
      <trkpt lat="48.86711" lon="2.3374">
        <ele>51</ele>
        <time>2016-01-18T21:12:56Z</time>
      </trkpt>
      <trkpt lat="48.8669" lon="2.33728">
        <ele>51</ele>
        <time>2016-01-18T21:13:02Z</time>
      </trkpt>
      <trkpt lat="48.86671" lon="2.3372">
        <ele>50.79999923706</ele>
        <time>2016-01-18T21:13:08Z</time>
      </trkpt>
      <trkpt lat="48.86652" lon="2.33709">
        <ele>50.599998474121</ele>
        <time>2016-01-18T21:13:13Z</time>
      </trkpt>
      <trkpt lat="48.86634" lon="2.33699">
        <ele>50</ele>
        <time>2016-01-18T21:13:18Z</time>
      </trkpt>
      <trkpt lat="48.86617" lon="2.3369">
        <ele>49.400001525879</ele>
        <time>2016-01-18T21:13:23Z</time>
      </trkpt>
      <trkpt lat="48.86597" lon="2.33686">
        <ele>48.79999923706</ele>
        <time>2016-01-18T21:13:28Z</time>
      </trkpt>
      <trkpt lat="48.86577" lon="2.33683">
        <ele>48.400001525879</ele>
        <time>2016-01-18T21:13:33Z</time>
      </trkpt>
      <trkpt lat="48.86557" lon="2.33683">
        <ele>47.79999923706</ele>
        <time>2016-01-18T21:13:38Z</time>
      </trkpt>
      <trkpt lat="48.86536" lon="2.33678">
        <ele>47.599998474121</ele>
        <time>2016-01-18T21:13:43Z</time>
      </trkpt>
      <trkpt lat="48.86518" lon="2.33672">
        <ele>47</ele>
        <time>2016-01-18T21:13:47Z</time>
      </trkpt>
      <trkpt lat="48.86501" lon="2.33666">
        <ele>47</ele>
        <time>2016-01-18T21:13:51Z</time>
      </trkpt>
      <trkpt lat="48.86483" lon="2.33647">
        <ele>47</ele>
        <time>2016-01-18T21:13:55Z</time>
      </trkpt>
      <trkpt lat="48.86465" lon="2.33633">
        <ele>46.599998474121</ele>
        <time>2016-01-18T21:13:59Z</time>
      </trkpt>
      <trkpt lat="48.86447" lon="2.33623">
        <ele>46.20000076294</ele>
        <time>2016-01-18T21:14:03Z</time>
      </trkpt>
      <trkpt lat="48.86431" lon="2.33598">
        <ele>46.599998474121</ele>
        <time>2016-01-18T21:14:07Z</time>
      </trkpt>
      <trkpt lat="48.86423" lon="2.3359">
        <ele>46.79999923706</ele>
        <time>2016-01-18T21:14:09Z</time>
      </trkpt>
      <trkpt lat="48.86414" lon="2.33584">
        <ele>47</ele>
        <time>2016-01-18T21:14:16Z</time>
      </trkpt>
      <trkpt lat="48.86416" lon="2.33587">
        <ele>46.79999923706</ele>
        <time>2016-01-18T21:14:17Z</time>
      </trkpt>
      <trkpt lat="48.86418" lon="2.33591">
        <ele>46.79999923706</ele>
        <time>2016-01-18T21:14:18Z</time>
      </trkpt>
      <trkpt lat="48.86434" lon="2.3361">
        <ele>46.20000076294</ele>
        <time>2016-01-18T21:14:25Z</time>
      </trkpt>
      <trkpt lat="48.86437" lon="2.33612">
        <ele>46.20000076294</ele>
        <time>2016-01-18T21:14:26Z</time>
      </trkpt>
      <trkpt lat="48.86456" lon="2.33617">
        <ele>46.79999923706</ele>
        <time>2016-01-18T21:14:32Z</time>
      </trkpt>
      <trkpt lat="48.86473" lon="2.33628">
        <ele>47</ele>
        <time>2016-01-18T21:14:39Z</time>
      </trkpt>
      <trkpt lat="48.86493" lon="2.3364">
        <ele>47.400001525879</ele>
        <time>2016-01-18T21:14:44Z</time>
      </trkpt>
      <trkpt lat="48.8651" lon="2.33649">
        <ele>48</ele>
        <time>2016-01-18T21:14:48Z</time>
      </trkpt>
      <trkpt lat="48.86527" lon="2.33665">
        <ele>48</ele>
        <time>2016-01-18T21:14:53Z</time>
      </trkpt>
      <trkpt lat="48.86542" lon="2.33684">
        <ele>47.400001525879</ele>
        <time>2016-01-18T21:14:58Z</time>
      </trkpt>
      <trkpt lat="48.86561" lon="2.33697">
        <ele>47.400001525879</ele>
        <time>2016-01-18T21:15:03Z</time>
      </trkpt>
      <trkpt lat="48.86582" lon="2.33704">
        <ele>47.599998474121</ele>
        <time>2016-01-18T21:15:07Z</time>
      </trkpt>
      <trkpt lat="48.86602" lon="2.3371">
        <ele>47.79999923706</ele>
        <time>2016-01-18T21:15:11Z</time>
      </trkpt>
      <trkpt lat="48.86623" lon="2.33715">
        <ele>48.599998474121</ele>
        <time>2016-01-18T21:15:15Z</time>
      </trkpt>
      <trkpt lat="48.86642" lon="2.3372">
        <ele>49.400001525879</ele>
        <time>2016-01-18T21:15:19Z</time>
      </trkpt>
      <trkpt lat="48.86651" lon="2.33727">
        <ele>49.599998474121</ele>
        <time>2016-01-18T21:15:22Z</time>
      </trkpt>
      <trkpt lat="48.86657" lon="2.33727">
        <ele>50</ele>
        <time>2016-01-18T21:15:25Z</time>
      </trkpt>
      <trkpt lat="48.86656" lon="2.33759">
        <ele>48.79999923706</ele>
        <time>2016-01-18T21:15:32Z</time>
      </trkpt>
      <trkpt lat="48.86655" lon="2.33792">
        <ele>47.79999923706</ele>
        <time>2016-01-18T21:15:37Z</time>
      </trkpt>
      <trkpt lat="48.86654" lon="2.33801">
        <ele>47.79999923706</ele>
        <time>2016-01-18T21:15:39Z</time>
      </trkpt>
      <trkpt lat="48.86657" lon="2.33835">
        <ele>47.79999923706</ele>
        <time>2016-01-18T21:15:45Z</time>
      </trkpt>
      <trkpt lat="48.86664" lon="2.33843">
        <ele>48</ele>
        <time>2016-01-18T21:16:02Z</time>
      </trkpt>
      <trkpt lat="48.86664" lon="2.3387">
        <ele>47.599998474121</ele>
        <time>2016-01-18T21:16:10Z</time>
      </trkpt>
      <trkpt lat="48.86661" lon="2.33897">
        <ele>47.79999923706</ele>
        <time>2016-01-18T21:16:15Z</time>
      </trkpt>
      <trkpt lat="48.86653" lon="2.33927">
        <ele>49.400001525879</ele>
        <time>2016-01-18T21:16:21Z</time>
      </trkpt>
      <trkpt lat="48.86645" lon="2.33952">
        <ele>50.400001525879</ele>
        <time>2016-01-18T21:16:26Z</time>
      </trkpt>
      <trkpt lat="48.86632" lon="2.33973">
        <ele>50.79999923706</ele>
        <time>2016-01-18T21:16:31Z</time>
      </trkpt>
      <trkpt lat="48.86616" lon="2.33993">
        <ele>51</ele>
        <time>2016-01-18T21:16:36Z</time>
      </trkpt>
      <trkpt lat="48.86597" lon="2.34007">
        <ele>50.400001525879</ele>
        <time>2016-01-18T21:16:41Z</time>
      </trkpt>
      <trkpt lat="48.86575" lon="2.34022">
        <ele>49.20000076294</ele>
        <time>2016-01-18T21:16:46Z</time>
      </trkpt>
      <trkpt lat="48.86557" lon="2.34028">
        <ele>48.400001525879</ele>
        <time>2016-01-18T21:16:48Z</time>
      </trkpt>
      <trkpt lat="48.86538" lon="2.34024">
        <ele>48.400001525879</ele>
        <time>2016-01-18T21:16:51Z</time>
      </trkpt>
      <trkpt lat="48.86515" lon="2.34017">
        <ele>48.79999923706</ele>
        <time>2016-01-18T21:16:55Z</time>
      </trkpt>
      <trkpt lat="48.86496" lon="2.34007">
        <ele>49.20000076294</ele>
        <time>2016-01-18T21:16:59Z</time>
      </trkpt>
      <trkpt lat="48.86476" lon="2.33998">
        <ele>49.79999923706</ele>
        <time>2016-01-18T21:17:03Z</time>
      </trkpt>
      <trkpt lat="48.86455" lon="2.33988">
        <ele>50.400001525879</ele>
        <time>2016-01-18T21:17:07Z</time>
      </trkpt>
      <trkpt lat="48.86436" lon="2.33979">
        <ele>50.599998474121</ele>
        <time>2016-01-18T21:17:11Z</time>
      </trkpt>
      <trkpt lat="48.86432" lon="2.33977">
        <ele>50.400001525879</ele>
        <time>2016-01-18T21:17:12Z</time>
      </trkpt>
      <trkpt lat="48.86412" lon="2.3397">
        <ele>49.400001525879</ele>
        <time>2016-01-18T21:17:16Z</time>
      </trkpt>
      <trkpt lat="48.86399" lon="2.33962">
        <ele>48.79999923706</ele>
        <time>2016-01-18T21:17:19Z</time>
      </trkpt>
      <trkpt lat="48.86384" lon="2.33957">
        <ele>48.20000076294</ele>
        <time>2016-01-18T21:17:23Z</time>
      </trkpt>
      <trkpt lat="48.86366" lon="2.33953">
        <ele>47.599998474121</ele>
        <time>2016-01-18T21:17:27Z</time>
      </trkpt>
      <trkpt lat="48.86346" lon="2.33942">
        <ele>47.20000076294</ele>
        <time>2016-01-18T21:17:31Z</time>
      </trkpt>
      <trkpt lat="48.86327" lon="2.3393">
        <ele>47.20000076294</ele>
        <time>2016-01-18T21:17:35Z</time>
      </trkpt>
      <trkpt lat="48.86322" lon="2.33927">
        <ele>47.20000076294</ele>
        <time>2016-01-18T21:17:36Z</time>
      </trkpt>
      <trkpt lat="48.86302" lon="2.33918">
        <ele>47.400001525879</ele>
        <time>2016-01-18T21:17:40Z</time>
      </trkpt>
      <trkpt lat="48.86282" lon="2.33911">
        <ele>47.599998474121</ele>
        <time>2016-01-18T21:17:44Z</time>
      </trkpt>
      <trkpt lat="48.86264" lon="2.33905">
        <ele>47.400001525879</ele>
        <time>2016-01-18T21:17:48Z</time>
      </trkpt>
      <trkpt lat="48.86263" lon="2.3391">
        <ele>47.599998474121</ele>
        <time>2016-01-18T21:18:23Z</time>
      </trkpt>
      <trkpt lat="48.86269" lon="2.33921">
        <ele>48</ele>
        <time>2016-01-18T21:18:34Z</time>
      </trkpt>
      <trkpt lat="48.86279" lon="2.33916">
        <ele>48</ele>
        <time>2016-01-18T21:18:38Z</time>
      </trkpt>
      <trkpt lat="48.86297" lon="2.33909">
        <ele>47.20000076294</ele>
        <time>2016-01-18T21:18:46Z</time>
      </trkpt>
      <trkpt lat="48.86316" lon="2.33903">
        <ele>46.599998474121</ele>
        <time>2016-01-18T21:18:54Z</time>
      </trkpt>
      <trkpt lat="48.8634" lon="2.33917">
        <ele>46.400001525879</ele>
        <time>2016-01-18T21:18:59Z</time>
      </trkpt>
      <trkpt lat="48.86332" lon="2.33932">
        <ele>47.20000076294</ele>
        <time>2016-01-18T21:19:01Z</time>
      </trkpt>
      <trkpt lat="48.86306" lon="2.33942">
        <ele>48.20000076294</ele>
        <time>2016-01-18T21:19:05Z</time>
      </trkpt>
      <trkpt lat="48.86279" lon="2.33946">
        <ele>48.599998474121</ele>
        <time>2016-01-18T21:19:09Z</time>
      </trkpt>
      <trkpt lat="48.86258" lon="2.33943">
        <ele>48.20000076294</ele>
        <time>2016-01-18T21:19:14Z</time>
      </trkpt>
      <trkpt lat="48.86245" lon="2.3394">
        <ele>47.599998474121</ele>
        <time>2016-01-18T21:19:19Z</time>
      </trkpt>
      <trkpt lat="48.8624" lon="2.33942">
        <ele>47.599998474121</ele>
        <time>2016-01-18T21:19:21Z</time>
      </trkpt>
      <trkpt lat="48.86236" lon="2.33958">
        <ele>47.79999923706</ele>
        <time>2016-01-18T21:19:25Z</time>
      </trkpt>
      <trkpt lat="48.86227" lon="2.3399">
        <ele>49.20000076294</ele>
        <time>2016-01-18T21:19:30Z</time>
      </trkpt>
      <trkpt lat="48.86207" lon="2.34012">
        <ele>49.599998474121</ele>
        <time>2016-01-18T21:19:34Z</time>
      </trkpt>
      <trkpt lat="48.86197" lon="2.3404">
        <ele>49.20000076294</ele>
        <time>2016-01-18T21:19:38Z</time>
      </trkpt>
      <trkpt lat="48.86188" lon="2.34069">
        <ele>49</ele>
        <time>2016-01-18T21:19:42Z</time>
      </trkpt>
      <trkpt lat="48.86188" lon="2.34077">
        <ele>49</ele>
        <time>2016-01-18T21:19:43Z</time>
      </trkpt>
      <trkpt lat="48.86185" lon="2.34105">
        <ele>49.20000076294</ele>
        <time>2016-01-18T21:19:47Z</time>
      </trkpt>
      <trkpt lat="48.8618" lon="2.34122">
        <ele>49.20000076294</ele>
        <time>2016-01-18T21:19:51Z</time>
      </trkpt>
      <trkpt lat="48.86179" lon="2.34132">
        <ele>49.20000076294</ele>
        <time>2016-01-18T21:19:53Z</time>
      </trkpt>
      <trkpt lat="48.86176" lon="2.34159">
        <ele>49.599998474121</ele>
        <time>2016-01-18T21:19:58Z</time>
      </trkpt>
      <trkpt lat="48.86174" lon="2.34164">
        <ele>49.599998474121</ele>
        <time>2016-01-18T21:19:59Z</time>
      </trkpt>
      <trkpt lat="48.86167" lon="2.34194">
        <ele>49.400001525879</ele>
        <time>2016-01-18T21:20:04Z</time>
      </trkpt>
      <trkpt lat="48.86165" lon="2.34206">
        <ele>49.400001525879</ele>
        <time>2016-01-18T21:20:06Z</time>
      </trkpt>
      <trkpt lat="48.86157" lon="2.34222">
        <ele>49.400001525879</ele>
        <time>2016-01-18T21:20:09Z</time>
      </trkpt>
      <trkpt lat="48.8615" lon="2.34248">
        <ele>49.599998474121</ele>
        <time>2016-01-18T21:20:13Z</time>
      </trkpt>
      <trkpt lat="48.8615" lon="2.34254">
        <ele>49.400001525879</ele>
        <time>2016-01-18T21:20:14Z</time>
      </trkpt>
      <trkpt lat="48.8615" lon="2.34285">
        <ele>49</ele>
        <time>2016-01-18T21:20:18Z</time>
      </trkpt>
      <trkpt lat="48.86149" lon="2.34297">
        <ele>49.20000076294</ele>
        <time>2016-01-18T21:20:20Z</time>
      </trkpt>
      <trkpt lat="48.86138" lon="2.34325">
        <ele>50</ele>
        <time>2016-01-18T21:20:26Z</time>
      </trkpt>
      <trkpt lat="48.86137" lon="2.34331">
        <ele>50.20000076294</ele>
        <time>2016-01-18T21:20:27Z</time>
      </trkpt>
      <trkpt lat="48.86129" lon="2.34357">
        <ele>49.400001525879</ele>
        <time>2016-01-18T21:20:31Z</time>
      </trkpt>
      <trkpt lat="48.86129" lon="2.34365">
        <ele>49.20000076294</ele>
        <time>2016-01-18T21:20:32Z</time>
      </trkpt>
      <trkpt lat="48.86125" lon="2.34395">
        <ele>49</ele>
        <time>2016-01-18T21:20:37Z</time>
      </trkpt>
      <trkpt lat="48.86125" lon="2.34427">
        <ele>47.599998474121</ele>
        <time>2016-01-18T21:20:42Z</time>
      </trkpt>
      <trkpt lat="48.86123" lon="2.34456">
        <ele>47.599998474121</ele>
        <time>2016-01-18T21:20:46Z</time>
      </trkpt>
      <trkpt lat="48.8612" lon="2.34465">
        <ele>48.400001525879</ele>
        <time>2016-01-18T21:20:48Z</time>
      </trkpt>
      <trkpt lat="48.86102" lon="2.34487">
        <ele>51</ele>
        <time>2016-01-18T21:20:53Z</time>
      </trkpt>
      <trkpt lat="48.86097" lon="2.34496">
        <ele>51.20000076294</ele>
        <time>2016-01-18T21:20:55Z</time>
      </trkpt>
      <trkpt lat="48.86092" lon="2.34507">
        <ele>51.20000076294</ele>
        <time>2016-01-18T21:20:57Z</time>
      </trkpt>
      <trkpt lat="48.86084" lon="2.34537">
        <ele>51</ele>
        <time>2016-01-18T21:21:02Z</time>
      </trkpt>
      <trkpt lat="48.86078" lon="2.34563">
        <ele>50.599998474121</ele>
        <time>2016-01-18T21:21:06Z</time>
      </trkpt>
      <trkpt lat="48.86065" lon="2.34586">
        <ele>49</ele>
        <time>2016-01-18T21:21:11Z</time>
      </trkpt>
      <trkpt lat="48.86052" lon="2.3461">
        <ele>47</ele>
        <time>2016-01-18T21:21:16Z</time>
      </trkpt>
      <trkpt lat="48.86038" lon="2.34631">
        <ele>46.599998474121</ele>
        <time>2016-01-18T21:21:21Z</time>
      </trkpt>
      <trkpt lat="48.8602" lon="2.34644">
        <ele>46.79999923706</ele>
        <time>2016-01-18T21:21:25Z</time>
      </trkpt>
      <trkpt lat="48.86012" lon="2.34648">
        <ele>46.79999923706</ele>
        <time>2016-01-18T21:21:26Z</time>
      </trkpt>
      <trkpt lat="48.85996" lon="2.34663">
        <ele>46.400001525879</ele>
        <time>2016-01-18T21:21:30Z</time>
      </trkpt>
      <trkpt lat="48.85982" lon="2.34676">
        <ele>46.400001525879</ele>
        <time>2016-01-18T21:21:36Z</time>
      </trkpt>
      <trkpt lat="48.85975" lon="2.34688">
        <ele>46.20000076294</ele>
        <time>2016-01-18T21:21:40Z</time>
      </trkpt>
      <trkpt lat="48.8597" lon="2.34701">
        <ele>46</ele>
        <time>2016-01-18T21:21:45Z</time>
      </trkpt>
      <trkpt lat="48.85956" lon="2.3472">
        <ele>45.20000076294</ele>
        <time>2016-01-18T21:21:54Z</time>
      </trkpt>
      <trkpt lat="48.85955" lon="2.34722">
        <ele>45</ele>
        <time>2016-01-18T21:22:00Z</time>
      </trkpt>
      <trkpt lat="48.85961" lon="2.34724">
        <ele>45.20000076294</ele>
        <time>2016-01-18T21:22:06Z</time>
      </trkpt>
      <trkpt lat="48.85971" lon="2.34719">
        <ele>45.400001525879</ele>
        <time>2016-01-18T21:22:10Z</time>
      </trkpt>
    </trkseg>
  </trk>
</gpx>